[[{"header":{"parameterUnit":"m.s-1","parameterCategory":1,"la1":31.0,"la2":29.5877,"lo1":-88.7671,"lo2":-86.6584,"dy":0.0162,"dx":0.0185,"nx":115,"ny":88,"refTime":"2024-06-21T06:00:00:Z","depth":0,"parameterNumber":2,"parameterNumberName":"U-component_of_WINDS"},"data":[0.0,0.0,0.0,0.0,0.0,0.0,0.0,0.0,0.0,0.0,0.0,0.0,0.0,0.0,0.0,0.0,0.0,0.0,0.0,0.0,0.0,0.0,0.0,0.0,0.0,0.0,0.0,0.0,0.0,0.0,0.0,0.0,0.0,0.0,0.0,0.0,0.0,0.0,0.0,0.0,0.0,0.0,0.0,0.0,0.0,0.0,0.0,0.0,0.0,0.0,0.0,0.0,0.0,0.0,0.0,0.0,0.0,0.0,0.0,0.0,0.0,0.0,0.0,0.0,0.0,0.0,0.0,0.0,0.0,0.0,0.0,0.0,0.0,0.0,0.0,0.0,0.0,0.0,0.0,0.0,0.0,0.0,0.0,0.0,0.0,0.0,0.0,0.0,0.0,0.0,0.0,0.0,0.0,0.0,0.0,0.0,0.0,0.0,0.0,0.0,0.0,0.0,0.0,0.0,0.0,0.0,0.0,0.0,0.0,0.0,0.0,0.0,0.0,0.0,0.0,0.0,0.0,0.0,0.0,0.0,0.0,0.0,0.0,0.0,0.0,0.0,0.0,0.0,0.0,0.0,0.0,0.0,0.0,0.0,0.0,0.0,0.0,0.0,0.0,0.0,0.0,0.0,0.0,0.0,0.0,0.0,0.0,0.0,0.0,0.0,0.0,0.0,0.0,0.0,0.0,0.0,0.0,0.0,0.0,0.0,0.0,0.0,0.0,0.0,0.0,0.0,0.0,0.0,0.0,0.0,0.0,0.0,0.0,0.0,0.0,0.0,0.0,0.0,0.0,0.0,0.0,0.0,0.0,0.0,0.0,0.0,0.0,0.0,0.0,0.0,0.0,0.0,0.0,0.0,0.0,0.0,0.0,0.0,0.0,0.0,0.0,0.0,0.0,0.0,0.0,0.0,0.0,0.0,0.0,0.0,0.0,0.0,0.0,0.0,0.0,0.0,0.0,0.0,0.0,0.0,0.0,0.0,0.0,0.0,0.0,0.0,0.0,0.0,0.0,0.0,0.0,0.0,0.0,0.0,0.0,0.0,0.0,0.0,0.0,0.0,0.0,0.0,0.0,0.0,0.0,0.0,0.0,0.0,0.0,0.0,0.0,0.0,0.0,0.0,0.0,0.0,0.0,0.0,0.0,0.0,0.0,0.0,0.0,0.0,0.0,0.0,0.0,0.0,0.0,0.0,0.0,0.0,0.0,0.0,0.0,0.0,0.0,0.0,0.0,0.0,0.0,0.0,0.0,0.0,0.0,0.0,0.0,0.0,0.0,0.0,0.0,0.0,0.0,0.0,0.0,0.0,0.0,0.0,0.0,0.0,0.0,0.0,0.0,0.0,0.0,0.0,0.0,0.0,0.0,0.0,0.0,0.0,0.0,0.0,0.0,0.0,0.0,0.0,0.0,0.0,0.0,0.0,0.0,0.0,0.0,0.0,0.0,0.0,0.0,0.0,0.0,0.0,0.0,0.0,0.0,0.0,0.0,0.0,0.0,0.0,0.0,0.0,0.0,0.0,0.0,0.0,0.0,0.0,0.0,0.0,0.0,0.0,0.0,0.0,0.0,0.0,0.0,0.0,0.0,0.0,0.0,0.0,0.0,0.0,0.0,0.0,0.0,0.0,0.0,0.0,0.0,0.0,0.0,0.0,0.0,0.0,0.0,0.0,0.0,0.0,0.0,0.0,0.0,0.0,0.0,0.0,0.0,0.0,0.0,0.0,0.0,0.0,0.0,0.0,0.0,0.0,0.0,0.0,0.0,0.0,0.0,0.0,0.0,0.0,0.0,0.0,0.0,0.0,0.0,0.0,0.0,0.0,0.0,0.0,0.0,0.0,0.0,0.0,0.0,0.0,0.0,0.0,0.0,0.0,0.0,0.0,0.0,0.0,0.0,0.0,0.0,0.0,0.0,0.0,0.0,0.0,0.0,0.0,0.0,0.0,0.0,0.0,0.0,0.0,0.0,0.0,0.0,0.0,0.0,0.0,0.0,0.0,0.0,0.0,0.0,0.0,0.0,0.0,0.0,0.0,0.0,0.0,0.0,0.0,0.0,0.0,0.0,0.0,0.0,0.0,0.0,0.0,0.0,0.0,0.0,0.0,0.0,0.0,0.0,0.0,0.0,0.0,0.0,0.0,0.0,0.0,0.0,0.0,0.0,0.0,0.0,0.0,0.0,0.0,0.0,0.0,0.0,0.0,0.0,0.0,0.0,0.0,0.0,0.0,0.0,0.0,0.0,0.0,0.0,0.0,0.0,0.0,0.0,0.0,0.0,0.0,0.0,0.0,0.0,0.0,0.0,0.0,0.0,0.0,0.0,0.0,0.0,0.0,0.0,0.0,0.0,0.0,0.0,0.0,0.0,0.0,0.0,0.0,0.0,0.0,0.0,0.0,0.0,0.0,0.0,0.0,0.0,0.0,0.0,0.0,0.0,0.0,0.0,0.0,0.0,0.0,0.0,0.0,0.0,0.0,0.0,0.0,0.0,0.0,0.0,0.0,0.0,0.0,0.0,0.0,0.0,0.0,0.0,0.0,0.0,0.0,0.0,0.0,0.0,0.0,0.0,0.0,0.0,0.0,0.0,0.0,0.0,0.0,0.0,0.0,0.0,0.0,0.0,0.0,0.0,0.0,0.0,0.0,0.0,0.0,0.0,0.0,0.0,0.0,0.0,0.0,0.0,0.0,0.0,0.0,0.0,0.0,0.0,0.0,0.0,0.0,0.0,0.0,0.0,0.0,0.0,0.0,0.0,0.0,0.0,0.0,0.0,0.0,0.0,0.0,0.0,0.0,0.0,0.0,0.0,0.0,0.0,0.0,0.0,0.0,0.0,0.0,0.0,0.0,0.0,0.0,0.0,0.0,0.0,0.0,0.0,0.0,0.0,0.0,0.0,0.0,0.0,0.0,0.0,0.0,0.0,0.0,0.0,0.0,0.0,0.0,0.0,0.0,0.0,0.0,0.0,0.0,0.0,0.0,0.0,0.0,0.0,0.0,0.0,0.0,0.0,0.0,0.0,0.0,0.0,0.0,0.0,0.0,0.0,0.0,0.0,0.0,0.0,0.0,0.0,0.0,0.0,0.0,0.0,0.0,0.0,0.0,0.0,0.0,0.0,0.0,0.0,0.0,0.0,0.0,0.0,0.0,0.0,0.0,0.0,0.0,0.0,0.0,0.0,0.0,0.0,0.0,0.0,0.0,0.0,0.0,0.0,0.0,0.0,0.0,0.0,0.0,0.0,0.0,0.0,0.0,0.0,0.0,0.0,0.0,0.0,0.0,0.0,0.0,0.0,0.0,0.0,0.0,0.0,0.0,0.0,0.0,0.0,0.0,0.0,0.0,0.0,0.0,0.0,0.0,0.0,0.0,0.0,0.0,0.0,0.0,0.0,0.0,0.0,0.0,0.0,0.0,0.0,0.0,0.0,0.0,0.0,0.0,0.0,0.0,0.0,0.0,0.0,0.0,0.0,0.0,0.0,0.0,0.0,0.0,0.0,0.0,0.0,0.0,0.0,0.0,0.0,0.0,0.0,0.0,0.0,0.0,0.0,0.0,0.0,0.0,0.0,0.0,0.0,0.0,0.0,0.0,0.0,0.0,0.0,0.0,0.0,0.0,0.0,0.0,0.0,0.0,0.0,0.0,0.0,0.0,0.0,0.0,0.0,0.0,0.0,0.0,0.0,0.0,0.0,0.0,0.0,0.0,0.0,0.0,0.0,0.0,0.0,0.0,0.0,0.0,0.0,0.0,0.0,0.0,0.0,0.0,0.0,0.0,0.0,0.0,0.0,0.0,0.0,0.0,0.0,0.0,0.0,0.0,0.0,0.0,0.0,0.0,0.0,0.0,0.0,0.0,0.0,0.0,0.0,0.0,0.0,0.0,0.0,0.0,0.0,0.0,0.0,0.0,0.0,0.0,0.0,0.0,0.0,0.0,0.0,0.0,0.0,0.0,0.0,0.0,0.0,0.0,0.0,0.0,0.0,0.0,0.0,0.0,0.0,0.0,0.0,0.0,0.0,0.0,0.0,0.0,0.0,0.0,0.0,0.0,0.0,0.0,0.0,0.0,0.0,0.0,0.0,0.0,0.0,0.0,0.0,0.0,0.0,0.0,0.0,0.0,0.0,0.0,0.0,0.0,0.0,0.0,0.0,0.0,0.0,0.0,0.0,0.0,0.0,0.0,0.0,0.0,0.0,0.0,0.0,0.0,0.0,0.0,0.0,0.0,0.0,0.0,0.0,0.0,0.0,0.0,0.0,0.0,0.0,0.0,-1.7902,0.0,0.0,0.0,0.0,0.0,0.0,0.0,0.0,0.0,0.0,0.0,0.0,0.0,0.0,0.0,0.0,0.0,0.0,0.0,0.0,0.0,0.0,0.0,0.0,0.0,0.0,0.0,0.0,0.0,0.0,0.0,0.0,0.0,0.0,0.0,0.0,0.0,0.0,0.0,0.0,0.0,0.0,0.0,0.0,0.0,0.0,0.0,0.0,0.0,0.0,0.0,0.0,0.0,0.0,0.0,0.0,0.0,0.0,0.0,0.0,0.0,0.0,0.0,0.0,0.0,0.0,0.0,0.0,0.0,0.0,0.0,0.0,0.0,0.0,0.0,0.0,0.0,0.0,0.0,0.0,0.0,0.0,0.0,0.0,0.0,0.0,0.0,0.0,0.0,0.0,0.0,0.0,0.0,0.0,0.0,0.0,0.0,0.0,0.0,0.0,0.0,0.0,0.0,0.0,0.0,0.0,0.0,0.0,0.0,0.0,-1.7902,-1.7902,-1.7902,-1.7902,-1.7902,0.0,0.0,0.0,0.0,0.0,0.0,0.0,0.0,0.0,0.0,0.0,0.0,0.0,0.0,0.0,0.0,0.0,0.0,0.0,0.0,0.0,0.0,0.0,0.0,0.0,0.0,0.0,0.0,0.0,0.0,0.0,0.0,0.0,0.0,0.0,0.0,0.0,0.0,0.0,0.0,0.0,0.0,0.0,0.0,0.0,0.0,0.0,0.0,0.0,0.0,0.0,0.0,0.0,0.0,0.0,0.0,0.0,0.0,0.0,0.0,0.0,0.0,0.0,0.0,0.0,0.0,0.0,0.0,0.0,0.0,0.0,0.0,0.0,0.0,0.0,0.0,0.0,0.0,0.0,0.0,0.0,0.0,0.0,0.0,0.0,0.0,0.0,0.0,0.0,0.0,0.0,0.0,0.0,0.0,0.0,0.0,0.0,0.0,0.0,0.0,0.0,0.0,0.0,0.0,0.0,0.0,0.0,0.0,0.0,0.0,0.0,0.0,-1.8174,-1.8038,-1.7916,0.0,0.0,0.0,0.0,0.0,0.0,0.0,0.0,0.0,0.0,0.0,0.0,0.0,0.0,0.0,0.0,0.0,0.0,0.0,0.0,0.0,0.0,0.0,0.0,0.0,0.0,0.0,0.0,0.0,0.0,0.0,0.0,0.0,0.0,0.0,0.0,0.0,0.0,0.0,0.0,0.0,0.0,0.0,0.0,0.0,0.0,0.0,0.0,0.0,0.0,0.0,0.0,0.0,0.0,0.0,0.0,0.0,0.0,0.0,0.0,0.0,0.0,0.0,0.0,0.0,0.0,0.0,0.0,0.0,0.0,0.0,0.0,0.0,0.0,0.0,0.0,0.0,0.0,0.0,0.0,0.0,0.0,0.0,0.0,0.0,0.0,0.0,0.0,0.0,0.0,0.0,0.0,0.0,0.0,0.0,0.0,0.0,0.0,0.0,0.0,0.0,0.0,0.0,0.0,0.0,0.0,0.0,0.0,0.0,0.0,-1.8975,-1.951,-1.9002,0.0,-1.7957,0.0,0.0,0.0,0.0,0.0,0.0,0.0,0.0,0.0,0.0,0.0,0.0,0.0,0.0,0.0,0.0,0.0,0.0,0.0,0.0,0.0,0.0,0.0,0.0,0.0,0.0,0.0,0.0,0.0,0.0,0.0,0.0,0.0,0.0,0.0,0.0,0.0,0.0,0.0,0.0,0.0,0.0,0.0,0.0,0.0,0.0,0.0,0.0,0.0,0.0,0.0,0.0,0.0,0.0,0.0,0.0,0.0,0.0,0.0,0.0,0.0,0.0,0.0,0.0,0.0,0.0,0.0,0.0,0.0,0.0,0.0,0.0,0.0,0.0,0.0,0.0,0.0,0.0,0.0,0.0,0.0,0.0,0.0,0.0,0.0,0.0,0.0,0.0,0.0,0.0,0.0,0.0,0.0,0.0,0.0,0.0,0.0,0.0,0.0,0.0,0.0,0.0,0.0,0.0,0.0,0.0,0.0,0.0,0.0,0.0,0.0,-1.9686,-1.9111,-1.8697,0.0,0.0,0.0,0.0,0.0,0.0,0.0,0.0,0.0,0.0,0.0,0.0,0.0,0.0,0.0,0.0,0.0,0.0,0.0,0.0,0.0,0.0,0.0,0.0,0.0,0.0,0.0,0.0,0.0,0.0,0.0,0.0,0.0,0.0,0.0,0.0,0.0,0.0,0.0,0.0,0.0,0.0,0.0,0.0,0.0,0.0,0.0,0.0,0.0,0.0,0.0,0.0,0.0,0.0,0.0,0.0,0.0,0.0,0.0,0.0,0.0,0.0,0.0,0.0,0.0,0.0,0.0,0.0,0.0,0.0,0.0,0.0,0.0,0.0,0.0,0.0,0.0,0.0,0.0,0.0,0.0,0.0,0.0,0.0,0.0,0.0,0.0,0.0,0.0,0.0,0.0,0.0,0.0,0.0,0.0,0.0,0.0,0.0,0.0,0.0,0.0,0.0,0.0,0.0,0.0,0.0,0.0,0.0,0.0,0.0,-1.9619,0.0,-1.9881,-1.9356,-1.8962,-1.8743,0.0,0.0,0.0,0.0,0.0,0.0,0.0,0.0,0.0,0.0,0.0,0.0,0.0,0.0,0.0,0.0,0.0,0.0,0.0,0.0,0.0,0.0,0.0,0.0,0.0,0.0,0.0,0.0,0.0,0.0,0.0,0.0,0.0,0.0,0.0,0.0,0.0,0.0,0.0,0.0,0.0,0.0,0.0,0.0,0.0,0.0,0.0,0.0,0.0,0.0,0.0,0.0,0.0,0.0,0.0,0.0,0.0,0.0,0.0,0.0,0.0,0.0,0.0,0.0,0.0,0.0,0.0,0.0,0.0,0.0,0.0,0.0,0.0,0.0,0.0,0.0,0.0,0.0,0.0,0.0,0.0,0.0,0.0,0.0,0.0,0.0,0.0,0.0,0.0,0.0,0.0,0.0,0.0,0.0,0.0,0.0,0.0,0.0,0.0,0.0,0.0,0.0,0.0,0.0,0.0,0.0,0.0,0.0,0.0,-2.0179,-2.0477,-2.0441,-1.9935,-1.9344,0.0,0.0,0.0,0.0,0.0,0.0,0.0,0.0,0.0,0.0,0.0,0.0,0.0,0.0,0.0,0.0,0.0,0.0,0.0,0.0,0.0,0.0,0.0,0.0,0.0,0.0,0.0,0.0,0.0,0.0,0.0,0.0,0.0,0.0,0.0,0.0,0.0,0.0,0.0,0.0,0.0,0.0,0.0,0.0,0.0,0.0,0.0,0.0,0.0,0.0,0.0,0.0,0.0,0.0,0.0,0.0,0.0,0.0,0.0,0.0,0.0,0.0,0.0,0.0,0.0,0.0,0.0,0.0,0.0,0.0,0.0,0.0,0.0,0.0,0.0,0.0,0.0,0.0,0.0,0.0,0.0,0.0,0.0,0.0,0.0,0.0,0.0,0.0,0.0,0.0,0.0,0.0,0.0,0.0,0.0,0.0,0.0,0.0,0.0,0.0,0.0,0.0,0.0,0.0,0.0,0.0,0.0,0.0,0.0,-2.0023,-2.0552,-2.0823,0.0,-2.0285,-1.9708,0.0,0.0,0.0,0.0,0.0,0.0,0.0,0.0,0.0,0.0,0.0,0.0,0.0,0.0,0.0,0.0,0.0,0.0,0.0,0.0,0.0,0.0,0.0,0.0,0.0,0.0,0.0,0.0,0.0,0.0,0.0,0.0,0.0,0.0,0.0,0.0,0.0,0.0,0.0,0.0,0.0,0.0,0.0,0.0,0.0,0.0,0.0,0.0,0.0,0.0,0.0,0.0,0.0,0.0,0.0,0.0,0.0,0.0,0.0,0.0,0.0,0.0,0.0,0.0,0.0,0.0,0.0,0.0,0.0,0.0,0.0,0.0,0.0,0.0,0.0,0.0,0.0,0.0,0.0,0.0,0.0,0.0,0.0,0.0,0.0,0.0,0.0,0.0,0.0,0.0,0.0,0.0,0.0,0.0,0.0,0.0,0.0,0.0,0.0,0.0,0.0,0.0,0.0,0.0,0.0,0.0,0.0,0.0,0.0,-2.0737,0.0,-2.15,0.0,-2.0753,-2.0063,0.0,0.0,0.0,0.0,0.0,0.0,0.0,0.0,0.0,0.0,0.0,0.0,0.0,0.0,0.0,0.0,0.0,0.0,0.0,0.0,0.0,0.0,0.0,0.0,0.0,0.0,0.0,0.0,0.0,0.0,0.0,0.0,0.0,0.0,0.0,0.0,0.0,0.0,0.0,0.0,0.0,0.0,0.0,0.0,0.0,0.0,0.0,0.0,0.0,0.0,0.0,0.0,0.0,0.0,0.0,0.0,0.0,0.0,0.0,0.0,0.0,0.0,0.0,0.0,0.0,0.0,0.0,0.0,0.0,0.0,0.0,0.0,0.0,0.0,0.0,0.0,0.0,0.0,0.0,0.0,0.0,0.0,0.0,0.0,0.0,0.0,0.0,0.0,0.0,0.0,0.0,0.0,0.0,0.0,0.0,0.0,0.0,0.0,0.0,0.0,0.0,0.0,0.0,0.0,0.0,0.0,0.0,0.0,-2.022,-2.1859,-2.2458,-2.2458,-2.1938,-2.1316,-2.0428,0.0,0.0,0.0,0.0,0.0,0.0,0.0,0.0,0.0,0.0,0.0,0.0,0.0,0.0,0.0,0.0,0.0,0.0,0.0,0.0,0.0,0.0,0.0,0.0,0.0,0.0,0.0,0.0,0.0,0.0,0.0,0.0,0.0,0.0,0.0,0.0,0.0,0.0,0.0,0.0,0.0,0.0,0.0,0.0,0.0,0.0,0.0,0.0,0.0,0.0,0.0,0.0,0.0,0.0,0.0,0.0,0.0,0.0,0.0,0.0,0.0,0.0,0.0,0.0,0.0,0.0,0.0,0.0,0.0,0.0,0.0,0.0,0.0,0.0,0.0,0.0,0.0,0.0,0.0,0.0,0.0,0.0,0.0,0.0,0.0,0.0,0.0,0.0,0.0,0.0,0.0,0.0,0.0,0.0,0.0,0.0,0.0,0.0,0.0,0.0,0.0,0.0,0.0,0.0,0.0,0.0,0.0,0.0,0.0,-2.2758,-2.2614,-2.2601,-2.2745,-2.1852,-2.0985,0.0,0.0,0.0,0.0,0.0,0.0,0.0,0.0,0.0,0.0,0.0,0.0,0.0,0.0,0.0,0.0,0.0,0.0,0.0,0.0,0.0,0.0,0.0,0.0,0.0,0.0,0.0,0.0,0.0,0.0,0.0,0.0,0.0,0.0,0.0,0.0,0.0,0.0,0.0,0.0,0.0,0.0,0.0,0.0,0.0,0.0,0.0,0.0,0.0,0.0,0.0,0.0,0.0,0.0,0.0,0.0,0.0,0.0,0.0,0.0,0.0,0.0,0.0,0.0,0.0,0.0,0.0,0.0,0.0,0.0,0.0,0.0,0.0,0.0,0.0,0.0,0.0,0.0,0.0,0.0,0.0,0.0,0.0,0.0,0.0,0.0,0.0,0.0,0.0,0.0,0.0,0.0,0.0,0.0,0.0,0.0,0.0,0.0,0.0,0.0,0.0,0.0,0.0,0.0,0.0,0.0,0.0,0.0,0.0,-2.4452,-2.3942,-2.372,-2.3864,-2.2975,-2.2008,-2.1027,0.0,0.0,0.0,0.0,0.0,0.0,0.0,0.0,0.0,0.0,0.0,0.0,0.0,0.0,0.0,0.0,0.0,0.0,0.0,0.0,0.0,0.0,0.0,0.0,0.0,0.0,0.0,0.0,0.0,0.0,0.0,0.0,0.0,0.0,0.0,0.0,0.0,0.0,0.0,0.0,0.0,0.0,0.0,0.0,0.0,0.0,0.0,0.0,0.0,0.0,0.0,0.0,0.0,0.0,0.0,0.0,0.0,0.0,0.0,0.0,0.0,0.0,0.0,0.0,0.0,0.0,0.0,0.0,0.0,0.0,0.0,0.0,0.0,0.0,0.0,0.0,0.0,0.0,0.0,0.0,0.0,0.0,0.0,0.0,0.0,0.0,0.0,0.0,0.0,0.0,0.0,0.0,0.0,0.0,0.0,0.0,0.0,0.0,0.0,0.0,0.0,0.0,0.0,0.0,0.0,0.0,0.0,0.0,-2.668,-2.6177,-2.5602,-2.5044,-2.4413,-2.3287,0.0,0.0,0.0,0.0,0.0,0.0,0.0,0.0,0.0,0.0,0.0,0.0,0.0,0.0,0.0,0.0,0.0,0.0,0.0,0.0,0.0,0.0,0.0,0.0,0.0,0.0,0.0,0.0,0.0,0.0,0.0,0.0,0.0,0.0,0.0,0.0,0.0,0.0,0.0,0.0,0.0,0.0,0.0,0.0,0.0,0.0,0.0,0.0,0.0,0.0,0.0,0.0,0.0,0.0,0.0,0.0,0.0,0.0,0.0,0.0,0.0,0.0,0.0,0.0,0.0,0.0,0.0,0.0,0.0,0.0,0.0,0.0,0.0,0.0,0.0,0.0,0.0,0.0,0.0,0.0,0.0,0.0,0.0,0.0,0.0,0.0,0.0,0.0,0.0,0.0,0.0,0.0,0.0,0.0,0.0,0.0,0.0,0.0,0.0,0.0,0.0,0.0,0.0,0.0,0.0,0.0,0.0,0.0,0.0,-2.6654,-2.6935,-2.6576,-2.5628,-2.4605,-2.3441,0.0,0.0,0.0,0.0,0.0,0.0,0.0,0.0,0.0,0.0,0.0,0.0,0.0,0.0,0.0,0.0,0.0,0.0,0.0,0.0,0.0,0.0,0.0,0.0,0.0,0.0,0.0,0.0,0.0,0.0,0.0,0.0,0.0,0.0,0.0,0.0,0.0,0.0,0.0,0.0,0.0,0.0,0.0,0.0,0.0,0.0,0.0,0.0,0.0,0.0,0.0,0.0,0.0,0.0,0.0,0.0,0.0,0.0,0.0,0.0,0.0,0.0,0.0,0.0,0.0,0.0,0.0,0.0,0.0,0.0,0.0,0.0,0.0,0.0,0.0,0.0,0.0,0.0,0.0,0.0,0.0,0.0,0.0,0.0,0.0,0.0,0.0,0.0,0.0,0.0,0.0,0.0,0.0,0.0,0.0,0.0,0.0,0.0,0.0,0.0,0.0,0.0,0.0,0.0,0.0,0.0,0.0,0.0,-2.589,-2.7,-2.7353,-2.7059,-2.619,-2.5537,-2.4471,0.0,0.0,0.0,0.0,0.0,0.0,0.0,0.0,0.0,0.0,0.0,0.0,0.0,0.0,0.0,0.0,0.0,0.0,0.0,0.0,0.0,0.0,0.0,0.0,0.0,0.0,0.0,0.0,0.0,0.0,0.0,0.0,0.0,0.0,0.0,0.0,0.0,0.0,0.0,0.0,0.0,0.0,0.0,0.0,0.0,0.0,0.0,0.0,0.0,0.0,0.0,0.0,0.0,0.0,0.0,0.0,0.0,0.0,0.0,0.0,0.0,0.0,0.0,0.0,0.0,0.0,0.0,0.0,0.0,0.0,0.0,0.0,0.0,0.0,0.0,0.0,0.0,0.0,0.0,0.0,0.0,0.0,0.0,0.0,0.0,0.0,0.0,0.0,0.0,0.0,0.0,0.0,0.0,0.0,0.0,0.0,0.0,0.0,0.0,0.0,0.0,0.0,0.0,0.0,0.0,0.0,0.0,0.0,-2.6406,-2.7464,-2.7503,-2.7255,-2.6824,-2.6732,-2.5819,0.0,0.0,0.0,0.0,0.0,0.0,0.0,0.0,0.0,0.0,0.0,0.0,0.0,0.0,0.0,0.0,0.0,0.0,0.0,0.0,0.0,0.0,0.0,0.0,0.0,0.0,0.0,0.0,0.0,0.0,0.0,0.0,0.0,0.0,0.0,0.0,0.0,0.0,0.0,0.0,0.0,0.0,0.0,0.0,0.0,0.0,0.0,0.0,0.0,0.0,0.0,0.0,0.0,0.0,0.0,0.0,0.0,0.0,0.0,0.0,0.0,0.0,0.0,0.0,0.0,0.0,0.0,0.0,0.0,0.0,0.0,0.0,0.0,0.0,0.0,0.0,0.0,0.0,0.0,0.0,0.0,0.0,0.0,0.0,0.0,0.0,0.0,0.0,0.0,0.0,0.0,0.0,0.0,0.0,0.0,0.0,0.0,0.0,0.0,0.0,0.0,0.0,0.0,0.0,0.0,0.0,0.0,0.0,-2.6668,-2.7477,-2.7503,-2.7438,-2.732,-2.6909,-2.5756,0.0,0.0,0.0,0.0,0.0,0.0,0.0,0.0,0.0,0.0,0.0,0.0,0.0,0.0,0.0,0.0,0.0,0.0,0.0,0.0,0.0,0.0,0.0,0.0,0.0,0.0,0.0,0.0,0.0,0.0,0.0,0.0,0.0,0.0,0.0,0.0,0.0,0.0,0.0,0.0,0.0,0.0,0.0,0.0,0.0,0.0,0.0,0.0,-1.5495,0.0,0.0,0.0,0.0,0.0,0.0,0.0,0.0,0.0,0.0,0.0,0.0,0.0,0.0,0.0,0.0,0.0,0.0,0.0,0.0,0.0,0.0,0.0,0.0,0.0,0.0,0.0,0.0,0.0,0.0,0.0,0.0,0.0,0.0,0.0,0.0,0.0,0.0,0.0,0.0,0.0,0.0,0.0,0.0,0.0,0.0,0.0,0.0,0.0,0.0,0.0,0.0,0.0,0.0,0.0,0.0,0.0,0.0,0.0,-2.6765,-2.7477,-2.7503,-2.7503,-2.749,-2.717,-2.6077,0.0,0.0,0.0,0.0,0.0,0.0,0.0,0.0,0.0,0.0,0.0,0.0,0.0,0.0,0.0,0.0,0.0,0.0,0.0,0.0,0.0,0.0,0.0,0.0,0.0,0.0,0.0,0.0,0.0,0.0,0.0,0.0,0.0,0.0,0.0,0.0,0.0,0.0,0.0,0.0,0.0,0.0,0.0,0.0,0.0,0.0,0.0,0.0,0.0,0.0,0.0,0.0,0.0,0.0,0.0,0.0,0.0,0.0,0.0,0.0,0.0,0.0,0.0,0.0,0.0,0.0,0.0,0.0,0.0,0.0,0.0,0.0,0.0,0.0,0.0,0.0,0.0,0.0,0.0,0.0,0.0,0.0,0.0,0.0,0.0,0.0,0.0,0.0,0.0,0.0,0.0,0.0,0.0,0.0,0.0,0.0,0.0,0.0,0.0,0.0,0.0,0.0,0.0,0.0,0.0,0.0,0.0,-2.5807,-2.6822,-2.7464,-2.7503,-2.7503,-2.7503,-2.7258,-2.6362,-2.4672,0.0,0.0,0.0,0.0,0.0,0.0,0.0,0.0,0.0,0.0,0.0,0.0,0.0,0.0,0.0,0.0,0.0,0.0,0.0,0.0,0.0,0.0,0.0,0.0,0.0,0.0,0.0,0.0,0.0,0.0,0.0,0.0,0.0,0.0,0.0,0.0,0.0,0.0,-1.5203,-1.5749,0.0,0.0,0.0,0.0,0.0,0.0,0.0,0.0,-1.6247,0.0,0.0,0.0,0.0,0.0,0.0,0.0,0.0,0.0,0.0,0.0,0.0,0.0,0.0,0.0,0.0,0.0,0.0,0.0,0.0,0.0,0.0,0.0,0.0,0.0,0.0,0.0,0.0,0.0,0.0,0.0,0.0,0.0,0.0,0.0,0.0,0.0,0.0,0.0,0.0,0.0,0.0,0.0,0.0,0.0,0.0,0.0,0.0,0.0,0.0,0.0,0.0,0.0,0.0,0.0,0.0,-2.4492,-2.6083,-2.709,-2.749,-2.7503,-2.7503,-2.7477,-2.6749,-2.6013,-2.5179,0.0,0.0,0.0,0.0,0.0,0.0,0.0,0.0,0.0,0.0,0.0,0.0,0.0,0.0,0.0,0.0,0.0,0.0,0.0,0.0,0.0,0.0,0.0,0.0,0.0,0.0,0.0,0.0,0.0,0.0,0.0,0.0,0.0,0.0,0.0,0.0,0.0,0.0,0.0,-1.6721,-1.7191,0.0,0.0,0.0,0.0,0.0,0.0,0.0,0.0,-1.7923,0.0,0.0,0.0,0.0,0.0,0.0,0.0,0.0,0.0,0.0,0.0,0.0,0.0,0.0,0.0,0.0,0.0,0.0,0.0,0.0,0.0,0.0,0.0,0.0,0.0,0.0,0.0,0.0,0.0,0.0,0.0,0.0,0.0,0.0,0.0,0.0,0.0,0.0,0.0,0.0,0.0,0.0,0.0,0.0,0.0,0.0,0.0,0.0,0.0,0.0,0.0,0.0,0.0,0.0,0.0,-2.4922,-2.6294,-2.718,-2.7503,-2.7503,-2.7503,-2.749,-2.6909,-2.6191,0.0,0.0,0.0,0.0,0.0,0.0,0.0,0.0,0.0,0.0,0.0,0.0,0.0,0.0,0.0,0.0,0.0,0.0,0.0,0.0,0.0,0.0,0.0,0.0,0.0,0.0,0.0,0.0,0.0,0.0,0.0,0.0,0.0,0.0,0.0,0.0,0.0,0.0,0.0,0.0,-1.7344,-1.7824,-1.8294,0.0,0.0,0.0,0.0,0.0,0.0,-1.8851,-1.8622,0.0,0.0,0.0,0.0,0.0,0.0,0.0,0.0,0.0,0.0,0.0,0.0,0.0,0.0,0.0,0.0,0.0,0.0,0.0,0.0,0.0,0.0,0.0,0.0,0.0,0.0,0.0,0.0,0.0,0.0,0.0,0.0,0.0,0.0,0.0,0.0,0.0,0.0,0.0,0.0,0.0,0.0,0.0,0.0,0.0,0.0,0.0,0.0,0.0,0.0,0.0,0.0,0.0,0.0,0.0,-2.5294,-2.6435,-2.7146,-2.7469,-2.7503,-2.7503,-2.7503,-2.718,-2.6422,0.0,0.0,0.0,0.0,0.0,0.0,0.0,0.0,0.0,0.0,0.0,0.0,0.0,0.0,0.0,0.0,0.0,0.0,0.0,0.0,0.0,0.0,0.0,0.0,0.0,0.0,0.0,0.0,0.0,0.0,0.0,0.0,0.0,0.0,0.0,0.0,0.0,0.0,0.0,0.0,0.0,-1.8611,-1.9069,-1.9253,0.0,0.0,0.0,0.0,-1.979,-1.9528,0.0,0.0,0.0,0.0,0.0,0.0,0.0,0.0,0.0,0.0,0.0,0.0,0.0,0.0,0.0,0.0,0.0,0.0,0.0,0.0,0.0,0.0,0.0,0.0,0.0,0.0,0.0,0.0,0.0,0.0,0.0,0.0,0.0,0.0,0.0,0.0,0.0,0.0,0.0,0.0,0.0,0.0,0.0,0.0,0.0,0.0,0.0,0.0,0.0,0.0,0.0,0.0,0.0,0.0,0.0,0.0,-2.5294,-2.6401,-2.7146,-2.7456,-2.7503,-2.7503,-2.7503,-2.718,-2.6229,0.0,0.0,0.0,0.0,0.0,0.0,0.0,0.0,0.0,0.0,0.0,0.0,0.0,0.0,0.0,0.0,0.0,0.0,0.0,0.0,0.0,0.0,0.0,0.0,0.0,0.0,0.0,0.0,0.0,0.0,0.0,0.0,0.0,0.0,0.0,0.0,0.0,0.0,0.0,0.0,0.0,-2.0042,-2.0577,-2.1015,-2.1254,0.0,0.0,0.0,-2.133,-2.1286,0.0,0.0,0.0,0.0,0.0,0.0,0.0,0.0,0.0,0.0,0.0,0.0,0.0,0.0,0.0,0.0,0.0,0.0,0.0,0.0,0.0,0.0,0.0,0.0,0.0,0.0,0.0,0.0,0.0,0.0,0.0,0.0,0.0,0.0,0.0,0.0,0.0,0.0,0.0,0.0,0.0,0.0,0.0,0.0,0.0,0.0,0.0,0.0,0.0,0.0,0.0,0.0,0.0,0.0,0.0,-2.3831,-2.525,-2.6401,-2.718,-2.7503,-2.7503,-2.7503,-2.7503,-2.7167,-2.6217,0.0,0.0,0.0,0.0,0.0,0.0,0.0,0.0,0.0,0.0,0.0,0.0,0.0,0.0,0.0,0.0,0.0,0.0,0.0,0.0,0.0,0.0,0.0,0.0,0.0,0.0,0.0,0.0,0.0,0.0,0.0,0.0,0.0,0.0,0.0,0.0,0.0,0.0,0.0,0.0,0.0,0.0,-2.12,-2.1496,0.0,0.0,0.0,-2.1778,-2.2313,0.0,0.0,0.0,0.0,0.0,0.0,0.0,0.0,0.0,0.0,0.0,0.0,0.0,0.0,0.0,0.0,0.0,0.0,0.0,0.0,0.0,0.0,0.0,0.0,0.0,0.0,0.0,0.0,0.0,0.0,0.0,0.0,0.0,0.0,0.0,0.0,0.0,0.0,0.0,0.0,0.0,0.0,0.0,0.0,0.0,0.0,0.0,0.0,0.0,0.0,0.0,0.0,0.0,0.0,0.0,0.0,0.0,-2.5281,-2.6435,-2.7146,-2.749,-2.7503,-2.7503,-2.749,-2.7038,0.0,0.0,0.0,0.0,0.0,0.0,0.0,0.0,0.0,0.0,0.0,0.0,0.0,0.0,0.0,0.0,0.0,0.0,0.0,0.0,0.0,0.0,0.0,0.0,0.0,0.0,0.0,-1.1031,0.0,0.0,0.0,0.0,0.0,0.0,0.0,0.0,0.0,0.0,0.0,0.0,0.0,0.0,-2.1012,-2.1985,-2.2127,-2.2291,0.0,0.0,-2.2564,-2.3263,-2.2673,-2.2215,0.0,0.0,0.0,0.0,0.0,0.0,0.0,0.0,0.0,0.0,0.0,0.0,0.0,0.0,0.0,0.0,0.0,0.0,0.0,0.0,0.0,0.0,0.0,0.0,0.0,0.0,0.0,0.0,0.0,0.0,0.0,0.0,0.0,0.0,0.0,0.0,0.0,0.0,0.0,0.0,0.0,0.0,0.0,0.0,0.0,0.0,0.0,0.0,0.0,0.0,0.0,0.0,0.0,0.0,0.0,-2.5281,-2.6435,-2.7146,-2.7503,-2.7503,-2.7503,-2.7477,-2.6698,-2.5724,0.0,0.0,0.0,0.0,0.0,0.0,0.0,0.0,0.0,0.0,0.0,0.0,0.0,0.0,0.0,0.0,0.0,0.0,0.0,0.0,0.0,0.0,0.0,0.0,0.0,0.0,0.0,0.0,0.0,0.0,0.0,0.0,0.0,0.0,0.0,0.0,0.0,0.0,0.0,0.0,0.0,-2.2473,-2.3422,-2.3553,-2.3727,0.0,0.0,-2.4323,-2.4377,-2.394,-2.34,-2.3023,0.0,0.0,0.0,0.0,0.0,0.0,0.0,0.0,0.0,0.0,0.0,0.0,0.0,0.0,0.0,0.0,0.0,0.0,0.0,0.0,0.0,0.0,0.0,0.0,0.0,0.0,0.0,0.0,0.0,0.0,0.0,0.0,0.0,0.0,0.0,0.0,0.0,0.0,0.0,0.0,0.0,0.0,0.0,0.0,0.0,0.0,0.0,0.0,0.0,0.0,0.0,0.0,0.0,-2.4362,-2.5832,-2.6627,-2.7348,-2.7986,-2.7706,-2.7693,-2.8046,-2.7188,-2.5986,0.0,0.0,0.0,0.0,0.0,0.0,0.0,0.0,0.0,0.0,0.0,0.0,0.0,0.0,0.0,0.0,0.0,0.0,0.0,0.0,0.0,0.0,0.0,0.0,0.0,0.0,0.0,0.0,-1.292,-1.3707,-1.4482,0.0,0.0,0.0,0.0,0.0,0.0,0.0,0.0,0.0,0.0,-2.2979,-2.3607,-2.3995,0.0,0.0,-2.4661,-2.4585,-2.4909,-2.4508,-2.4137,-2.394,-2.3263,0.0,0.0,0.0,0.0,0.0,0.0,0.0,0.0,0.0,0.0,0.0,0.0,0.0,0.0,0.0,0.0,0.0,0.0,0.0,0.0,0.0,0.0,0.0,0.0,0.0,0.0,0.0,0.0,0.0,0.0,0.0,0.0,0.0,0.0,0.0,0.0,0.0,0.0,0.0,0.0,0.0,0.0,0.0,0.0,0.0,0.0,0.0,0.0,0.0,0.0,0.0,0.0,-2.4773,-2.6165,-2.6942,-2.7653,-2.8373,-2.7981,-2.7968,-2.8347,-2.7364,-2.618,0.0,0.0,0.0,0.0,0.0,0.0,0.0,0.0,0.0,0.0,0.0,0.0,0.0,0.0,0.0,0.0,0.0,0.0,0.0,0.0,0.0,0.0,0.0,0.0,0.0,0.0,0.0,0.0,-1.3532,-1.4439,-1.5236,0.0,0.0,0.0,0.0,0.0,0.0,0.0,0.0,0.0,0.0,-2.3449,-2.4071,-2.4465,-2.4858,-2.5317,-2.512,-2.5033,-2.539,-2.504,-2.4694,-2.4694,0.0,0.0,0.0,0.0,0.0,0.0,0.0,0.0,0.0,0.0,0.0,0.0,0.0,0.0,0.0,0.0,0.0,0.0,0.0,0.0,0.0,0.0,0.0,0.0,0.0,0.0,0.0,0.0,0.0,0.0,-1.9669,0.0,0.0,0.0,0.0,0.0,0.0,0.0,0.0,0.0,0.0,0.0,0.0,0.0,0.0,0.0,0.0,0.0,0.0,0.0,0.0,0.0,0.0,0.0,-2.6191,-2.7425,-2.8166,-2.8412,-2.8373,-2.8373,-2.8407,-2.7109,-2.6078,-2.5256,0.0,0.0,0.0,0.0,0.0,0.0,0.0,0.0,0.0,0.0,0.0,0.0,0.0,0.0,0.0,0.0,0.0,0.0,0.0,0.0,0.0,0.0,0.0,0.0,0.0,0.0,-1.3619,-1.4504,-1.5244,0.0,0.0,0.0,0.0,0.0,0.0,0.0,0.0,0.0,0.0,-2.3346,-2.4061,-2.5029,-2.5193,-2.5338,-2.5808,-2.5852,-2.5863,-2.5863,-2.5469,-2.5193,0.0,0.0,0.0,0.0,0.0,0.0,0.0,0.0,0.0,0.0,0.0,0.0,0.0,0.0,0.0,0.0,0.0,0.0,0.0,0.0,0.0,0.0,0.0,0.0,0.0,0.0,0.0,-2.2949,-2.2871,0.0,0.0,0.0,0.0,0.0,0.0,0.0,0.0,0.0,0.0,0.0,-2.517,-2.5397,0.0,0.0,0.0,0.0,0.0,0.0,0.0,0.0,0.0,0.0,0.0,0.0,-2.6008,-2.7276,-2.7812,-2.8555,-2.9474,-2.917,-2.9009,-2.8961,-2.8057,-2.6606,-2.4613,0.0,0.0,0.0,0.0,0.0,0.0,0.0,0.0,0.0,0.0,0.0,0.0,0.0,0.0,0.0,0.0,0.0,0.0,0.0,0.0,0.0,0.0,0.0,0.0,0.0,-1.3761,0.0,0.0,0.0,0.0,0.0,0.0,0.0,0.0,0.0,0.0,0.0,-2.2455,-2.2936,-2.3973,-2.4803,-2.5171,-2.5459,-2.5721,0.0,0.0,0.0,0.0,0.0,0.0,0.0,0.0,0.0,0.0,0.0,0.0,0.0,0.0,-2.2815,-2.2124,-2.204,-2.2004,-2.2004,0.0,0.0,0.0,0.0,0.0,0.0,0.0,0.0,0.0,0.0,0.0,0.0,0.0,0.0,-2.5271,0.0,-2.407,0.0,0.0,0.0,0.0,0.0,0.0,0.0,0.0,-2.7523,-2.7732,-2.7053,-2.7293,-2.72,0.0,-2.6639,-2.5672,0.0,0.0,0.0,0.0,0.0,0.0,0.0,0.0,-2.693,-2.8241,-2.8614,-2.9236,-3.0035,-2.9771,-2.9483,-2.9274,-2.8066,-2.6449,-2.4376,-2.253,-2.0976,0.0,0.0,0.0,0.0,0.0,0.0,0.0,0.0,0.0,0.0,0.0,0.0,0.0,0.0,0.0,0.0,0.0,0.0,0.0,0.0,0.0,0.0,0.0,-1.4821,0.0,0.0,0.0,0.0,0.0,0.0,0.0,0.0,0.0,-2.111,-2.2226,-2.3187,-2.3689,-2.4563,-2.527,-2.5404,0.0,0.0,0.0,0.0,0.0,0.0,0.0,-2.6496,-2.6824,-2.6605,-2.6387,-2.6398,-2.5884,-2.5469,-2.5469,0.0,0.0,-2.3755,-2.3514,-2.3525,-2.3514,-2.3514,-2.3525,-2.3514,-2.3514,-2.3525,0.0,0.0,0.0,0.0,0.0,0.0,0.0,0.0,-2.7529,-2.7516,0.0,-2.6341,0.0,0.0,0.0,0.0,0.0,0.0,0.0,0.0,-2.9026,-2.9349,-2.9271,-2.9248,-2.9203,-2.8986,-2.8948,-2.8295,-2.6981,-2.5231,0.0,0.0,0.0,0.0,0.0,0.0,-2.7713,-2.8999,-2.9702,-3.01,-3.014,-3.0127,-2.9876,-2.9261,-2.7338,-2.5724,-2.4569,-2.3566,-2.208,-1.9962,-1.912,0.0,0.0,0.0,0.0,0.0,0.0,0.0,0.0,0.0,0.0,0.0,0.0,0.0,0.0,0.0,0.0,0.0,0.0,0.0,0.0,-1.5277,0.0,0.0,0.0,0.0,0.0,0.0,0.0,0.0,0.0,0.0,-2.3088,-2.3121,-2.3624,-2.5029,0.0,0.0,0.0,0.0,-2.6606,-2.6606,-2.6977,-2.7304,-2.7304,-2.7304,-2.7304,-2.7337,0.0,0.0,-2.7326,-2.7304,-2.725,-2.7293,-2.7217,-2.6736,-2.4923,-2.4628,-2.4618,-2.4618,-2.4639,-2.4596,-2.4585,-2.4672,-2.465,-3.0647,0.0,0.0,0.0,0.0,-2.8778,-2.8778,-2.8778,-2.8778,-2.8791,-2.8726,-2.7981,0.0,0.0,0.0,0.0,0.0,0.0,-2.9261,-2.9078,-3.0032,-3.0072,-2.9349,-2.9693,-2.9631,-2.9203,-2.9203,-2.895,-2.8424,-2.7898,-2.6719,-2.4988,0.0,0.0,0.0,0.0,-2.8799,-2.9533,-2.9936,-3.0296,-3.0738,-3.0751,-3.0268,-2.9301,-2.7674,-2.6237,-2.5102,-2.3793,-2.2472,-2.1066,-1.9888,0.0,0.0,0.0,0.0,0.0,0.0,0.0,0.0,0.0,0.0,0.0,0.0,0.0,0.0,0.0,0.0,0.0,0.0,0.0,-1.5331,-1.6295,-1.7125,0.0,0.0,0.0,0.0,0.0,0.0,0.0,0.0,0.0,-2.4978,-2.5076,-2.5229,0.0,0.0,-2.6747,-2.6889,-2.7031,-2.7119,-2.7119,0.0,0.0,0.0,-2.7315,-2.7424,-2.7729,-2.7783,-2.7794,-2.7783,-2.7545,-2.7315,-2.7326,-2.7315,-2.7119,-2.666,-2.6507,-2.6485,-2.6507,-2.6496,-2.6507,-2.6507,-2.6507,-2.6485,-3.3313,-3.2123,-3.1406,-3.0947,-3.0634,-3.0647,-3.062,-3.0634,-3.0671,-3.0671,-3.0594,-3.0019,-2.9627,-2.9366,-2.8582,0.0,0.0,0.0,-3.0529,-3.0647,-3.1339,-3.13,-3.0673,-3.0986,-3.0843,-3.032,-3.0294,-2.9973,-2.9421,-2.9457,-2.8568,-2.6963,0.0,0.0,-2.8125,-2.8915,-2.9658,-3.024,-3.039,-3.0647,-3.0973,-3.0764,-3.0215,-2.9301,-2.8049,-2.6827,-2.5691,-2.4425,-2.3228,-2.2097,-2.0801,-1.934,0.0,0.0,0.0,0.0,0.0,0.0,0.0,0.0,0.0,0.0,0.0,-1.4526,0.0,0.0,0.0,0.0,-1.6142,-1.6372,-1.665,-1.7562,0.0,0.0,0.0,0.0,0.0,0.0,0.0,-2.4432,-2.4858,-2.5404,-2.6332,-2.6584,-2.6682,-2.6485,-2.6955,-2.7315,-2.7315,0.0,-2.7555,-2.761,-2.7763,-2.7883,-2.7883,-2.7883,-2.7992,-2.8276,-2.8331,-2.832,-2.8309,-2.8069,-2.7894,-2.7883,-2.7883,-2.7883,-2.7883,-2.7883,-2.773,-2.7403,-2.7315,-2.7315,-2.7315,-2.7315,-2.7315,-3.5809,-3.5221,-3.3639,-3.2881,-3.2764,-3.2764,-3.2725,-3.2685,-3.2672,-3.2672,-3.2659,-3.2098,-3.1614,-3.1065,-3.0056,0.0,-3.113,-3.113,-3.1679,-3.2672,-3.2672,-3.2672,-3.2672,-3.2672,-3.2424,-3.1876,-3.1863,-3.134,-3.0335,-3.0257,-2.9996,-2.9549,-2.9122,-2.9194,-2.9792,-2.9857,-3.0266,-3.0973,-3.1024,-3.1024,-3.1011,-3.0477,-2.9915,-2.9301,-2.845,-2.7439,-2.6229,-2.5317,-2.4242,-2.2958,-2.177,-2.0442,-1.8944,0.0,0.0,0.0,0.0,0.0,0.0,0.0,0.0,0.0,0.0,0.0,0.0,0.0,0.0,0.0,-1.789,0.0,-1.8185,-1.9037,0.0,0.0,0.0,-2.2138,-2.3121,-2.3596,-2.4403,-2.5852,0.0,0.0,-2.7261,0.0,-2.7893,-2.7545,-2.7457,-2.7435,-2.7424,-2.7816,-2.8111,-2.8132,-2.8571,-2.8913,-2.8924,-2.8924,-2.8924,-2.8957,-2.8924,-2.8946,-2.8946,-2.8935,-2.8913,-2.8913,-2.8913,-2.8924,-2.8913,-2.8924,-2.865,-2.7785,-2.7534,-2.7446,-2.749,-2.7512,-2.7523,-3.6031,-3.5874,-3.5469,-3.4554,-3.3391,-3.3378,-3.3117,-3.2698,-3.2672,-3.2672,-3.2672,-3.2555,-3.2411,-3.2267,-3.2006,-3.2032,-3.2293,-3.228,-3.2424,-3.2672,-3.2672,-3.2672,-3.2672,-3.2672,-3.2633,-3.2489,-3.2489,-3.2346,-3.2071,-3.1602,-3.1588,-3.1823,-3.0937,-3.0327,-3.0053,-3.0481,-3.0818,-3.1024,-3.1024,-3.1024,-3.1024,-3.0843,-3.0294,-2.9349,-2.8954,-2.7928,-2.6275,-2.5434,-2.4356,-2.2971,-2.1996,-2.0863,-1.9479,-1.846,0.0,0.0,0.0,0.0,0.0,0.0,0.0,0.0,0.0,-1.7197,-1.8097,0.0,-1.825,0.0,-1.9322,-1.9595,-1.9616,-2.0511,0.0,0.0,-2.2717,-2.3744,-2.5065,-2.5317,-2.5797,-2.6856,-2.726,-2.7565,-2.7794,-2.8287,-2.8691,-2.891,-2.8683,-2.8418,-2.8475,-2.8833,-2.9139,-2.9172,-2.9532,-2.986,-2.9827,-2.986,-2.9838,-2.9871,-2.986,-2.9871,-2.986,-2.9871,-2.9871,-2.9871,-2.986,-2.9871,-2.9838,-2.986,-2.9784,-2.9521,-2.8943,-2.8453,-2.8453,-2.8464,-2.8453,-3.6907,-3.6907,-3.6907,-3.6214,-3.5103,-3.4829,-3.4515,-3.4228,-3.4201,-3.4071,-3.3822,-3.3326,-3.3091,-3.3077,-3.2816,-3.2829,-3.3077,-3.3104,-3.3221,-3.3456,-3.3456,-3.3443,-3.3456,-3.3443,-3.3326,-3.3091,-3.3091,-3.296,-3.2685,-3.2372,-3.2385,-3.2659,-3.1797,-3.1171,-3.0871,-3.096,-3.1024,-3.1024,-3.1024,-3.1024,-3.1024,-3.1024,-3.0568,-2.9706,-2.9249,-2.8372,-2.7082,-2.5786,-2.4633,-2.3673,-2.2347,-2.1145,-2.0134,-1.9149,-1.838,0.0,0.0,0.0,0.0,0.0,0.0,0.0,0.0,0.0,0.0,0.0,-1.942,0.0,-2.0543,-2.1078,-2.1078,-2.1974,-2.275,-2.3241,-2.4126,-2.4981,-2.5819,-2.6278,-2.6813,-2.7555,-2.7827,-2.8165,-2.8626,-2.8921,-2.9307,-2.974,-2.9565,-2.9412,-2.9471,-2.9642,-2.9805,-2.9827,-3.0035,-3.022,-3.022,-3.022,-3.022,-3.022,-3.022,-3.022,-3.022,-3.022,-3.022,-3.022,-3.022,-3.022,-3.022,-3.022,-3.022,-3.0144,-2.9794,-2.9445,-2.9449,-2.9401,-2.9401,-3.8122,-3.8109,-3.8031,-3.7691,-3.7168,-3.658,-3.624,-3.6109,-3.6109,-3.5848,-3.5338,-3.4345,-3.3901,-3.3875,-3.33,-3.33,-3.3796,-3.3731,-3.3953,-3.4384,-3.4397,-3.4397,-3.4397,-3.4397,-3.4149,-3.3705,-3.3692,-3.343,-3.2921,-3.2842,-3.2842,-3.2868,-3.2228,-3.1915,-3.1889,-3.1392,-3.1052,-3.0986,-3.1024,-3.1024,-3.1024,-3.1024,-3.0712,-3.0113,-2.9418,-2.8727,-2.8075,-2.6248,-2.5069,-2.4716,-2.2898,-2.162,-2.1058,-2.0205,-1.9539,0.0,-1.9083,0.0,0.0,0.0,0.0,0.0,0.0,0.0,0.0,-2.0652,-2.0478,-2.0478,-2.1743,-2.256,-2.2597,-2.3449,-2.4181,-2.4639,-2.5524,-2.6092,-2.619,-2.6911,-2.7621,-2.8111,-2.8176,-2.8536,-2.9412,-2.9576,-2.9751,-3.0199,-3.0275,-3.0286,-3.0373,-3.0341,-3.0297,-3.0308,-3.0351,-3.0515,-3.0482,-3.045,-3.045,-3.0428,-3.0461,-3.0395,-3.045,-3.0439,-3.0428,-3.0428,-3.0461,-3.0439,-3.0395,-3.0417,-3.0417,-3.0461,-3.0428,-3.0341,-3.0188,-3.0122,-3.022,-3.9298,-3.9233,-3.8762,-3.8501,-3.8344,-3.7808,-3.7011,-3.6109,-3.6109,-3.6044,-3.594,-3.573,-3.5626,-3.5587,-3.5051,-3.4868,-3.4946,-3.4463,-3.4306,-3.4397,-3.4397,-3.4397,-3.4397,-3.4397,-3.4345,-3.4254,-3.4254,-3.4188,-3.4058,-3.3626,-3.3639,-3.4031,-3.3051,-3.2542,-3.2489,0.0,0.0,0.0,-3.1024,-3.1024,-3.1024,-3.1024,-3.0712,-3.0113,-2.9539,0.0,-2.8075,-2.6732,-2.5848,-2.5481,-2.4071,0.0,0.0,0.0,0.0,0.0,0.0,0.0,0.0,0.0,0.0,0.0,-2.216,-2.2073,-2.1527,-2.2062,-2.2419,-2.2488,-2.3449,-2.4082,-2.4093,-2.4934,-2.5524,-2.5655,-2.6474,-2.7195,-2.7588,-2.7762,-2.8187,-2.9095,-2.9205,-2.9423,-2.9958,-3.0078,-3.0253,-3.0679,-3.0766,-3.093,-3.128,-3.0996,-3.0777,-3.0777,-3.105,-3.1323,-3.1356,-3.1262,-3.1218,-3.1306,-3.1356,-3.1284,-3.1302,-3.1262,-3.1334,-3.1262,-3.1356,-3.1284,-3.1334,-3.1345,-3.124,-3.1295,-3.1345,-3.1127,-3.0384,-3.022,-3.022,-3.9625,0.0,-3.9272,-3.9155,0.0,-3.854,-3.7952,-3.7377,-3.7103,-3.6828,-3.6541,-3.624,-3.6109,-3.6083,-3.5822,-3.5691,-3.5678,-3.5378,-3.509,-3.4855,-3.4842,-3.4685,-3.4397,-3.4397,-3.4397,-3.4397,-3.4397,-3.4397,-3.4384,-3.4123,-3.4123,-3.4384,-3.3548,-3.313,-3.3104,-3.2228,-3.1548,-3.1024,-3.1024,-3.1024,-3.1024,-3.1024,-3.0843,-3.0555,0.0,0.0,0.0,0.0,0.0,0.0,0.0,0.0,0.0,0.0,0.0,-2.1823,-2.162,-2.1449,-2.1414,-2.1947,-2.24,-2.2652,-2.3318,-2.3536,-2.3056,-2.346,-2.3733,-2.3755,-2.441,-2.4964,-2.5185,-2.583,-2.6343,-2.6594,-2.7239,-2.7729,-2.7991,-2.8427,-2.8932,-2.939,-2.9696,-3.0024,-3.0493,-3.0559,-3.0745,-3.1171,-3.1247,-3.1334,-3.1542,-3.1422,-3.1258,-3.1258,-3.1433,-3.1567,-3.1567,-3.1567,-3.1567,-3.1567,-3.1567,-3.1567,-3.1567,-3.1567,-3.1567,-3.1567,-3.1567,-3.1567,-3.1567,-3.1567,-3.1567,-3.1567,-3.1567,-3.1447,-3.0985,-3.0908,-3.0908,-3.9913,-3.9899,-3.9795,-3.9756,-3.9716,-3.9115,-3.8815,-3.8684,0.0,0.0,0.0,-3.6645,-3.6423,-3.641,-3.6319,-3.6266,-3.6253,-3.6149,-3.5861,-3.5443,-3.5443,-3.5129,-3.4567,-3.4567,-3.4502,-3.4397,-3.4397,-3.4397,-3.4397,-3.4397,-3.4397,-3.4358,-3.394,-3.3692,-3.3522,-3.2398,-3.1575,-3.1156,-3.1039,-3.1024,-3.1024,-3.1024,-3.1024,-3.1024,-3.0401,-2.9793,-2.9155,-2.7855,-2.682,-2.6072,-2.4932,-2.4059,-2.3654,-2.3258,-2.2926,-2.2704,-2.2423,-2.2362,-2.2426,-2.2974,-2.3296,-2.3372,-2.4137,-2.4614,-2.4497,-2.4603,-2.465,-2.4738,-2.5153,-2.5622,-2.6103,-2.6594,-2.6988,-2.7358,-2.7827,-2.8189,-2.8285,-2.8975,-2.951,-2.9729,-3.01,-3.0504,-3.0952,-3.1018,-3.116,-3.1509,-3.1534,-3.1567,-3.1567,-3.1545,-3.1524,-3.1534,-3.1556,-3.1567,-3.1567,-3.1567,-3.1567,-3.1567,-3.1567,-3.1567,-3.1567,-3.1567,-3.1567,-3.1567,-3.1567,-3.1567,-3.1567,-3.1567,-3.1567,-3.1567,-3.1567,-3.1567,-3.1567,-3.1567,-3.1524,-4.1063,-4.1036,-4.0514,-4.0292,-4.0265,-3.9703,-3.9194,-3.8671,-3.8135,-3.7861,-3.7769,-3.7691,-3.7652,-3.7625,-3.7116,-3.6881,-3.6841,-3.6332,-3.6057,0.0,-3.5992,-3.5691,-3.5182,-3.5168,-3.4907,-3.4424,-3.4397,-3.4397,-3.4397,-3.4397,-3.4397,-3.4397,-3.4319,-3.4045,-3.3535,-3.2398,-3.1758,-3.1667,-3.1235,-3.1024,-3.1024,-3.1024,-3.1024,-3.096,-3.0438,-2.9988,-2.9688,-2.846,-2.7633,-2.73,-2.6111,-2.534,-2.5235,-2.4614,-2.4322,-2.4494,-2.4168,-2.4069,-2.4343,-2.432,-2.4454,-2.4865,-2.504,-2.4912,-2.4541,-2.4858,-2.5251,-2.5655,-2.6114,-2.6573,-2.7075,-2.7478,-2.7773,-2.7914,-2.8375,-2.8858,-2.9172,-2.9412,-2.9827,-3.0537,-3.0745,-3.0985,-3.1389,-3.1487,-3.1498,-3.1545,-3.1567,-3.1567,-3.1567,-3.1567,-3.1567,-3.1567,-3.1567,-3.1567,-3.1567,-3.1567,-3.1567,-3.1567,-3.1567,-3.1567,-3.1567,-3.1567,-3.1567,-3.1567,-3.1567,-3.1567,-3.1567,-3.1567,-3.1567,-3.1567,-3.1567,-3.1567,-3.1567,-3.1567,-3.1567,-4.1311,-4.1285,-4.1023,-4.0906,-4.0853,-4.0292,-3.9534,-3.871,-3.8462,-3.8161,-3.7913,-3.79,-3.79,-3.7887,-3.7612,-3.7495,-3.7482,-3.7207,-3.6907,-3.6606,-3.6593,-3.6136,-3.5351,-3.5299,-3.4972,-3.4424,-3.4397,-3.4397,-3.4397,-3.4397,-3.4397,-3.4397,-3.4397,-3.4123,-3.3561,-3.2738,-3.2111,-3.1797,-3.1274,-3.1024,-3.1024,-3.1024,-3.1024,-3.1024,-3.0725,-3.029,-2.967,-2.9072,-2.8482,-2.7889,-2.7182,-2.6686,-2.6469,-2.6068,-2.5695,-2.5492,-2.5222,-2.5018,-2.4943,-2.4904,-2.5065,-2.5524,-2.5568,-2.56,-2.5655,-2.5841,-2.6059,-2.6246,-2.6725,-2.7195,-2.7609,-2.786,-2.81,-2.8407,-2.8866,-2.9285,-2.9489,-2.998,-3.0417,-3.0832,-3.1138,-3.1378,-3.1597,-3.1567,-3.1567,-3.1567,-3.1567,-3.1567,-3.1567,-3.1567,-3.1567,-3.1567,-3.1567,-3.1567,-3.1567,-3.1567,-3.1567,-3.1567,-3.1567,-3.1567,-3.1567,-3.1567,-3.1567,-3.1567,-3.1567,-3.1567,-3.1567,-3.1567,-3.1567,-3.1567,-3.1567,-3.1567,-3.1567,-3.1567,-3.1567,-4.1311,-4.1311,-4.1311,-4.1311,-4.1259,-4.0671,-3.9834,-3.8932,-3.8776,-3.841,-3.7939,-3.79,-3.79,-3.79,-3.79,-3.79,-3.79,-3.79,-3.7652,-3.7233,-3.7207,-3.6671,-3.5744,-3.5561,-3.5168,-3.4633,-3.4476,-3.4397,-3.4397,-3.4397,-3.4397,-3.4397,-3.4397,-3.4188,-3.3783,-3.3195,-3.262,-3.2006,-3.147,-3.1117,-3.0986,-3.1024,-3.1024,-3.1024,-3.0986,-3.0615,-2.9828,-2.9599,-2.9146,-2.8384,-2.8013,-2.7668,-2.7347,-2.7074,-2.6721,-2.6332,-2.6047,-2.5716,-2.539,-2.5404,-2.5639,-2.6026,-2.607,-2.6278,-2.6725,-2.6846,-2.6911,-2.6944,-2.7238,-2.7631,-2.8056,-2.8211,-2.8353,-2.8781,-2.923,-2.9521,-2.9707,-3.0395,-3.0952,-3.1061,-3.14,-3.1556,-3.1567,-3.1567,-3.1567,-3.1567,-3.1567,-3.1567,-3.1567,-3.1567,-3.1567,-3.1567,-3.1567,-3.1567,-3.1567,-3.1567,-3.1567,-3.1567,-3.1567,-3.1567,-3.1567,-3.1567,-3.1567,-3.1567,-3.1567,-3.1567,-3.1567,-3.1567,-3.1567,-3.1567,-3.1567,-3.1567,-3.1567,-3.1567,-3.1567,-4.1311,-4.1311,-4.1311,-4.1311,-4.1246,-4.0634,-4.0082,-3.9494,-3.8958,-3.841,-3.7952,-3.79,-3.79,-3.79,-3.79,-3.79,-3.79,-3.79,-3.7861,-3.7808,-3.7821,-3.7469,-3.6763,-3.6266,-3.5744,-3.5182,-3.4659,-3.4397,-3.4397,-3.4397,-3.4397,-3.4397,-3.4397,-3.4371,-3.4241,-3.377,-3.3195,-3.262,-3.2058,-3.1471,-3.1026,-3.1024,-3.1024,-3.1024,-3.1024,-3.0898,-3.0531,-2.9879,-2.9386,-2.9061,-2.8299,-2.7804,-2.7693,-2.7248,-2.704,-2.7237,-2.6737,-2.6348,-2.6113,-2.611,-2.6248,-2.6507,-2.6562,-2.6758,-2.7217,-2.7598,-2.786,-2.786,-2.7903,-2.8189,-2.8661,-2.8716,-2.8738,-2.8858,-2.9285,-2.9642,-3.0111,-3.0592,-3.1061,-3.152,-3.1524,-3.1567,-3.1567,-3.1567,-3.1567,-3.1567,-3.1567,-3.1567,-3.1567,-3.1567,-3.1567,-3.1567,-3.1567,-3.1567,-3.1567,-3.1567,-3.1567,-3.1567,-3.1567,-3.1567,-3.1567,-3.1567,-3.1567,-3.1567,-3.1567,-3.1567,-3.1567,-3.1567,-3.1567,-3.1567,-3.1567,-3.1567,-3.1567,-3.1567,-3.1567,-4.1311,-4.1311,-4.1311,-4.1311,-4.1272,-4.105,-4.0618,-4.0043,-3.9481,-3.8919,-3.837,-3.8044,-3.79,-3.79,-3.79,-3.79,-3.79,-3.79,-3.79,-3.79,-3.79,-3.7586,-3.6985,-3.6384,-3.5822,-3.5286,-3.4685,-3.4397,-3.4397,-3.4397,-3.4397,-3.4397,-3.4397,-3.4397,-3.4358,-3.3862,-3.33,-3.2698,-3.2098,-3.1523,-3.1065,-3.1024,-3.1024,-3.1024,-3.1024,-3.0911,-3.0685,-3.0264,-2.9947,-2.9707,-2.9252,-2.8887,-2.8748,-2.8416,-2.8128,-2.8044,-2.7329,-2.6816,-2.6633,-2.6747,-2.6834,-2.6766,-2.7063,-2.7382,-2.7687,-2.7882,-2.81,-2.8407,-2.8462,-2.856,-2.8781,-2.8803,-2.8913,-2.923,-2.962,-3.0089,-3.057,-3.1029,-3.1422,-3.1545,-3.1567,-3.1567,-3.1567,-3.1567,-3.1567,-3.1567,-3.1567,-3.1567,-3.1567,-3.1567,-3.1567,-3.1567,-3.1567,-3.1567,-3.1567,-3.1567,-3.1567,-3.1567,-3.1567,-3.1567,-3.1567,-3.1567,-3.1567,-3.1567,-3.1567,-3.1567,-3.1567,-3.1567,-3.1567,-3.1567,-3.1567,-3.1567,-3.1567,-3.1567,-3.1567,-4.1311,-4.1311,-4.1311,-4.1311,-4.1311,-4.1311,-4.0971,-4.0383,-3.9847,-3.9285,-3.8684,-3.8135,-3.79,-3.79,-3.79,-3.79,-3.79,-3.79,-3.79,-3.79,-3.79,-3.7678,-3.7207,-3.6632,-3.6057,-3.5508,-3.4946,-3.4567,-3.4424,-3.4397,-3.4397,-3.4397,-3.4397,-3.4397,-3.4371,-3.3979,-3.3535,-3.296,-3.2332,-3.1745,-3.1287,-3.1078,-3.1024,-3.1024,-3.1024,-3.0949,-3.0773,-3.0596,-3.0381,-3.019,-2.996,-2.9779,-2.9521,-2.9314,-2.8973,-2.851,-2.7725,-2.7254,-2.7197,-2.731,-2.7424,-2.7466,-2.7789,-2.8088,-2.826,-2.8278,-2.8442,-2.8727,-2.8803,-2.8792,-2.8803,-2.8803,-2.9011,-2.9434,-2.9915,-3.0384,-3.0843,-3.1323,-3.1556,-3.1567,-3.1567,-3.1567,-3.1567,-3.1567,-3.1567,-3.1567,-3.1567,-3.1567,-3.1567,-3.1567,-3.1567,-3.1567,-3.1567,-3.1567,-3.1567,-3.1567,-3.1567,-3.1567,-3.1567,-3.1567,-3.1567,-3.1567,-3.1567,-3.1567,-3.1567,-3.1567,-3.1567,-3.1567,-3.1567,-3.1567,-3.1567,-3.1567,-3.1567,-3.1567,-3.1567,-4.1311,-4.1311,-4.1311,-4.1311,-4.1311,-4.1311,-4.0971,-4.037,-3.9847,-3.9272,-3.8684,-3.8148,-3.79,-3.79,-3.79,-3.79,-3.79,-3.79,-3.79,-3.79,-3.79,-3.7887,-3.7821,-3.7246,-3.6632,-3.5992,-3.543,-3.492,-3.4424,-3.4397,-3.4397,-3.4397,-3.4397,-3.4397,-3.4384,-3.4345,-3.4071,-3.3483,-3.2934,-3.2359,-3.1771,-3.1261,-3.1063,-3.0999,-3.1024,-3.0986,-3.0949,-3.0798,-3.0571,-3.0406,-3.019,-2.9972,-2.9792,-2.9509,-2.9106,-2.855,-2.7909,-2.7632,-2.7881,-2.7789,-2.7951,-2.8544,-2.869,-2.8857,-2.8962,-2.8971,-2.8912,-2.885,-2.885,-2.8803,-2.8803,-2.8803,-2.9033,-2.9489,-2.9925,-3.0395,-3.0876,-3.1356,-3.1534,-3.1567,-3.1567,-3.1567,-3.1567,-3.1567,-3.1567,-3.1567,-3.1567,-3.1567,-3.1567,-3.1567,-3.1567,-3.1567,-3.1567,-3.1567,-3.1567,-3.1567,-3.1567,-3.1567,-3.1567,-3.1567,-3.1567,-3.1567,-3.1567,-3.1567,-3.1567,-3.1567,-3.1567,-3.1567,-3.1567,-3.1567,-3.1567,-3.1567,-3.1567,-3.1567,-3.1567,-4.1311,-4.1311,-4.1311,-4.1311,-4.1311,-4.1311,-4.0971,-4.0383,-3.9834,-3.9272,-3.8684,-3.8135,-3.79,-3.79,-3.79,-3.79,-3.79,-3.79,-3.79,-3.79,-3.79,-3.79,-3.7835,-3.7286,-3.6684,-3.6096,-3.5561,-3.4986,-3.445,-3.4397,-3.4397,-3.4397,-3.4397,-3.4397,-3.4397,-3.4397,-3.4136,-3.3626,-3.3365,-3.2816,-3.1902,-3.1588,-3.1365,-3.105,-3.1024,-3.1024,-3.1024,-3.0811,-3.0609,-3.0406,-3.019,-2.9998,-2.9792,-2.9548,-2.9145,-2.8614,-2.8581,-2.861,-2.8526,-2.8777,-2.9056,-2.9225,-2.941,-2.9432,-2.9406,-2.9347,-2.9255,-2.9024,-2.8989,-2.8932,-2.885,-2.8803,-2.9132,-2.9805,-3.0122,-3.0537,-3.1171,-3.152,-3.1567,-3.1567,-3.1567,-3.1567,-3.1567,-3.1567,-3.1567,-3.1567,-3.1567,-3.1567,-3.1567,-3.1567,-3.1567,-3.1567,-3.1567,-3.1567,-3.1567,-3.1567,-3.1567,-3.1567,-3.1567,-3.1567,-3.1567,-3.1567,-3.1567,-3.1567,-3.1567,-3.1567,-3.1567,-3.1567,-3.1567,-3.1567,-3.1567,-3.1567,-3.1567,-3.1567,-3.1567,-4.1311,-4.1311,-4.1411,-4.1424,-4.1461,-4.1511,-4.1219,-4.0627,-4.0075,-3.9496,-3.8905,-3.8366,-3.8116,-3.8116,-3.8129,-3.8116,-3.8116,-3.8024,-3.8011,-3.8024,-3.807,-3.8116,-3.805,-3.7695,-3.7195,-3.6564,-3.5884,-3.5184,-3.4671,-3.4618,-3.4618,-3.4618,-3.4605,-3.4605,-3.4618,-3.4605,-3.4408,-3.4024,-3.3814,-3.3249,-3.245,-3.198,-3.1628,-3.13,-3.1091,-3.1024,-3.1024,-3.0887,-3.0698,-3.0495,-3.0305,-3.0075,-2.983,-2.9548,-2.9322,-2.9123,-2.925,-2.9419,-2.9457,-2.9797,-3.0012,-3.0001,-3.0032,-3.0,-2.976,-2.968,-2.9497,-2.9312,-2.922,-2.9117,-2.8976,-2.9039,-2.9431,-3.0116,-3.0341,-3.0745,-3.1498,-3.1567,-3.1567,-3.1567,-3.1567,-3.1567,-3.1567,-3.1567,-3.1567,-3.1567,-3.1567,-3.1567,-3.1567,-3.1567,-3.1567,-3.1567,-3.1567,-3.1567,-3.1567,-3.1567,-3.1567,-3.1567,-3.1567,-3.1567,-3.1567,-3.1567,-3.1567,-3.1567,-3.1567,-3.1567,-3.1567,-3.1567,-3.1567,-3.1567,-3.1567,-3.1567,-3.1567,-3.1567,-3.1567,-4.1311,-4.1361,-4.1597,-4.1696,-4.1759,-4.1944,-4.1732,-4.1058,-4.0478,-3.988,-3.917,-3.877,-3.8525,-3.857,-3.8512,-3.857,-3.8512,-3.8349,-3.8213,-3.8213,-3.8453,-3.857,-3.8512,-3.8459,-3.8033,-3.7439,-3.6471,-3.5658,-3.5071,-3.5031,-3.5031,-3.5086,-3.5031,-3.499,-3.5072,-3.5031,-3.4949,-3.4693,-3.4228,-3.3831,-3.3484,-3.2555,-3.1966,-3.1783,-3.1351,-3.1101,-3.1024,-3.0986,-3.0874,-3.0698,-3.0482,-3.0228,-2.9869,-2.9649,-2.9692,-3.0047,-2.9873,-3.0124,-3.0694,-3.0663,-3.0743,-3.0829,-3.0746,-3.0487,-3.0261,-3.0057,-2.9874,-2.9577,-2.9531,-2.9439,-2.9252,-2.9592,-2.9973,-3.0215,-3.0559,-3.104,-3.1465,-3.1567,-3.1567,-3.1567,-3.1567,-3.1567,-3.1567,-3.1567,-3.1567,-3.1567,-3.1567,-3.1567,-3.1567,-3.1567,-3.1567,-3.1567,-3.1567,-3.1567,-3.1567,-3.1567,-3.1567,-3.1567,-3.1567,-3.1567,-3.1567,-3.1567,-3.1567,-3.1567,-3.1567,-3.1567,-3.1567,-3.1567,-3.1567,-3.1567,-3.1567,-3.1567,-3.1567,-3.1567,-3.1567,-4.1696,-4.1832,-4.1931,-4.198,-4.198,-4.2079,-4.1533,-4.0593,-4.0353,-3.9728,-3.8948,-3.8682,-3.8615,-3.8615,-3.8615,-3.8602,-3.8615,-3.8666,-3.8621,-3.8512,-3.8557,-3.8602,-3.8615,-3.8615,-3.8069,-3.711,-3.6367,-3.57,-3.522,-3.5113,-3.5072,-3.5072,-3.5113,-3.5072,-3.5113,-3.5072,-3.5044,-3.4977,-3.4831,-3.4511,-3.4059,-3.3662,-3.3105,-3.2351,-3.2086,-3.1796,-3.1224,-3.1061,-3.0911,-3.0736,-3.066,-3.0432,-3.0151,-3.0287,-3.0394,-3.0366,-3.0927,-3.1188,-3.1357,-3.1465,-3.1488,-3.1448,-3.1217,-3.1005,-3.0781,-3.0703,-3.0432,-3.008,-2.9988,-2.9852,-2.962,-3.0175,-3.0496,-3.0247,-3.0614,-3.1105,-3.152,-3.1567,-3.1567,-3.1567,-3.1567,-3.1567,-3.1567,-3.1567,-3.1567,-3.1567,-3.1567,-3.1567,-3.1567,-3.1567,-3.1567,-3.1567,-3.1567,-3.1567,-3.1567,-3.1567,-3.1567,-3.1567,-3.1567,-3.1567,-3.1567,-3.1567,-3.1567,-3.1567,-3.1567,-3.1567,-3.1567,-3.1567,-3.1567,-3.1567,-3.1567,-3.1567,-3.1567,-3.1567,-3.1567,-4.1944,-4.2128,-4.2226,-4.2239,-4.2199,-4.211,-4.1528,-4.0623,-4.0341,-3.9744,-3.8993,-3.8872,-3.8859,-3.8872,-3.8859,-3.8859,-3.8872,-3.9011,-3.898,-3.8859,-3.8872,-3.8859,-3.8872,-3.8872,-3.8242,-3.7222,-3.6713,-3.6109,-3.5344,-3.5318,-3.5331,-3.5318,-3.5318,-3.5318,-3.5318,-3.5318,-3.529,-3.5236,-3.5182,-3.4981,-3.4566,-3.4326,-3.3873,-3.3207,-3.2953,-3.2608,-3.2097,-3.1957,-3.1532,-3.0979,-3.0904,-3.0829,-3.0585,-3.1018,-3.128,-3.1407,-3.1746,-3.2134,-3.2171,-3.221,-3.2176,-3.1981,-3.1705,-3.1484,-3.1273,-3.1184,-3.0916,-3.0601,-3.0499,-3.0318,-2.9988,-3.0665,-3.0967,-3.0599,-3.0998,-3.1359,-3.1575,-3.1567,-3.1567,-3.1567,-3.1567,-3.1567,-3.1567,-3.1567,-3.1567,-3.1567,-3.1567,-3.1567,-3.1567,-3.1567,-3.1567,-3.1567,-3.1567,-3.1567,-3.1567,-3.1567,-3.1567,-3.1567,-3.1567,-3.1567,-3.1567,-3.1567,-3.1567,-3.1567,-3.1567,-3.1567,-3.1567,-3.1567,-3.1567,-3.1567,-3.1567,-3.1567,-3.1567,-3.1567,-3.1567,-4.2128,-4.219,-4.24,-4.2511,-4.2479,-4.2146,-4.1612,-4.1022,-4.0453,-3.9843,-3.9342,-3.9216,-3.9261,-3.9274,-3.9216,-3.9216,-3.9305,-3.9261,-3.9247,-3.9274,-3.9261,-3.923,-3.923,-3.923,-3.858,-3.7578,-3.7402,-3.6752,-3.5683,-3.5629,-3.571,-3.5669,-3.5629,-3.5669,-3.5629,-3.5669,-3.5562,-3.5453,-3.5399,-3.5291,-3.5074,-3.4647,-3.426,-3.414,-3.3765,-3.3444,-3.3258,-3.3127,-3.2588,-3.1402,-3.1525,-3.1552,-3.1473,-3.1857,-3.2356,-3.2672,-3.2714,-3.2862,-3.2973,-3.2889,-3.2667,-3.2475,-3.2232,-3.1957,-3.1761,-3.1584,-3.1362,-3.1095,-3.1062,-3.0826,-3.057,-3.1181,-3.1506,-3.1334,-3.1673,-3.1898,-3.1659,-3.1618,-3.1618,-3.1618,-3.1567,-3.1567,-3.1567,-3.1567,-3.1567,-3.1567,-3.1567,-3.1567,-3.1567,-3.1567,-3.1567,-3.1567,-3.1567,-3.1567,-3.1567,-3.1567,-3.1567,-3.1567,-3.1567,-3.1567,-3.1567,-3.1567,-3.1567,-3.1567,-3.1567,-3.1567,-3.1567,-3.1567,-3.1567,-3.1567,-3.1567,-3.1567,-3.1567,-3.1567,-3.1567,-4.2498,-4.2693,-4.2741,-4.279,-4.2709,-4.2249,-4.1666,-4.1069,-4.0445,-3.9821,-3.94,-3.9305,-3.9305,-3.9305,-3.9305,-3.9305,-3.9305,-3.9305,-3.9305,-3.9305,-3.9305,-3.9305,-3.9305,-3.9292,-3.8681,-3.7634,-3.7458,-3.6862,-3.5791,-3.571,-3.571,-3.571,-3.571,-3.571,-3.571,-3.571,-3.5669,-3.5642,-3.5629,-3.5602,-3.5535,-3.5373,-3.5062,-3.4644,-3.4496,-3.416,-3.3666,-3.3457,-3.3286,-3.2838,-3.2632,-3.2529,-3.2358,-3.2731,-3.2998,-3.3001,-3.3277,-3.3449,-3.3505,-3.3471,-3.3258,-3.2939,-3.281,-3.2636,-3.2257,-3.2169,-3.1969,-3.1781,-3.1617,-3.1407,-3.1203,-3.1808,-3.2307,-3.2617,-3.2548,-3.2291,-3.1975,-3.1874,-3.1823,-3.1618,-3.1618,-3.1618,-3.1618,-3.1618,-3.1618,-3.1567,-3.1567,-3.1567,-3.1567,-3.1567,-3.1567,-3.1567,-3.1567,-3.1567,-3.1567,-3.1567,-3.1567,-3.1567,-3.1567,-3.1567,-3.1567,-3.1567,-3.1567,-3.1567,-3.1567,-3.1567,-3.1567,-3.1567,-3.1567,-3.1567,-3.1567,-3.1567,-3.1567,-3.1567,-3.1567,-4.2741,-4.29,-4.29,-4.2751,-4.2453,-4.1883,-4.1286,-4.0689,-4.0078,-3.9644,-3.9359,-3.9305,-3.9305,-3.9305,-3.9305,-3.9305,-3.9305,-3.9305,-3.9305,-3.9305,-3.9305,-3.9305,-3.9305,-3.9292,-3.8681,-3.7607,-3.7499,-3.6794,-3.5913,-3.571,-3.571,-3.571,-3.571,-3.571,-3.571,-3.571,-3.571,-3.571,-3.571,-3.571,-3.571,-3.571,-3.5574,-3.5209,-3.5168,-3.4925,-3.4576,-3.443,-3.411,-3.3605,-3.3409,-3.345,-3.3383,-3.3763,-3.3901,-3.3721,-3.3894,-3.3979,-3.3852,-3.3755,-3.3598,-3.3398,-3.3356,-3.3197,-3.2939,-3.281,-3.2698,-3.2307,-3.2176,-3.2066,-3.2061,-3.2566,-3.3123,-3.3459,-3.3369,-3.2896,-3.2291,-3.2229,-3.2128,-3.2037,-3.1986,-3.1885,-3.1834,-3.1783,-3.1732,-3.1629,-3.1567,-3.1567,-3.1567,-3.1567,-3.1567,-3.1567,-3.1567,-3.1567,-3.1567,-3.1567,-3.1567,-3.1567,-3.1567,-3.1567,-3.1567,-3.1567,-3.1567,-3.1567,-3.1567,-3.1567,-3.1567,-3.1567,-3.1567,-3.1567,-3.1567,-3.1567,-3.1567,-3.1567,-3.1567,-4.2846,-4.2792,-4.2792,-4.2453,-4.1869,-4.1286,-4.073,-4.0173,-3.9617,-3.9346,-3.9305,-3.9305,-3.9305,-3.9305,-3.9305,-3.9305,-3.9305,-3.9305,-3.9305,-3.9305,-3.9305,-3.9305,-3.9305,-3.9305,-3.864,-3.7662,-3.7499,-3.6767,-3.5981,-3.571,-3.571,-3.571,-3.571,-3.571,-3.571,-3.571,-3.571,-3.571,-3.571,-3.571,-3.571,-3.571,-3.5669,-3.5628,-3.5601,-3.5615,-3.5534,-3.552,-3.5048,-3.3751,-3.406,-3.43,-3.4366,-3.4832,-3.4896,-3.4744,-3.4524,-3.4397,-3.423,-3.4063,-3.3839,-3.381,-3.3755,-3.3628,-3.3441,-3.3356,-3.3215,-3.2871,-3.281,-3.2822,-3.3036,-3.3475,-3.3875,-3.4179,-3.4174,-3.3668,-3.2958,-3.2606,-3.2555,-3.2493,-3.2493,-3.2342,-3.2179,-3.2015,-3.1964,-3.1986,-3.1874,-3.1834,-3.1772,-3.1721,-3.1669,-3.1567,-3.1567,-3.1567,-3.1567,-3.1567,-3.1567,-3.1567,-3.1567,-3.1567,-3.1567,-3.1567,-3.1567,-3.1567,-3.1567,-3.1567,-3.1567,-3.1567,-3.1567,-3.1567,-3.1567,-3.1567,-3.1567,-3.1567,-3.1567,-4.2602,-4.2195,-4.2209,-4.1856,-4.1259,-4.0662,-4.0309,-4.0119,-3.9549,-3.9305,-3.9305,-3.9305,-3.9305,-3.9305,-3.9305,-3.9305,-3.9305,-3.9305,-3.9305,-3.9305,-3.9305,-3.9305,-3.9292,-3.9264,-3.8627,-3.7743,-3.7499,-3.6821,-3.5981,-3.571,-3.571,-3.571,-3.571,-3.571,-3.571,-3.571,-3.571,-3.571,-3.571,-3.571,-3.571,-3.571,-3.571,-3.571,-3.571,-3.571,-3.571,-3.571,-3.5547,-3.5278,-3.5144,-3.5063,-3.5103,-3.5102,-3.5113,-3.5031,-3.499,-3.4908,-3.488,-3.4743,-3.4605,-3.4272,-3.423,-3.405,-3.367,-3.3683,-3.3641,-3.3471,-3.3368,-3.347,-3.3868,-3.4333,-3.4652,-3.4848,-3.4787,-3.4482,-3.3991,-3.3469,-3.3019,-3.2706,-3.2594,-3.2493,-3.2432,-3.2443,-3.2331,-3.2291,-3.224,-3.2139,-3.2026,-3.1913,-3.1874,-3.1772,-3.1669,-3.1669,-3.1669,-3.1669,-3.1567,-3.1567,-3.1567,-3.1567,-3.1567,-3.1567,-3.1567,-3.1567,-3.1567,-3.1567,-3.1567,-3.1567,-3.1567,-3.1567,-3.1567,-3.1567,-3.1567,-3.1567,-3.1567,-4.2385,-4.1978,-4.1707,-4.1245,-4.0675,-4.0323,-4.0024,-3.9753,-3.9454,-3.9305,-3.9305,-3.9305,-3.9305,-3.9305,-3.9305,-3.9305,-3.9305,-3.9305,-3.9305,-3.9305,-3.9292,-3.9142,-3.8898,-3.883,-3.8396,-3.7526,-3.7174,-3.6551,-3.5927,-3.571,-3.571,-3.571,-3.571,-3.571,-3.571,-3.571,-3.571,-3.571,-3.571,-3.571,-3.571,-3.571,-3.571,-3.571,-3.571,-3.571,-3.571,-3.571,-3.571,-3.5669,-3.5602,-3.5562,-3.5521,-3.544,-3.5358,-3.5236,-3.5236,-3.5195,-3.5113,-3.5072,-3.4962,-3.4743,-3.4743,-3.4605,-3.4397,-3.4285,-3.416,-3.4021,-3.39,-3.3984,-3.4587,-3.5365,-3.5655,-3.5533,-3.544,-3.5199,-3.4775,-3.4101,-3.3568,-3.3308,-3.3308,-3.3119,-3.3019,-3.2908,-3.2645,-3.2594,-3.2443,-3.2392,-3.2342,-3.2229,-3.2179,-3.2088,-3.1936,-3.1823,-3.1772,-3.1721,-3.1567,-3.1567,-3.1567,-3.1567,-3.1567,-3.1567,-3.1567,-3.1567,-3.1567,-3.1567,-3.1567,-3.1567,-3.1567,-3.1567,-3.1567,-3.1567,-3.1567,-3.1567,-3.1567,-4.2144,-4.1787,-4.1284,-4.0713,-4.0241,-4.016,-3.9887,-3.9506,-3.9394,-3.9482,-3.938,-3.938,-3.9482,-3.9438,-3.9438,-3.9438,-3.9438,-3.9438,-3.9482,-3.9394,-3.9203,-3.8915,-3.8532,-3.8193,-3.7826,-3.7309,-3.6917,-3.6307,-3.5873,-3.571,-3.571,-3.571,-3.571,-3.571,-3.571,-3.571,-3.571,-3.571,-3.571,-3.571,-3.571,-3.571,-3.571,-3.571,-3.571,-3.571,-3.571,-3.571,-3.571,-3.571,-3.571,-3.571,-3.571,-3.571,-3.5629,-3.544,-3.544,-3.5399,-3.5277,-3.5236,-3.5208,-3.5168,-3.5168,-3.5113,-3.5031,-3.488,-3.4714,-3.4612,-3.4517,-3.4723,-3.52,-3.6011,-3.6382,-3.625,-3.6156,-3.5883,-3.5452,-3.4787,-3.4445,-3.4064,-3.3904,-3.3755,-3.358,-3.3431,-3.3119,-3.2857,-3.2745,-3.2645,-3.2645,-3.2594,-3.2544,-3.2392,-3.219,-3.2139,-3.2077,-3.2026,-3.1885,-3.1772,-3.1772,-3.1721,-3.1669,-3.1629,-3.1629,-3.1567,-3.1567,-3.1567,-3.1567,-3.1567,-3.1567,-3.1567,-3.1567,-3.1567,-3.1567,-3.1567,-3.1567,-4.1603,-4.1062,-4.0966,-4.0567,-4.0071,-4.003,-3.9988,-3.9878,-3.9878,-3.9878,-3.9878,-3.9878,-3.9834,-3.9878,-3.9878,-3.9878,-3.9834,-3.9791,-3.9719,-3.9478,-3.9177,-3.8737,-3.8224,-3.7558,-3.7013,-3.6782,-3.6564,-3.6212,-3.5832,-3.571,-3.571,-3.571,-3.571,-3.571,-3.571,-3.571,-3.571,-3.571,-3.571,-3.571,-3.571,-3.571,-3.571,-3.571,-3.571,-3.571,-3.571,-3.571,-3.571,-3.571,-3.571,-3.571,-3.571,-3.571,-3.5669,-3.5629,-3.5629,-3.5588,-3.5548,-3.5562,-3.5521,-3.5399,-3.5358,-3.5277,-3.5154,-3.5072,-3.5003,-3.5131,-3.5391,-3.5796,-3.5916,-3.667,-3.6959,-3.6862,-3.6722,-3.6534,-3.6345,-3.5918,-3.5295,-3.4763,-3.4531,-3.4347,-3.4162,-3.4026,-3.3817,-3.3656,-3.3545,-3.3358,-3.3158,-3.3058,-3.3008,-3.2757,-3.2443,-3.2443,-3.2443,-3.2392,-3.2291,-3.2179,-3.2128,-3.1975,-3.1874,-3.1732,-3.1629,-3.1783,-3.1669,-3.1567,-3.1567,-3.1567,-3.1567,-3.1567,-3.1567,-3.1567,-3.1567,-3.1567,-3.1567,-4.1363,-4.088,-4.0576,-4.0272,-4.0037,-4.0009,-4.0009,-4.0009,-4.0009,-4.0009,-4.0009,-4.0009,-4.0009,-4.0009,-4.0009,-4.0009,-4.0009,-4.0009,-3.98,-3.9381,-3.9064,-3.8514,-3.7961,-3.7167,-3.6716,-3.6457,-3.6293,-3.613,-3.5737,-3.571,-3.571,-3.571,-3.571,-3.571,-3.571,-3.571,-3.571,-3.571,-3.571,-3.571,-3.571,-3.571,-3.571,-3.571,-3.571,-3.571,-3.571,-3.571,-3.571,-3.571,-3.571,-3.571,-3.571,-3.571,-3.571,-3.571,-3.571,-3.571,-3.571,-3.571,-3.5629,-3.5588,-3.5548,-3.5521,-3.5399,-3.5318,-3.5236,-3.5339,-3.5971,-3.6441,-3.6467,-3.7181,-3.7547,-3.7479,-3.7294,-3.7108,-3.6922,-3.6722,-3.6203,-3.5523,-3.5307,-3.5078,-3.4787,-3.464,-3.4494,-3.4396,-3.4298,-3.4052,-3.3767,-3.3668,-3.3568,-3.3308,-3.3058,-3.2807,-3.2807,-3.2757,-3.2745,-3.2645,-3.2493,-3.2331,-3.2229,-3.2088,-3.2088,-3.2139,-3.1986,-3.1721,-3.1629,-3.1629,-3.1629,-3.1618,-3.1618,-3.1618,-3.1618,-3.1567,-3.1567,-4.1345,-4.0952,-4.0465,-4.0257,-4.0257,-4.0314,-4.03,-4.0257,-4.03,-4.0357,-4.027,-4.03,-4.0357,-4.03,-4.0314,-4.0314,-4.0243,-4.0202,-3.9827,-3.9338,-3.8852,-3.8256,-3.7551,-3.7109,-3.6754,-3.6317,-3.6234,-3.5978,-3.5764,-3.571,-3.571,-3.571,-3.571,-3.571,-3.571,-3.571,-3.571,-3.571,-3.571,-3.571,-3.571,-3.571,-3.571,-3.571,-3.571,-3.571,-3.571,-3.571,-3.571,-3.571,-3.571,-3.571,-3.571,-3.571,-3.571,-3.571,-3.571,-3.571,-3.571,-3.571,-3.5669,-3.5669,-3.571,-3.5669,-3.5629,-3.5521,-3.5413,-3.5437,-3.6196,-3.686,-3.6964,-3.7692,-3.8094,-3.8044,-3.7861,-3.7631,-3.7433,-3.7248,-3.7108,-3.6581,-3.6228,-3.58,-3.5452,-3.5259,-3.5163,-3.4981,-3.4884,-3.4689,-3.4445,-3.4408,-3.4261,-3.4014,-3.3706,-3.3319,-3.322,-3.3158,-3.3208,-3.3208,-3.2958,-3.2757,-3.2645,-3.2544,-3.2493,-3.2443,-3.219,-3.1975,-3.1834,-3.1783,-3.1823,-3.1874,-3.1721,-3.1669,-3.1618,-3.1567,-3.1567,-4.1369,-4.1326,-4.1255,-4.1213,-4.1227,-4.1227,-4.1213,-4.1227,-4.117,-4.1227,-4.117,-4.1227,-4.117,-4.1185,-4.117,-4.1213,-4.0986,-4.0561,-3.9984,-3.941,-3.8639,-3.7959,-3.7287,-3.6723,-3.6678,-3.6431,-3.6405,-3.6112,-3.5844,-3.575,-3.5723,-3.5764,-3.571,-3.571,-3.571,-3.571,-3.571,-3.571,-3.571,-3.571,-3.571,-3.571,-3.571,-3.571,-3.571,-3.571,-3.571,-3.571,-3.571,-3.571,-3.571,-3.571,-3.571,-3.571,-3.571,-3.571,-3.571,-3.571,-3.571,-3.571,-3.571,-3.571,-3.571,-3.571,-3.5669,-3.5669,-3.5642,-3.5683,-3.6572,-3.7091,-3.7276,-3.7998,-3.8371,-3.8498,-3.8362,-3.8226,-3.8076,-3.7815,-3.7664,-3.7526,-3.7108,-3.6581,-3.6143,-3.5966,-3.5835,-3.5608,-3.5416,-3.5271,-3.5078,-3.4981,-3.4799,-3.4494,-3.4347,-3.4003,-3.3706,-3.3656,-3.3656,-3.3706,-3.3469,-3.322,-3.317,-3.3058,-3.2745,-3.2645,-3.2443,-3.2493,-3.2493,-3.2443,-3.2291,-3.2128,-3.2026,-3.1823,-3.1618,-3.1618,-3.1721,-4.1993,-4.1729,-4.1744,-4.1729,-4.1729,-4.1744,-4.1729,-4.1729,-4.1729,-4.1744,-4.1729,-4.1715,-4.1688,-4.1604,-4.1591,-4.1236,-4.0853,-4.0496,-3.9845,-3.924,-3.8479,-3.7961,-3.7532,-3.72,-3.7007,-3.6772,-3.6693,-3.6549,-3.6204,-3.5978,-3.5952,-3.5898,-3.575,-3.571,-3.5723,-3.571,-3.571,-3.571,-3.571,-3.571,-3.571,-3.571,-3.571,-3.571,-3.571,-3.571,-3.571,-3.571,-3.571,-3.571,-3.571,-3.571,-3.571,-3.571,-3.571,-3.571,-3.571,-3.571,-3.571,-3.571,-3.571,-3.571,-3.571,-3.571,-3.571,-3.571,-3.571,-3.5723,-3.6711,-3.7277,-3.7518,-3.8219,-3.8573,-3.8756,-3.8724,-3.8589,-3.8453,-3.8408,-3.8239,-3.8135,-3.7952,-3.7433,-3.6956,-3.6769,-3.6534,-3.6203,-3.6073,-3.5966,-3.5692,-3.5464,-3.5223,-3.4932,-3.4835,-3.4677,-3.4445,-3.4249,-3.4139,-3.415,-3.3965,-3.3779,-3.3729,-3.3568,-3.3358,-3.3358,-3.3408,-3.3408,-3.3308,-3.2946,-3.2594,-3.2381,-3.228,-3.2128,-3.2026,-3.2088,-3.2088,-4.2633,-4.2333,-4.2211,-4.217,-4.2155,-4.217,-4.217,-4.217,-4.217,-4.217,-4.2155,-4.214,-4.2015,-4.1761,-4.1618,-4.1273,-4.0493,-4.0308,-3.9664,-3.9003,-3.8533,-3.8193,-3.7859,-3.7649,-3.7481,-3.7211,-3.7187,-3.6954,-3.6693,-3.647,-3.6312,-3.6166,-3.6018,-3.5884,-3.5804,-3.5804,-3.5804,-3.571,-3.571,-3.571,-3.571,-3.571,-3.571,-3.571,-3.571,-3.571,-3.571,-3.571,-3.571,-3.571,-3.571,-3.571,-3.571,-3.571,-3.571,-3.571,-3.571,-3.571,-3.571,-3.571,-3.571,-3.571,-3.571,-3.571,-3.571,-3.571,-3.571,-3.5723,-3.6794,-3.735,-3.7687,-3.8368,-3.8849,-3.8966,-3.889,-3.8814,-3.8679,-3.8634,-3.8557,-3.8421,-3.833,-3.8285,-3.7907,-3.7664,-3.7328,-3.6909,-3.6709,-3.6628,-3.6345,-3.6026,-3.5835,-3.5596,-3.5404,-3.5295,-3.515,-3.4969,-3.4763,-3.458,-3.4457,-3.4359,-3.4359,-3.431,-3.415,-3.42,-3.4261,-3.4101,-3.3892,-3.3346,-3.2846,-3.2807,-3.2757,-3.2594,-3.2544,-3.2544,-3.2493,-4.325,-4.3155,-4.2809,-4.2648,-4.2648,-4.2648,-4.2648,-4.2633,-4.2633,-4.2618,-4.2545,-4.2589,-4.2195,-4.1787,-4.1571,-4.1223,-4.0607,-4.0097,-3.9651,-3.9229,-3.885,-3.8423,-3.8165,-3.8014,-3.7901,-3.7787,-3.7634,-3.7443,-3.7226,-3.6993,-3.6733,-3.6391,-3.6312,-3.6192,-3.6112,-3.6032,-3.5978,-3.5844,-3.5804,-3.5804,-3.5764,-3.5764,-3.5764,-3.5764,-3.5723,-3.571,-3.571,-3.571,-3.571,-3.571,-3.571,-3.571,-3.571,-3.571,-3.571,-3.571,-3.571,-3.571,-3.571,-3.571,-3.571,-3.571,-3.571,-3.571,-3.571,-3.571,-3.571,-3.5845,-3.6808,-3.739,-3.7838,-3.8448,-3.9094,-3.9158,-3.9114,-3.9024,-3.8935,-3.8877,-3.88,-3.8647,-3.8602,-3.8647,-3.8544,-3.8258,-3.7939,-3.7513,-3.7188,-3.7095,-3.6956,-3.6722,-3.6581,-3.6392,-3.6108,-3.5966,-3.5918,-3.5679,-3.5452,-3.5223,-3.5042,-3.5042,-3.5042,-3.4932,-3.4787,-3.4787,-3.4738,-3.4628,-3.4482,-3.4188,-3.3805,-3.3419,-3.3231,-3.3108,-3.2958,-3.2857,-3.2757,-4.3738,-4.3699,-4.3581,-4.3329,-4.305,-4.309,-4.305,-4.305,-4.309,-4.2837,-4.2495,-4.2465,-4.206,-4.1483,-4.1266,-4.0902,-4.0197,-3.9961,-3.954,-3.915,-3.8804,-3.8649,-3.8523,-3.8486,-3.8427,-3.8254,-3.8052,-3.7863,-3.7672,-3.7495,-3.7341,-3.7084,-3.6707,-3.6391,-3.6286,-3.6286,-3.6192,-3.6152,-3.6112,-3.6152,-3.6138,-3.6138,-3.6152,-3.6152,-3.5992,-3.5952,-3.5952,-3.5764,-3.5723,-3.571,-3.571,-3.575,-3.571,-3.571,-3.571,-3.571,-3.571,-3.571,-3.571,-3.571,-3.571,-3.571,-3.571,-3.571,-3.571,-3.571,-3.571,-3.6076,-3.6781,-3.7458,-3.7662,-3.8559,-3.9305,-3.9305,-3.9261,-3.9203,-3.9145,-3.91,-3.9069,-3.8917,-3.8962,-3.8993,-3.889,-3.8742,-3.844,-3.8122,-3.7848,-3.7559,-3.7466,-3.7328,-3.7188,-3.7049,-3.6769,-3.6534,-3.6439,-3.6263,-3.6038,-3.5847,-3.5668,-3.556,-3.5512,-3.5416,-3.532,-3.5271,-3.5259,-3.5223,-3.5126,-3.509,-3.4701,-3.4113,-3.3828,-3.3729,-3.3469,-3.3208,-3.3058,-4.3365,-4.3365,-4.338,-4.3454,-4.3512,-4.3503,-4.3382,-4.3217,-4.3109,-4.2725,-4.2126,-4.2081,-4.1675,-4.106,-4.0844,-4.0464,-3.9876,-3.9617,-3.938,-3.9158,-3.901,-3.898,-3.8943,-3.8907,-3.876,-3.8664,-3.8478,-3.8277,-3.8089,-3.7953,-3.7763,-3.7534,-3.7148,-3.6875,-3.6589,-3.647,-3.6405,-3.6405,-3.6405,-3.6405,-3.6405,-3.6405,-3.6365,-3.6365,-3.6232,-3.6192,-3.6152,-3.6072,-3.5978,-3.5965,-3.5924,-3.5884,-3.5844,-3.5804,-3.5764,-3.5723,-3.571,-3.571,-3.571,-3.571,-3.571,-3.571,-3.571,-3.571,-3.571,-3.5723,-3.5764,-3.6117,-3.6903,-3.7553,-3.7689,-3.8735,-3.9278,-3.9305,-3.9305,-3.9261,-3.9261,-3.9216,-3.9261,-3.923,-3.9216,-3.9172,-3.9172,-3.9024,-3.8756,-3.8498,-3.8272,-3.8076,-3.8031,-3.7893,-3.771,-3.7572,-3.7387,-3.7201,-3.6981,-3.6734,-3.6499,-3.631,-3.6121,-3.5978,-3.593,-3.5847,-3.5847,-3.5835,-3.5835,-3.58,-3.5716,-3.5572,-3.5138,-3.4604,-3.4408,-3.4261,-3.4064,-3.3744,-3.3668,-4.203,-4.1932,-4.2045,-4.2773,-4.379,-4.3942,-4.3524,-4.2932,-4.2772,-4.2204,-4.152,-4.146,-4.1078,-4.0546,-4.0449,-4.0113,-3.9709,-3.9508,-3.9433,-3.9403,-3.9322,-3.9388,-3.9301,-3.9192,-3.9068,-3.9017,-3.8833,-3.8649,-3.8478,-3.8404,-3.8202,-3.8052,-3.7772,-3.7481,-3.6993,-3.6628,-3.6445,-3.6445,-3.6484,-3.6524,-3.6563,-3.6589,-3.6589,-3.6589,-3.651,-3.647,-3.6431,-3.6312,-3.6232,-3.6232,-3.6272,-3.6192,-3.6112,-3.6086,-3.5992,-3.5804,-3.575,-3.571,-3.571,-3.571,-3.571,-3.571,-3.571,-3.571,-3.571,-3.575,-3.5954,-3.6334,-3.7107,-3.7716,-3.8271,-3.8884,-3.9169,-3.9305,-3.9305,-3.9305,-3.9305,-3.9305,-3.9305,-3.9305,-3.9305,-3.9305,-3.9305,-3.9216,-3.8993,-3.8814,-3.8634,-3.8544,-3.8498,-3.8362,-3.8135,-3.8044,-3.7907,-3.7677,-3.7446,-3.7248,-3.7015,-3.6815,-3.6628,-3.6452,-3.6358,-3.631,-3.631,-3.6358,-3.6216,-3.6086,-3.6038,-3.5955,-3.562,-3.5271,-3.4932,-3.4738,-3.4531,-3.4384,-3.4249,-4.2352,-4.2368,-4.2352,-4.2628,-4.2989,-4.2749,-4.2432,-4.2281,-4.213,-4.1775,-4.1239,-4.1133,-4.077,-4.0281,-4.0145,-4.0024,-3.9843,-3.9783,-3.9783,-3.9798,-3.9661,-3.9625,-3.9553,-3.9409,-3.9301,-3.9265,-3.9104,-3.898,-3.8922,-3.8811,-3.8686,-3.8486,-3.8263,-3.7938,-3.7534,-3.7254,-3.7201,-3.7201,-3.7201,-3.7201,-3.7201,-3.7187,-3.7162,-3.7123,-3.6929,-3.6811,-3.6772,-3.6628,-3.651,-3.6524,-3.6524,-3.6405,-3.6325,-3.6325,-3.6232,-3.6098,-3.6058,-3.5898,-3.5764,-3.571,-3.571,-3.571,-3.571,-3.571,-3.571,-3.571,-3.6049,-3.6564,-3.7147,-3.7743,-3.8355,-3.8952,-3.9251,-3.9305,-3.9305,-3.9305,-3.9305,-3.9305,-3.9305,-3.9305,-3.9305,-3.9305,-3.9305,-3.9305,-3.9127,-3.9024,-3.889,-3.88,-3.8742,-3.8634,-3.8408,-3.8408,-3.8317,-3.8089,-3.7861,-3.7664,-3.7387,-3.7095,-3.7002,-3.6922,-3.6828,-3.6687,-3.6628,-3.6581,-3.6487,-3.6358,-3.6323,-3.6275,-3.6228,-3.5943,-3.5596,-3.532,-3.5175,-3.503,-3.4884,-4.1878,-4.1858,-4.1878,-4.1858,-4.1884,-4.2065,-4.1995,-4.1715,-4.145,-4.1085,-4.0709,-4.0633,-4.0451,-4.0117,-4.0011,-4.0011,-4.0011,-4.0011,-4.0011,-3.9975,-3.9889,-3.9818,-3.9747,-3.9661,-3.9589,-3.9481,-3.9409,-3.9286,-3.9177,-3.9068,-3.8958,-3.8833,-3.8686,-3.8427,-3.8066,-3.7915,-3.7763,-3.7763,-3.7763,-3.7763,-3.7749,-3.7711,-3.7687,-3.7572,-3.7419,-3.7187,-3.7148,-3.7007,-3.6811,-3.6786,-3.6747,-3.6668,-3.6628,-3.6549,-3.647,-3.6365,-3.6272,-3.6072,-3.5938,-3.5858,-3.5858,-3.571,-3.571,-3.571,-3.571,-3.571,-3.6252,-3.6754,-3.7241,-3.7905,-3.8613,-3.9169,-3.9264,-3.9305,-3.9305,-3.9305,-3.9305,-3.9305,-3.9305,-3.9305,-3.9305,-3.9305,-3.9305,-3.9305,-3.9261,-3.9203,-3.9145,-3.9056,-3.9011,-3.889,-3.8724,-3.8724,-3.8679,-3.844,-3.8258,-3.8044,-3.7756,-3.7433,-3.7341,-3.7307,-3.7062,-3.6922,-3.6862,-3.6815,-3.6769,-3.6734,-3.6687,-3.664,-3.6546,-3.6452,-3.6203,-3.5978,-3.5812,-3.562,-3.5416,-4.052,-4.0489,-4.0505,-4.0566,-4.0751,-4.1822,-4.1919,-4.1245,-4.0648,-4.0268,-4.0076,-4.0157,-4.0127,-4.0061,-4.0046,-4.0081,-4.0081,-4.0081,-4.0081,-4.0081,-4.0031,-4.0046,-4.0011,-3.9925,-3.9818,-3.9732,-3.9661,-3.9553,-3.9409,-3.9301,-3.9228,-3.9104,-3.8958,-3.8811,-3.8649,-3.8501,-3.8315,-3.824,-3.824,-3.8202,-3.8188,-3.8075,-3.8052,-3.7976,-3.7839,-3.7687,-3.7663,-3.7572,-3.7534,-3.7471,-3.738,-3.7187,-3.7031,-3.685,-3.6628,-3.6484,-3.6431,-3.6272,-3.6112,-3.6086,-3.5952,-3.5804,-3.5723,-3.5723,-3.571,-3.5764,-3.6293,-3.6903,-3.7485,-3.8271,-3.9034,-3.9169,-3.9305,-3.9305,-3.9305,-3.9305,-3.9305,-3.9305,-3.9305,-3.9305,-3.9305,-3.9305,-3.9305,-3.9305,-3.9305,-3.9261,-3.9247,-3.9216,-3.9158,-3.9216,-3.9038,-3.8935,-3.889,-3.8787,-3.8607,-3.8395,-3.8226,-3.7939,-3.7769,-3.7677,-3.74,-3.7248,-3.7248,-3.7235,-3.7108,-3.7015,-3.6922,-3.6875,-3.6922,-3.6769,-3.6581,-3.6358,-3.6146,-3.6051,-3.586,-4.0489,-4.0489,-4.0489,-4.0489,-4.0551,-4.0935,-4.0916,-4.0696,-4.0482,-4.0401,-4.0351,-4.0366,-4.0331,-4.0366,-4.0366,-4.0331,-4.0331,-4.0366,-4.0366,-4.0331,-4.0242,-4.0242,-4.0172,-4.0101,-4.0011,-3.9925,-3.9889,-3.9803,-3.9625,-3.9481,-3.9424,-3.9301,-3.9265,-3.9228,-3.9192,-3.9104,-3.887,-3.8686,-3.8634,-3.8649,-3.8598,-3.8523,-3.8486,-3.8412,-3.8277,-3.8217,-3.8179,-3.8066,-3.7991,-3.7825,-3.7787,-3.7634,-3.7433,-3.7356,-3.724,-3.6889,-3.6693,-3.651,-3.6325,-3.6166,-3.6086,-3.5978,-3.5844,-3.5723,-3.571,-3.5859,-3.628,-3.6944,-3.7485,-3.8136,-3.8871,-3.9156,-3.9278,-3.9305,-3.9305,-3.9305,-3.9305,-3.9305,-3.9305,-3.9305,-3.9305,-3.9305,-3.9305,-3.9305,-3.9305,-3.9305,-3.9305,-3.9305,-3.9305,-3.9305,-3.9261,-3.9158,-3.9114,-3.9011,-3.8908,-3.8684,-3.8575,-3.8453,-3.8226,-3.8089,-3.8044,-3.7907,-3.7756,-3.7618,-3.7526,-3.7294,-3.7062,-3.7108,-3.7248,-3.7108,-3.6922,-3.67,-3.6465,-3.6383,-3.6288,-4.0489,-4.0489,-4.0489,-4.0524,-4.0643,-4.0712,-4.0712,-4.0712,-4.0574,-4.0489,-4.0489,-4.0489,-4.0489,-4.0489,-4.047,-4.0455,-4.047,-4.047,-4.047,-4.0436,-4.0401,-4.0401,-4.0331,-4.0226,-4.0191,-4.0137,-4.0066,-3.9996,-3.9803,-3.9732,-3.9625,-3.964,-3.964,-3.9655,-3.964,-3.9589,-3.9445,-3.9235,-3.909,-3.9068,-3.9031,-3.8943,-3.8943,-3.8855,-3.8723,-3.8649,-3.8612,-3.8464,-3.8389,-3.8225,-3.8188,-3.8089,-3.7915,-3.7839,-3.761,-3.7264,-3.7084,-3.685,-3.6654,-3.647,-3.6312,-3.6192,-3.5978,-3.5898,-3.5804,-3.5885,-3.6348,-3.6877,-3.7309,-3.7824,-3.8559,-3.9142,-3.9237,-3.9305,-3.9305,-3.9305,-3.9305,-3.9305,-3.9305,-3.9305,-3.9305,-3.9305,-3.9305,-3.9305,-3.9305,-3.9305,-3.9305,-3.9305,-3.9305,-3.9305,-3.9305,-3.9261,-3.9261,-3.9203,-3.91,-3.8953,-3.8832,-3.8666,-3.8544,-3.8466,-3.8557,-3.8466,-3.8226,-3.8044,-3.7952,-3.7769,-3.7572,-3.7572,-3.7618,-3.7433,-3.7261,-3.7074,-3.6888,-3.6794,-3.6653,-4.0432,-4.0432,-4.0524,-4.0677,-4.0848,-4.1,-4.1083,-4.1049,-4.0712,-4.0574,-4.0574,-4.0558,-4.0574,-4.0558,-4.0558,-4.0524,-4.0489,-4.0489,-4.0489,-4.0489,-4.047,-4.047,-4.047,-4.0455,-4.0366,-4.0331,-4.0277,-4.0191,-4.0066,-3.9925,-3.9889,-4.0011,-3.9975,-3.994,-3.9905,-3.9905,-3.9783,-3.9646,-3.9466,-3.9409,-3.9301,-3.9228,-3.909,-3.9104,-3.898,-3.8855,-3.887,-3.8833,-3.887,-3.876,-3.8649,-3.8553,-3.8352,-3.8165,-3.7901,-3.7672,-3.7457,-3.7264,-3.7031,-3.6825,-3.6615,-3.647,-3.6232,-3.6152,-3.6072,-3.5804,-3.6171,-3.6727,-3.7174,-3.7756,-3.8464,-3.9047,-3.9278,-3.9305,-3.9305,-3.9305,-3.9305,-3.9305,-3.9305,-3.9305,-3.9305,-3.9305,-3.9305,-3.9305,-3.9305,-3.9305,-3.9305,-3.9305,-3.9305,-3.9305,-3.9305,-3.9305,-3.9305,-3.9305,-3.9203,-3.91,-3.9011,-3.8877,-3.8769,-3.8782,-3.8827,-3.8737,-3.8647,-3.8466,-3.8285,-3.8272,-3.8213,-3.8122,-3.7939,-3.7769,-3.7585,-3.7446,-3.7307,-3.7168,-3.6981,-3.9957,-4.0037,-4.0665,-4.1,-4.1034,-4.1083,-4.1102,-4.1083,-4.1,-4.0916,-4.0982,-4.0932,-4.0864,-4.073,-4.0696,-4.0662,-4.0524,-4.0489,-4.0489,-4.0489,-4.0489,-4.0489,-4.0489,-4.0489,-4.0455,-4.047,-4.0436,-4.0366,-4.0242,-4.0117,-4.0011,-4.0011,-4.0031,-4.0066,-4.0081,-4.0046,-3.9996,-3.991,-3.9874,-3.9661,-3.946,-3.9388,-3.9301,-3.9337,-3.925,-3.925,-3.9265,-3.9265,-3.9156,-3.9031,-3.8995,-3.887,-3.8708,-3.8464,-3.8277,-3.8052,-3.7863,-3.7687,-3.7457,-3.7187,-3.6954,-3.6758,-3.6575,-3.6431,-3.6192,-3.5884,-3.5981,-3.6551,-3.7121,-3.7718,-3.8244,-3.883,-3.9305,-3.9305,-3.9305,-3.9305,-3.9305,-3.9305,-3.9305,-3.9305,-3.9305,-3.9305,-3.9305,-3.9305,-3.9305,-3.9305,-3.9305,-3.9305,-3.9305,-3.9305,-3.9305,-3.9305,-3.9305,-3.9305,-3.9261,-3.9247,-3.9158,-3.9158,-3.9083,-3.9096,-3.9096,-3.8993,-3.8859,-3.8692,-3.8557,-3.8589,-3.8575,-3.8498,-3.8317,-3.8103,-3.7907,-3.7769,-3.7736,-3.7611,-3.7366,-3.9458,-3.9489,-4.0058,-4.0296,-4.0313,-4.0379,-4.0584,-4.0851,-4.0882,-4.107,-4.1272,-4.1169,-4.1034,-4.0916,-4.0848,-4.0765,-4.0627,-4.0524,-4.0489,-4.0489,-4.0489,-4.0489,-4.0489,-4.0489,-4.0489,-4.0489,-4.0489,-4.0436,-4.0366,-4.0331,-4.0226,-4.0191,-4.0191,-4.0191,-4.0207,-4.0207,-4.0172,-4.0137,-4.0137,-3.996,-3.9676,-3.964,-3.9676,-3.9661,-3.964,-3.964,-3.9553,-3.9532,-3.9409,-3.9301,-3.9213,-3.9104,-3.898,-3.8833,-3.8649,-3.8464,-3.8277,-3.8104,-3.7825,-3.7596,-3.7313,-3.7173,-3.6915,-3.6747,-3.6615,-3.6324,-3.6032,-3.6525,-3.6728,-3.7243,-3.7811,-3.8423,-3.8979,-3.9197,-3.9264,-3.9305,-3.9305,-3.9305,-3.9305,-3.9305,-3.9305,-3.9305,-3.9305,-3.9305,-3.9305,-3.9305,-3.9305,-3.9305,-3.9305,-3.9305,-3.9305,-3.9305,-3.9305,-3.9305,-3.9305,-3.9305,-3.9261,-3.9305,-3.9305,-3.9261,-3.9216,-3.9158,-3.9069,-3.8904,-3.8872,-3.8845,-3.8845,-3.8769,-3.8647,-3.8376,-3.8226,-3.8135,-3.8057,-3.7933,-3.7703,-3.8981,-3.9092,-3.9282,-3.9345,-3.9345,-3.9487,-3.9882,-4.0356,-4.0467,-4.0767,-4.1113,-4.0912,-4.0966,-4.1052,-4.095,-4.0867,-4.0765,-4.0662,-4.0558,-4.0505,-4.0489,-4.0489,-4.0489,-4.0489,-4.0489,-4.0489,-4.0489,-4.0489,-4.047,-4.042,-4.042,-4.0489,-4.0489,-4.0505,-4.0489,-4.0455,-4.0401,-4.0331,-4.0312,-4.0207,-4.0101,-3.9996,-3.996,-3.9975,-3.9975,-3.9889,-3.9803,-3.9696,-3.9625,-3.9553,-3.9445,-3.9286,-3.9213,-3.9104,-3.8995,-3.8811,-3.8649,-3.8464,-3.8277,-3.8014,-3.7825,-3.7634,-3.7303,-3.707,-3.6993,-3.6772,-3.6445,-3.6452,-3.6647,-3.696,-3.7585,-3.8141,-3.8711,-3.9169,-3.9251,-3.9305,-3.9305,-3.9305,-3.9305,-3.9305,-3.9305,-3.9305,-3.9305,-3.9305,-3.9305,-3.9305,-3.9305,-3.9305,-3.9305,-3.9305,-3.9305,-3.9305,-3.9305,-3.9305,-3.9305,-3.9305,-3.9305,-3.9305,-3.9305,-3.9305,-3.9305,-3.9261,-3.9203,-3.9261,-3.9172,-3.9114,-3.9069,-3.898,-3.8814,-3.8679,-3.8575,-3.8427,-3.8167,-3.8057,-3.7979,-3.8811,-3.9393,-3.9456,-3.9424,-3.9424,-3.9471,-3.9598,-3.9692,-3.9724,-3.9819,-3.9977,-4.0008,-4.0274,-4.1241,-4.1223,-4.1075,-4.0696,-4.0656,-4.0578,-4.0539,-4.0505,-4.0505,-4.0489,-4.0489,-4.0489,-4.0489,-4.0489,-4.0489,-4.0489,-4.0489,-4.0489,-4.0489,-4.0489,-4.0489,-4.0489,-4.0489,-4.0455,-4.0436,-4.0436,-4.0401,-4.0347,-4.0207,-4.0011,-4.0011,-4.0011,-3.996,-3.996,-3.9925,-3.9925,-3.9869,-3.9711,-3.9553,-3.9409,-3.9337,-3.9228,-3.9104,-3.8958,-3.8848,-3.8649,-3.8389,-3.8202,-3.8089,-3.7749,-3.7495,-3.7366,-3.7134,-3.6943,-3.6856,-3.7035,-3.7263,-3.7743,-3.8275,-3.8806,-3.9135,-3.9349,-3.9305,-3.9305,-3.9305,-3.9305,-3.9305,-3.9305,-3.9305,-3.9305,-3.9305,-3.9305,-3.9305,-3.9305,-3.9305,-3.9305,-3.9305,-3.9305,-3.9305,-3.9305,-3.9305,-3.9305,-3.9305,-3.9305,-3.9305,-3.9305,-3.9305,-3.9305,-3.9305,-3.9305,-3.9305,-3.9305,-3.9261,-3.9216,-3.9158,-3.9056,-3.8877,-3.8877,-3.8684,-3.8427,-3.8167,-3.8103]},{"header":{"parameterUnit":"m.s-1","parameterCategory":1,"la1":31.0,"la2":29.5877,"lo1":-88.7671,"lo2":-86.6584,"dy":0.0162,"dx":0.0185,"nx":115,"ny":88,"refTime":"2024-06-21T06:00:00:Z","depth":0,"parameterNumber":3,"parameterNumberName":"V-component_of_WINDS"},"data":[0.0,0.0,0.0,0.0,0.0,0.0,0.0,0.0,0.0,0.0,0.0,0.0,0.0,0.0,0.0,0.0,0.0,0.0,0.0,0.0,0.0,0.0,0.0,0.0,0.0,0.0,0.0,0.0,0.0,0.0,0.0,0.0,0.0,0.0,0.0,0.0,0.0,0.0,0.0,0.0,0.0,0.0,0.0,0.0,0.0,0.0,0.0,0.0,0.0,0.0,0.0,0.0,0.0,0.0,0.0,0.0,0.0,0.0,0.0,0.0,0.0,0.0,0.0,0.0,0.0,0.0,0.0,0.0,0.0,0.0,0.0,0.0,0.0,0.0,0.0,0.0,0.0,0.0,0.0,0.0,0.0,0.0,0.0,0.0,0.0,0.0,0.0,0.0,0.0,0.0,0.0,0.0,0.0,0.0,0.0,0.0,0.0,0.0,0.0,0.0,0.0,0.0,0.0,0.0,0.0,0.0,0.0,0.0,0.0,0.0,0.0,0.0,0.0,0.0,0.0,0.0,0.0,0.0,0.0,0.0,0.0,0.0,0.0,0.0,0.0,0.0,0.0,0.0,0.0,0.0,0.0,0.0,0.0,0.0,0.0,0.0,0.0,0.0,0.0,0.0,0.0,0.0,0.0,0.0,0.0,0.0,0.0,0.0,0.0,0.0,0.0,0.0,0.0,0.0,0.0,0.0,0.0,0.0,0.0,0.0,0.0,0.0,0.0,0.0,0.0,0.0,0.0,0.0,0.0,0.0,0.0,0.0,0.0,0.0,0.0,0.0,0.0,0.0,0.0,0.0,0.0,0.0,0.0,0.0,0.0,0.0,0.0,0.0,0.0,0.0,0.0,0.0,0.0,0.0,0.0,0.0,0.0,0.0,0.0,0.0,0.0,0.0,0.0,0.0,0.0,0.0,0.0,0.0,0.0,0.0,0.0,0.0,0.0,0.0,0.0,0.0,0.0,0.0,0.0,0.0,0.0,0.0,0.0,0.0,0.0,0.0,0.0,0.0,0.0,0.0,0.0,0.0,0.0,0.0,0.0,0.0,0.0,0.0,0.0,0.0,0.0,0.0,0.0,0.0,0.0,0.0,0.0,0.0,0.0,0.0,0.0,0.0,0.0,0.0,0.0,0.0,0.0,0.0,0.0,0.0,0.0,0.0,0.0,0.0,0.0,0.0,0.0,0.0,0.0,0.0,0.0,0.0,0.0,0.0,0.0,0.0,0.0,0.0,0.0,0.0,0.0,0.0,0.0,0.0,0.0,0.0,0.0,0.0,0.0,0.0,0.0,0.0,0.0,0.0,0.0,0.0,0.0,0.0,0.0,0.0,0.0,0.0,0.0,0.0,0.0,0.0,0.0,0.0,0.0,0.0,0.0,0.0,0.0,0.0,0.0,0.0,0.0,0.0,0.0,0.0,0.0,0.0,0.0,0.0,0.0,0.0,0.0,0.0,0.0,0.0,0.0,0.0,0.0,0.0,0.0,0.0,0.0,0.0,0.0,0.0,0.0,0.0,0.0,0.0,0.0,0.0,0.0,0.0,0.0,0.0,0.0,0.0,0.0,0.0,0.0,0.0,0.0,0.0,0.0,0.0,0.0,0.0,0.0,0.0,0.0,0.0,0.0,0.0,0.0,0.0,0.0,0.0,0.0,0.0,0.0,0.0,0.0,0.0,0.0,0.0,0.0,0.0,0.0,0.0,0.0,0.0,0.0,0.0,0.0,0.0,0.0,0.0,0.0,0.0,0.0,0.0,0.0,0.0,0.0,0.0,0.0,0.0,0.0,0.0,0.0,0.0,0.0,0.0,0.0,0.0,0.0,0.0,0.0,0.0,0.0,0.0,0.0,0.0,0.0,0.0,0.0,0.0,0.0,0.0,0.0,0.0,0.0,0.0,0.0,0.0,0.0,0.0,0.0,0.0,0.0,0.0,0.0,0.0,0.0,0.0,0.0,0.0,0.0,0.0,0.0,0.0,0.0,0.0,0.0,0.0,0.0,0.0,0.0,0.0,0.0,0.0,0.0,0.0,0.0,0.0,0.0,0.0,0.0,0.0,0.0,0.0,0.0,0.0,0.0,0.0,0.0,0.0,0.0,0.0,0.0,0.0,0.0,0.0,0.0,0.0,0.0,0.0,0.0,0.0,0.0,0.0,0.0,0.0,0.0,0.0,0.0,0.0,0.0,0.0,0.0,0.0,0.0,0.0,0.0,0.0,0.0,0.0,0.0,0.0,0.0,0.0,0.0,0.0,0.0,0.0,0.0,0.0,0.0,0.0,0.0,0.0,0.0,0.0,0.0,0.0,0.0,0.0,0.0,0.0,0.0,0.0,0.0,0.0,0.0,0.0,0.0,0.0,0.0,0.0,0.0,0.0,0.0,0.0,0.0,0.0,0.0,0.0,0.0,0.0,0.0,0.0,0.0,0.0,0.0,0.0,0.0,0.0,0.0,0.0,0.0,0.0,0.0,0.0,0.0,0.0,0.0,0.0,0.0,0.0,0.0,0.0,0.0,0.0,0.0,0.0,0.0,0.0,0.0,0.0,0.0,0.0,0.0,0.0,0.0,0.0,0.0,0.0,0.0,0.0,0.0,0.0,0.0,0.0,0.0,0.0,0.0,0.0,0.0,0.0,0.0,0.0,0.0,0.0,0.0,0.0,0.0,0.0,0.0,0.0,0.0,0.0,0.0,0.0,0.0,0.0,0.0,0.0,0.0,0.0,0.0,0.0,0.0,0.0,0.0,0.0,0.0,0.0,0.0,0.0,0.0,0.0,0.0,0.0,0.0,0.0,0.0,0.0,0.0,0.0,0.0,0.0,0.0,0.0,0.0,0.0,0.0,0.0,0.0,0.0,0.0,0.0,0.0,0.0,0.0,0.0,0.0,0.0,0.0,0.0,0.0,0.0,0.0,0.0,0.0,0.0,0.0,0.0,0.0,0.0,0.0,0.0,0.0,0.0,0.0,0.0,0.0,0.0,0.0,0.0,0.0,0.0,0.0,0.0,0.0,0.0,0.0,0.0,0.0,0.0,0.0,0.0,0.0,0.0,0.0,0.0,0.0,0.0,0.0,0.0,0.0,0.0,0.0,0.0,0.0,0.0,0.0,0.0,0.0,0.0,0.0,0.0,0.0,0.0,0.0,0.0,0.0,0.0,0.0,0.0,0.0,0.0,0.0,0.0,0.0,0.0,0.0,0.0,0.0,0.0,0.0,0.0,0.0,0.0,0.0,0.0,0.0,0.0,0.0,0.0,0.0,0.0,0.0,0.0,0.0,0.0,0.0,0.0,0.0,0.0,0.0,0.0,0.0,0.0,0.0,0.0,0.0,0.0,0.0,0.0,0.0,0.0,0.0,0.0,0.0,0.0,0.0,0.0,0.0,0.0,0.0,0.0,0.0,0.0,0.0,0.0,0.0,0.0,0.0,0.0,0.0,0.0,0.0,0.0,0.0,0.0,0.0,0.0,0.0,0.0,0.0,0.0,0.0,0.0,0.0,0.0,0.0,0.0,0.0,0.0,0.0,0.0,0.0,0.0,0.0,0.0,0.0,0.0,0.0,0.0,0.0,0.0,0.0,0.0,0.0,0.0,0.0,0.0,0.0,0.0,0.0,0.0,0.0,0.0,0.0,0.0,0.0,0.0,0.0,0.0,0.0,0.0,0.0,0.0,0.0,0.0,0.0,0.0,0.0,0.0,0.0,0.0,0.0,0.0,0.0,0.0,0.0,0.0,0.0,0.0,0.0,0.0,0.0,0.0,0.0,0.0,0.0,0.0,0.0,0.0,0.0,0.0,0.0,0.0,0.0,0.0,0.0,0.0,0.0,0.0,0.0,0.0,0.0,0.0,0.0,0.0,0.0,0.0,0.0,0.0,0.0,0.0,0.0,0.0,0.0,0.0,0.0,0.0,0.0,0.0,0.0,0.0,0.0,0.0,0.0,0.0,0.0,0.0,0.0,0.0,0.0,0.0,0.0,0.0,0.0,0.0,0.0,0.0,0.0,0.0,0.0,0.0,0.0,0.0,0.0,0.0,0.0,0.0,0.0,0.0,0.0,0.0,0.0,0.0,0.0,0.0,0.0,0.0,0.0,0.0,0.0,0.0,0.0,0.0,0.0,0.0,0.0,0.0,0.0,0.0,0.0,0.0,0.0,0.0,0.0,0.0,0.0,0.0,0.0,0.0,0.0,0.0,0.0,0.0,0.0,0.0,0.0,0.0,0.0,0.0,0.0,0.0,0.0,0.0,0.0,0.0,0.0,0.0,0.0,0.0,0.0,0.0,-1.8498,0.0,0.0,0.0,0.0,0.0,0.0,0.0,0.0,0.0,0.0,0.0,0.0,0.0,0.0,0.0,0.0,0.0,0.0,0.0,0.0,0.0,0.0,0.0,0.0,0.0,0.0,0.0,0.0,0.0,0.0,0.0,0.0,0.0,0.0,0.0,0.0,0.0,0.0,0.0,0.0,0.0,0.0,0.0,0.0,0.0,0.0,0.0,0.0,0.0,0.0,0.0,0.0,0.0,0.0,0.0,0.0,0.0,0.0,0.0,0.0,0.0,0.0,0.0,0.0,0.0,0.0,0.0,0.0,0.0,0.0,0.0,0.0,0.0,0.0,0.0,0.0,0.0,0.0,0.0,0.0,0.0,0.0,0.0,0.0,0.0,0.0,0.0,0.0,0.0,0.0,0.0,0.0,0.0,0.0,0.0,0.0,0.0,0.0,0.0,0.0,0.0,0.0,0.0,0.0,0.0,0.0,0.0,0.0,0.0,0.0,-1.8498,-1.8498,-1.8498,-1.8498,-1.8498,0.0,0.0,0.0,0.0,0.0,0.0,0.0,0.0,0.0,0.0,0.0,0.0,0.0,0.0,0.0,0.0,0.0,0.0,0.0,0.0,0.0,0.0,0.0,0.0,0.0,0.0,0.0,0.0,0.0,0.0,0.0,0.0,0.0,0.0,0.0,0.0,0.0,0.0,0.0,0.0,0.0,0.0,0.0,0.0,0.0,0.0,0.0,0.0,0.0,0.0,0.0,0.0,0.0,0.0,0.0,0.0,0.0,0.0,0.0,0.0,0.0,0.0,0.0,0.0,0.0,0.0,0.0,0.0,0.0,0.0,0.0,0.0,0.0,0.0,0.0,0.0,0.0,0.0,0.0,0.0,0.0,0.0,0.0,0.0,0.0,0.0,0.0,0.0,0.0,0.0,0.0,0.0,0.0,0.0,0.0,0.0,0.0,0.0,0.0,0.0,0.0,0.0,0.0,0.0,0.0,0.0,0.0,0.0,0.0,0.0,0.0,0.0,-1.8779,-1.8638,-1.8512,0.0,0.0,0.0,0.0,0.0,0.0,0.0,0.0,0.0,0.0,0.0,0.0,0.0,0.0,0.0,0.0,0.0,0.0,0.0,0.0,0.0,0.0,0.0,0.0,0.0,0.0,0.0,0.0,0.0,0.0,0.0,0.0,0.0,0.0,0.0,0.0,0.0,0.0,0.0,0.0,0.0,0.0,0.0,0.0,0.0,0.0,0.0,0.0,0.0,0.0,0.0,0.0,0.0,0.0,0.0,0.0,0.0,0.0,0.0,0.0,0.0,0.0,0.0,0.0,0.0,0.0,0.0,0.0,0.0,0.0,0.0,0.0,0.0,0.0,0.0,0.0,0.0,0.0,0.0,0.0,0.0,0.0,0.0,0.0,0.0,0.0,0.0,0.0,0.0,0.0,0.0,0.0,0.0,0.0,0.0,0.0,0.0,0.0,0.0,0.0,0.0,0.0,0.0,0.0,0.0,0.0,0.0,0.0,0.0,0.0,-1.9607,-2.0203,-1.9635,0.0,-1.8554,0.0,0.0,0.0,0.0,0.0,0.0,0.0,0.0,0.0,0.0,0.0,0.0,0.0,0.0,0.0,0.0,0.0,0.0,0.0,0.0,0.0,0.0,0.0,0.0,0.0,0.0,0.0,0.0,0.0,0.0,0.0,0.0,0.0,0.0,0.0,0.0,0.0,0.0,0.0,0.0,0.0,0.0,0.0,0.0,0.0,0.0,0.0,0.0,0.0,0.0,0.0,0.0,0.0,0.0,0.0,0.0,0.0,0.0,0.0,0.0,0.0,0.0,0.0,0.0,0.0,0.0,0.0,0.0,0.0,0.0,0.0,0.0,0.0,0.0,0.0,0.0,0.0,0.0,0.0,0.0,0.0,0.0,0.0,0.0,0.0,0.0,0.0,0.0,0.0,0.0,0.0,0.0,0.0,0.0,0.0,0.0,0.0,0.0,0.0,0.0,0.0,0.0,0.0,0.0,0.0,0.0,0.0,0.0,0.0,0.0,0.0,-2.0386,-1.9747,-1.9277,0.0,0.0,0.0,0.0,0.0,0.0,0.0,0.0,0.0,0.0,0.0,0.0,0.0,0.0,0.0,0.0,0.0,0.0,0.0,0.0,0.0,0.0,0.0,0.0,0.0,0.0,0.0,0.0,0.0,0.0,0.0,0.0,0.0,0.0,0.0,0.0,0.0,0.0,0.0,0.0,0.0,0.0,0.0,0.0,0.0,0.0,0.0,0.0,0.0,0.0,0.0,0.0,0.0,0.0,0.0,0.0,0.0,0.0,0.0,0.0,0.0,0.0,0.0,0.0,0.0,0.0,0.0,0.0,0.0,0.0,0.0,0.0,0.0,0.0,0.0,0.0,0.0,0.0,0.0,0.0,0.0,0.0,0.0,0.0,0.0,0.0,0.0,0.0,0.0,0.0,0.0,0.0,0.0,0.0,0.0,0.0,0.0,0.0,0.0,0.0,0.0,0.0,0.0,0.0,0.0,0.0,0.0,0.0,0.0,0.0,-2.0316,0.0,-2.0632,-2.0,-1.9593,-1.9451,0.0,0.0,0.0,0.0,0.0,0.0,0.0,0.0,0.0,0.0,0.0,0.0,0.0,0.0,0.0,0.0,0.0,0.0,0.0,0.0,0.0,0.0,0.0,0.0,0.0,0.0,0.0,0.0,0.0,0.0,0.0,0.0,0.0,0.0,0.0,0.0,0.0,0.0,0.0,0.0,0.0,0.0,0.0,0.0,0.0,0.0,0.0,0.0,0.0,0.0,0.0,0.0,0.0,0.0,0.0,0.0,0.0,0.0,0.0,0.0,0.0,0.0,0.0,0.0,0.0,0.0,0.0,0.0,0.0,0.0,0.0,0.0,0.0,0.0,0.0,0.0,0.0,0.0,0.0,0.0,0.0,0.0,0.0,0.0,0.0,0.0,0.0,0.0,0.0,0.0,0.0,0.0,0.0,0.0,0.0,0.0,0.0,0.0,0.0,0.0,0.0,0.0,0.0,0.0,0.0,0.0,0.0,0.0,0.0,-2.0942,-2.1251,-2.126,-2.0689,-2.0119,0.0,0.0,0.0,0.0,0.0,0.0,0.0,0.0,0.0,0.0,0.0,0.0,0.0,0.0,0.0,0.0,0.0,0.0,0.0,0.0,0.0,0.0,0.0,0.0,0.0,0.0,0.0,0.0,0.0,0.0,0.0,0.0,0.0,0.0,0.0,0.0,0.0,0.0,0.0,0.0,0.0,0.0,0.0,0.0,0.0,0.0,0.0,0.0,0.0,0.0,0.0,0.0,0.0,0.0,0.0,0.0,0.0,0.0,0.0,0.0,0.0,0.0,0.0,0.0,0.0,0.0,0.0,0.0,0.0,0.0,0.0,0.0,0.0,0.0,0.0,0.0,0.0,0.0,0.0,0.0,0.0,0.0,0.0,0.0,0.0,0.0,0.0,0.0,0.0,0.0,0.0,0.0,0.0,0.0,0.0,0.0,0.0,0.0,0.0,0.0,0.0,0.0,0.0,0.0,0.0,0.0,0.0,0.0,0.0,-2.1145,-2.18,-2.2136,0.0,-2.1516,-2.0905,0.0,0.0,0.0,0.0,0.0,0.0,0.0,0.0,0.0,0.0,0.0,0.0,0.0,0.0,0.0,0.0,0.0,0.0,0.0,0.0,0.0,0.0,0.0,0.0,0.0,0.0,0.0,0.0,0.0,0.0,0.0,0.0,0.0,0.0,0.0,0.0,0.0,0.0,0.0,0.0,0.0,0.0,0.0,0.0,0.0,0.0,0.0,0.0,0.0,0.0,0.0,0.0,0.0,0.0,0.0,0.0,0.0,0.0,0.0,0.0,0.0,0.0,0.0,0.0,0.0,0.0,0.0,0.0,0.0,0.0,0.0,0.0,0.0,0.0,0.0,0.0,0.0,0.0,0.0,0.0,0.0,0.0,0.0,0.0,0.0,0.0,0.0,0.0,0.0,0.0,0.0,0.0,0.0,0.0,0.0,0.0,0.0,0.0,0.0,0.0,0.0,0.0,0.0,0.0,0.0,0.0,0.0,0.0,0.0,-2.2189,0.0,-2.3107,0.0,-2.2255,-2.1563,0.0,0.0,0.0,0.0,0.0,0.0,0.0,0.0,0.0,0.0,0.0,0.0,0.0,0.0,0.0,0.0,0.0,0.0,0.0,0.0,0.0,0.0,0.0,0.0,0.0,0.0,0.0,0.0,0.0,0.0,0.0,0.0,0.0,0.0,0.0,0.0,0.0,0.0,0.0,0.0,0.0,0.0,0.0,0.0,0.0,0.0,0.0,0.0,0.0,0.0,0.0,0.0,0.0,0.0,0.0,0.0,0.0,0.0,0.0,0.0,0.0,0.0,0.0,0.0,0.0,0.0,0.0,0.0,0.0,0.0,0.0,0.0,0.0,0.0,0.0,0.0,0.0,0.0,0.0,0.0,0.0,0.0,0.0,0.0,0.0,0.0,0.0,0.0,0.0,0.0,0.0,0.0,0.0,0.0,0.0,0.0,0.0,0.0,0.0,0.0,0.0,0.0,0.0,0.0,0.0,0.0,0.0,0.0,-2.1683,-2.344,-2.4136,-2.4136,-2.3526,-2.2958,-2.205,0.0,0.0,0.0,0.0,0.0,0.0,0.0,0.0,0.0,0.0,0.0,0.0,0.0,0.0,0.0,0.0,0.0,0.0,0.0,0.0,0.0,0.0,0.0,0.0,0.0,0.0,0.0,0.0,0.0,0.0,0.0,0.0,0.0,0.0,0.0,0.0,0.0,0.0,0.0,0.0,0.0,0.0,0.0,0.0,0.0,0.0,0.0,0.0,0.0,0.0,0.0,0.0,0.0,0.0,0.0,0.0,0.0,0.0,0.0,0.0,0.0,0.0,0.0,0.0,0.0,0.0,0.0,0.0,0.0,0.0,0.0,0.0,0.0,0.0,0.0,0.0,0.0,0.0,0.0,0.0,0.0,0.0,0.0,0.0,0.0,0.0,0.0,0.0,0.0,0.0,0.0,0.0,0.0,0.0,0.0,0.0,0.0,0.0,0.0,0.0,0.0,0.0,0.0,0.0,0.0,0.0,0.0,0.0,0.0,-2.5055,-2.4842,-2.4828,-2.504,-2.4057,-2.3103,0.0,0.0,0.0,0.0,0.0,0.0,0.0,0.0,0.0,0.0,0.0,0.0,0.0,0.0,0.0,0.0,0.0,0.0,0.0,0.0,0.0,0.0,0.0,0.0,0.0,0.0,0.0,0.0,0.0,0.0,0.0,0.0,0.0,0.0,0.0,0.0,0.0,0.0,0.0,0.0,0.0,0.0,0.0,0.0,0.0,0.0,0.0,0.0,0.0,0.0,0.0,0.0,0.0,0.0,0.0,0.0,0.0,0.0,0.0,0.0,0.0,0.0,0.0,0.0,0.0,0.0,0.0,0.0,0.0,0.0,0.0,0.0,0.0,0.0,0.0,0.0,0.0,0.0,0.0,0.0,0.0,0.0,0.0,0.0,0.0,0.0,0.0,0.0,0.0,0.0,0.0,0.0,0.0,0.0,0.0,0.0,0.0,0.0,0.0,0.0,0.0,0.0,0.0,0.0,0.0,0.0,0.0,0.0,0.0,-2.7157,-2.6591,-2.6344,-2.6504,-2.5517,-2.4442,-2.3302,0.0,0.0,0.0,0.0,0.0,0.0,0.0,0.0,0.0,0.0,0.0,0.0,0.0,0.0,0.0,0.0,0.0,0.0,0.0,0.0,0.0,0.0,0.0,0.0,0.0,0.0,0.0,0.0,0.0,0.0,0.0,0.0,0.0,0.0,0.0,0.0,0.0,0.0,0.0,0.0,0.0,0.0,0.0,0.0,0.0,0.0,0.0,0.0,0.0,0.0,0.0,0.0,0.0,0.0,0.0,0.0,0.0,0.0,0.0,0.0,0.0,0.0,0.0,0.0,0.0,0.0,0.0,0.0,0.0,0.0,0.0,0.0,0.0,0.0,0.0,0.0,0.0,0.0,0.0,0.0,0.0,0.0,0.0,0.0,0.0,0.0,0.0,0.0,0.0,0.0,0.0,0.0,0.0,0.0,0.0,0.0,0.0,0.0,0.0,0.0,0.0,0.0,0.0,0.0,0.0,0.0,0.0,0.0,-2.9566,-2.9073,-2.8434,-2.7753,-2.7113,-2.5919,0.0,0.0,0.0,0.0,0.0,0.0,0.0,0.0,0.0,0.0,0.0,0.0,0.0,0.0,0.0,0.0,0.0,0.0,0.0,0.0,0.0,0.0,0.0,0.0,0.0,0.0,0.0,0.0,0.0,0.0,0.0,0.0,0.0,0.0,0.0,0.0,0.0,0.0,0.0,0.0,0.0,0.0,0.0,0.0,0.0,0.0,0.0,0.0,0.0,0.0,0.0,0.0,0.0,0.0,0.0,0.0,0.0,0.0,0.0,0.0,0.0,0.0,0.0,0.0,0.0,0.0,0.0,0.0,0.0,0.0,0.0,0.0,0.0,0.0,0.0,0.0,0.0,0.0,0.0,0.0,0.0,0.0,0.0,0.0,0.0,0.0,0.0,0.0,0.0,0.0,0.0,0.0,0.0,0.0,0.0,0.0,0.0,0.0,0.0,0.0,0.0,0.0,0.0,0.0,0.0,0.0,0.0,0.0,0.0,-2.9537,-2.9914,-2.9581,-2.8463,-2.7387,-2.6148,0.0,0.0,0.0,0.0,0.0,0.0,0.0,0.0,0.0,0.0,0.0,0.0,0.0,0.0,0.0,0.0,0.0,0.0,0.0,0.0,0.0,0.0,0.0,0.0,0.0,0.0,0.0,0.0,0.0,0.0,0.0,0.0,0.0,0.0,0.0,0.0,0.0,0.0,0.0,0.0,0.0,0.0,0.0,0.0,0.0,0.0,0.0,0.0,0.0,0.0,0.0,0.0,0.0,0.0,0.0,0.0,0.0,0.0,0.0,0.0,0.0,0.0,0.0,0.0,0.0,0.0,0.0,0.0,0.0,0.0,0.0,0.0,0.0,0.0,0.0,0.0,0.0,0.0,0.0,0.0,0.0,0.0,0.0,0.0,0.0,0.0,0.0,0.0,0.0,0.0,0.0,0.0,0.0,0.0,0.0,0.0,0.0,0.0,0.0,0.0,0.0,0.0,0.0,0.0,0.0,0.0,0.0,0.0,-2.8753,-2.9987,-3.0379,-3.0118,-2.9087,-2.8361,-2.7297,0.0,0.0,0.0,0.0,0.0,0.0,0.0,0.0,0.0,0.0,0.0,0.0,0.0,0.0,0.0,0.0,0.0,0.0,0.0,0.0,0.0,0.0,0.0,0.0,0.0,0.0,0.0,0.0,0.0,0.0,0.0,0.0,0.0,0.0,0.0,0.0,0.0,0.0,0.0,0.0,0.0,0.0,0.0,0.0,0.0,0.0,0.0,0.0,0.0,0.0,0.0,0.0,0.0,0.0,0.0,0.0,0.0,0.0,0.0,0.0,0.0,0.0,0.0,0.0,0.0,0.0,0.0,0.0,0.0,0.0,0.0,0.0,0.0,0.0,0.0,0.0,0.0,0.0,0.0,0.0,0.0,0.0,0.0,0.0,0.0,0.0,0.0,0.0,0.0,0.0,0.0,0.0,0.0,0.0,0.0,0.0,0.0,0.0,0.0,0.0,0.0,0.0,0.0,0.0,0.0,0.0,0.0,0.0,-2.9392,-3.0569,-3.0612,-3.0336,-2.9726,-2.9624,-2.8738,0.0,0.0,0.0,0.0,0.0,0.0,0.0,0.0,0.0,0.0,0.0,0.0,0.0,0.0,0.0,0.0,0.0,0.0,0.0,0.0,0.0,0.0,0.0,0.0,0.0,0.0,0.0,0.0,0.0,0.0,0.0,0.0,0.0,0.0,0.0,0.0,0.0,0.0,0.0,0.0,0.0,0.0,0.0,0.0,0.0,0.0,0.0,0.0,0.0,0.0,0.0,0.0,0.0,0.0,0.0,0.0,0.0,0.0,0.0,0.0,0.0,0.0,0.0,0.0,0.0,0.0,0.0,0.0,0.0,0.0,0.0,0.0,0.0,0.0,0.0,0.0,0.0,0.0,0.0,0.0,0.0,0.0,0.0,0.0,0.0,0.0,0.0,0.0,0.0,0.0,0.0,0.0,0.0,0.0,0.0,0.0,0.0,0.0,0.0,0.0,0.0,0.0,0.0,0.0,0.0,0.0,0.0,0.0,-2.9944,-3.0583,-3.0612,-3.0539,-3.0409,-2.9885,-2.8794,0.0,0.0,0.0,0.0,0.0,0.0,0.0,0.0,0.0,0.0,0.0,0.0,0.0,0.0,0.0,0.0,0.0,0.0,0.0,0.0,0.0,0.0,0.0,0.0,0.0,0.0,0.0,0.0,0.0,0.0,0.0,0.0,0.0,0.0,0.0,0.0,0.0,0.0,0.0,0.0,0.0,0.0,0.0,0.0,0.0,0.0,0.0,0.0,-2.3026,0.0,0.0,0.0,0.0,0.0,0.0,0.0,0.0,0.0,0.0,0.0,0.0,0.0,0.0,0.0,0.0,0.0,0.0,0.0,0.0,0.0,0.0,0.0,0.0,0.0,0.0,0.0,0.0,0.0,0.0,0.0,0.0,0.0,0.0,0.0,0.0,0.0,0.0,0.0,0.0,0.0,0.0,0.0,0.0,0.0,0.0,0.0,0.0,0.0,0.0,0.0,0.0,0.0,0.0,0.0,0.0,0.0,0.0,0.0,-3.0119,-3.0583,-3.0612,-3.0612,-3.0598,-3.0308,-2.9345,0.0,0.0,0.0,0.0,0.0,0.0,0.0,0.0,0.0,0.0,0.0,0.0,0.0,0.0,0.0,0.0,0.0,0.0,0.0,0.0,0.0,0.0,0.0,0.0,0.0,0.0,0.0,0.0,0.0,0.0,0.0,0.0,0.0,0.0,0.0,0.0,0.0,0.0,0.0,0.0,0.0,0.0,0.0,0.0,0.0,0.0,0.0,0.0,0.0,0.0,0.0,0.0,0.0,0.0,0.0,0.0,0.0,0.0,0.0,0.0,0.0,0.0,0.0,0.0,0.0,0.0,0.0,0.0,0.0,0.0,0.0,0.0,0.0,0.0,0.0,0.0,0.0,0.0,0.0,0.0,0.0,0.0,0.0,0.0,0.0,0.0,0.0,0.0,0.0,0.0,0.0,0.0,0.0,0.0,0.0,0.0,0.0,0.0,0.0,0.0,0.0,0.0,0.0,0.0,0.0,0.0,0.0,-2.9427,-3.0251,-3.0569,-3.0612,-3.0612,-3.0612,-3.0674,-2.9928,-2.8319,0.0,0.0,0.0,0.0,0.0,0.0,0.0,0.0,0.0,0.0,0.0,0.0,0.0,0.0,0.0,0.0,0.0,0.0,0.0,0.0,0.0,0.0,0.0,0.0,0.0,0.0,0.0,0.0,0.0,0.0,0.0,0.0,0.0,0.0,0.0,0.0,0.0,0.0,-2.2539,-2.3349,0.0,0.0,0.0,0.0,0.0,0.0,0.0,0.0,-2.4144,0.0,0.0,0.0,0.0,0.0,0.0,0.0,0.0,0.0,0.0,0.0,0.0,0.0,0.0,0.0,0.0,0.0,0.0,0.0,0.0,0.0,0.0,0.0,0.0,0.0,0.0,0.0,0.0,0.0,0.0,0.0,0.0,0.0,0.0,0.0,0.0,0.0,0.0,0.0,0.0,0.0,0.0,0.0,0.0,0.0,0.0,0.0,0.0,0.0,0.0,0.0,0.0,0.0,0.0,0.0,0.0,-2.8113,-2.9939,-3.0822,-3.0598,-3.0612,-3.0612,-3.0583,-3.0368,-2.9793,-2.8965,0.0,0.0,0.0,0.0,0.0,0.0,0.0,0.0,0.0,0.0,0.0,0.0,0.0,0.0,0.0,0.0,0.0,0.0,0.0,0.0,0.0,0.0,0.0,0.0,0.0,0.0,0.0,0.0,0.0,0.0,0.0,0.0,0.0,0.0,0.0,0.0,0.0,0.0,0.0,-2.479,-2.5486,0.0,0.0,0.0,0.0,0.0,0.0,0.0,0.0,-2.6571,0.0,0.0,0.0,0.0,0.0,0.0,0.0,0.0,0.0,0.0,0.0,0.0,0.0,0.0,0.0,0.0,0.0,0.0,0.0,0.0,0.0,0.0,0.0,0.0,0.0,0.0,0.0,0.0,0.0,0.0,0.0,0.0,0.0,0.0,0.0,0.0,0.0,0.0,0.0,0.0,0.0,0.0,0.0,0.0,0.0,0.0,0.0,0.0,0.0,0.0,0.0,0.0,0.0,0.0,0.0,-2.867,-3.0247,-3.0925,-3.0612,-3.0612,-3.0612,-3.0598,-3.0617,-3.0129,0.0,0.0,0.0,0.0,0.0,0.0,0.0,0.0,0.0,0.0,0.0,0.0,0.0,0.0,0.0,0.0,0.0,0.0,0.0,0.0,0.0,0.0,0.0,0.0,0.0,0.0,0.0,0.0,0.0,0.0,0.0,0.0,0.0,0.0,0.0,0.0,0.0,0.0,0.0,0.0,-2.5713,-2.6426,-2.7122,0.0,0.0,0.0,0.0,0.0,0.0,-2.7948,-2.7608,0.0,0.0,0.0,0.0,0.0,0.0,0.0,0.0,0.0,0.0,0.0,0.0,0.0,0.0,0.0,0.0,0.0,0.0,0.0,0.0,0.0,0.0,0.0,0.0,0.0,0.0,0.0,0.0,0.0,0.0,0.0,0.0,0.0,0.0,0.0,0.0,0.0,0.0,0.0,0.0,0.0,0.0,0.0,0.0,0.0,0.0,0.0,0.0,0.0,0.0,0.0,0.0,0.0,0.0,0.0,-2.9098,-3.0409,-3.0955,-3.0642,-3.0612,-3.0612,-3.0612,-3.0925,-3.0395,0.0,0.0,0.0,0.0,0.0,0.0,0.0,0.0,0.0,0.0,0.0,0.0,0.0,0.0,0.0,0.0,0.0,0.0,0.0,0.0,0.0,0.0,0.0,0.0,0.0,0.0,0.0,0.0,0.0,0.0,0.0,0.0,0.0,0.0,0.0,0.0,0.0,0.0,0.0,0.0,0.0,-2.7591,-2.8271,-2.8477,0.0,0.0,0.0,0.0,-2.934,-2.8951,0.0,0.0,0.0,0.0,0.0,0.0,0.0,0.0,0.0,0.0,0.0,0.0,0.0,0.0,0.0,0.0,0.0,0.0,0.0,0.0,0.0,0.0,0.0,0.0,0.0,0.0,0.0,0.0,0.0,0.0,0.0,0.0,0.0,0.0,0.0,0.0,0.0,0.0,0.0,0.0,0.0,0.0,0.0,0.0,0.0,0.0,0.0,0.0,0.0,0.0,0.0,0.0,0.0,0.0,0.0,0.0,-2.9098,-3.0438,-3.0955,-3.0628,-3.0612,-3.0612,-3.0612,-3.0925,-3.0174,0.0,0.0,0.0,0.0,0.0,0.0,0.0,0.0,0.0,0.0,0.0,0.0,0.0,0.0,0.0,0.0,0.0,0.0,0.0,0.0,0.0,0.0,0.0,0.0,0.0,0.0,0.0,0.0,0.0,0.0,0.0,0.0,0.0,0.0,0.0,0.0,0.0,0.0,0.0,0.0,0.0,-2.9783,-3.0435,-3.1082,-3.151,0.0,0.0,0.0,-3.1623,-3.1558,0.0,0.0,0.0,0.0,0.0,0.0,0.0,0.0,0.0,0.0,0.0,0.0,0.0,0.0,0.0,0.0,0.0,0.0,0.0,0.0,0.0,0.0,0.0,0.0,0.0,0.0,0.0,0.0,0.0,0.0,0.0,0.0,0.0,0.0,0.0,0.0,0.0,0.0,0.0,0.0,0.0,0.0,0.0,0.0,0.0,0.0,0.0,0.0,0.0,0.0,0.0,0.0,0.0,0.0,0.0,-2.8088,-2.911,-3.0438,-3.0925,-3.0612,-3.0612,-3.0612,-3.0612,-3.091,-3.0159,0.0,0.0,0.0,0.0,0.0,0.0,0.0,0.0,0.0,0.0,0.0,0.0,0.0,0.0,0.0,0.0,0.0,0.0,0.0,0.0,0.0,0.0,0.0,0.0,0.0,0.0,0.0,0.0,0.0,0.0,0.0,0.0,0.0,0.0,0.0,0.0,0.0,0.0,0.0,0.0,0.0,0.0,-3.1357,-3.1794,0.0,0.0,0.0,-3.2287,-3.308,0.0,0.0,0.0,0.0,0.0,0.0,0.0,0.0,0.0,0.0,0.0,0.0,0.0,0.0,0.0,0.0,0.0,0.0,0.0,0.0,0.0,0.0,0.0,0.0,0.0,0.0,0.0,0.0,0.0,0.0,0.0,0.0,0.0,0.0,0.0,0.0,0.0,0.0,0.0,0.0,0.0,0.0,0.0,0.0,0.0,0.0,0.0,0.0,0.0,0.0,0.0,0.0,0.0,0.0,0.0,0.0,0.0,-2.9083,-3.0409,-3.0955,-3.0598,-3.0612,-3.0612,-3.0598,-3.0764,0.0,0.0,0.0,0.0,0.0,0.0,0.0,0.0,0.0,0.0,0.0,0.0,0.0,0.0,0.0,0.0,0.0,0.0,0.0,0.0,0.0,0.0,0.0,0.0,0.0,0.0,0.0,-1.6354,0.0,0.0,0.0,0.0,0.0,0.0,0.0,0.0,0.0,0.0,0.0,0.0,0.0,0.0,-3.1225,-3.2595,-3.2805,-3.3048,0.0,0.0,-3.3453,-3.4489,-3.3615,-3.2935,0.0,0.0,0.0,0.0,0.0,0.0,0.0,0.0,0.0,0.0,0.0,0.0,0.0,0.0,0.0,0.0,0.0,0.0,0.0,0.0,0.0,0.0,0.0,0.0,0.0,0.0,0.0,0.0,0.0,0.0,0.0,0.0,0.0,0.0,0.0,0.0,0.0,0.0,0.0,0.0,0.0,0.0,0.0,0.0,0.0,0.0,0.0,0.0,0.0,0.0,0.0,0.0,0.0,0.0,0.0,-2.9083,-3.0409,-3.0955,-3.0612,-3.0612,-3.0612,-3.0583,-3.0309,-2.9526,0.0,0.0,0.0,0.0,0.0,0.0,0.0,0.0,0.0,0.0,0.0,0.0,0.0,0.0,0.0,0.0,0.0,0.0,0.0,0.0,0.0,0.0,0.0,0.0,0.0,0.0,0.0,0.0,0.0,0.0,0.0,0.0,0.0,0.0,0.0,0.0,0.0,0.0,0.0,0.0,0.0,-3.3396,-3.4806,-3.5001,-3.526,0.0,0.0,-3.606,-3.6141,-3.5493,-3.4774,-3.4133,0.0,0.0,0.0,0.0,0.0,0.0,0.0,0.0,0.0,0.0,0.0,0.0,0.0,0.0,0.0,0.0,0.0,0.0,0.0,0.0,0.0,0.0,0.0,0.0,0.0,0.0,0.0,0.0,0.0,0.0,0.0,0.0,0.0,0.0,0.0,0.0,0.0,0.0,0.0,0.0,0.0,0.0,0.0,0.0,0.0,0.0,0.0,0.0,0.0,0.0,0.0,0.0,0.0,-2.8714,-2.9717,-3.0631,-3.1116,-3.115,-3.0771,-3.0756,-3.1148,-3.0866,-2.9894,0.0,0.0,0.0,0.0,0.0,0.0,0.0,0.0,0.0,0.0,0.0,0.0,0.0,0.0,0.0,0.0,0.0,0.0,0.0,0.0,0.0,0.0,0.0,0.0,0.0,0.0,0.0,0.0,-1.9155,-2.0321,-2.1471,0.0,0.0,0.0,0.0,0.0,0.0,0.0,0.0,0.0,0.0,-3.4068,-3.5082,-3.5574,0.0,0.0,-3.6562,-3.6448,-3.6842,-3.6335,-3.5785,-3.5493,-3.4489,0.0,0.0,0.0,0.0,0.0,0.0,0.0,0.0,0.0,0.0,0.0,0.0,0.0,0.0,0.0,0.0,0.0,0.0,0.0,0.0,0.0,0.0,0.0,0.0,0.0,0.0,0.0,0.0,0.0,0.0,0.0,0.0,0.0,0.0,0.0,0.0,0.0,0.0,0.0,0.0,0.0,0.0,0.0,0.0,0.0,0.0,0.0,0.0,0.0,0.0,0.0,0.0,-2.9005,-3.01,-3.0925,-3.1394,-3.1511,-3.1076,-3.1061,-3.1482,-3.0997,-2.9984,0.0,0.0,0.0,0.0,0.0,0.0,0.0,0.0,0.0,0.0,0.0,0.0,0.0,0.0,0.0,0.0,0.0,0.0,0.0,0.0,0.0,0.0,0.0,0.0,0.0,0.0,0.0,0.0,-2.0062,-2.1406,-2.2588,0.0,0.0,0.0,0.0,0.0,0.0,0.0,0.0,0.0,0.0,-3.4764,-3.5687,-3.627,-3.6853,-3.7533,-3.7242,-3.7112,-3.7554,-3.7036,-3.661,-3.661,0.0,0.0,0.0,0.0,0.0,0.0,0.0,0.0,0.0,0.0,0.0,0.0,0.0,0.0,0.0,0.0,0.0,0.0,0.0,0.0,0.0,0.0,0.0,0.0,0.0,0.0,0.0,0.0,0.0,0.0,-2.1844,0.0,0.0,0.0,0.0,0.0,0.0,0.0,0.0,0.0,0.0,0.0,0.0,0.0,0.0,0.0,0.0,0.0,0.0,0.0,0.0,0.0,0.0,0.0,-3.0129,-3.1204,-3.1696,-3.1555,-3.1511,-3.1511,-3.148,-3.044,-2.9606,-2.9053,0.0,0.0,0.0,0.0,0.0,0.0,0.0,0.0,0.0,0.0,0.0,0.0,0.0,0.0,0.0,0.0,0.0,0.0,0.0,0.0,0.0,0.0,0.0,0.0,0.0,0.0,-2.0192,-2.1503,-2.2653,0.0,0.0,0.0,0.0,0.0,0.0,0.0,0.0,0.0,0.0,-3.4693,-3.5671,-3.702,-3.7263,-3.7566,-3.8262,-3.8327,-3.8343,-3.8343,-3.776,-3.7263,0.0,0.0,0.0,0.0,0.0,0.0,0.0,0.0,0.0,0.0,0.0,0.0,0.0,0.0,0.0,0.0,0.0,0.0,0.0,0.0,0.0,0.0,0.0,0.0,0.0,0.0,0.0,-2.5487,-2.54,0.0,0.0,0.0,0.0,0.0,0.0,0.0,0.0,0.0,0.0,0.0,-2.8139,-2.8643,0.0,0.0,0.0,0.0,0.0,0.0,0.0,0.0,0.0,0.0,0.0,0.0,-3.0184,-3.1308,-3.1644,-3.2134,-3.2806,-3.2396,-3.2147,-3.2164,-3.1505,-3.0338,-2.8628,0.0,0.0,0.0,0.0,0.0,0.0,0.0,0.0,0.0,0.0,0.0,0.0,0.0,0.0,0.0,0.0,0.0,0.0,0.0,0.0,0.0,0.0,0.0,0.0,0.0,-2.0402,0.0,0.0,0.0,0.0,0.0,0.0,0.0,0.0,0.0,0.0,0.0,-3.3291,-3.4003,-3.5542,-3.6772,-3.7231,-3.7744,-3.8132,0.0,0.0,0.0,0.0,0.0,0.0,0.0,0.0,0.0,0.0,0.0,0.0,0.0,0.0,-3.3825,-3.2878,-3.2676,-3.27,-3.27,0.0,0.0,0.0,0.0,0.0,0.0,0.0,0.0,0.0,0.0,0.0,0.0,0.0,0.0,-2.8128,0.0,-2.6791,0.0,0.0,0.0,0.0,0.0,0.0,0.0,0.0,-3.0568,-3.08,-3.0045,-3.0512,-3.0542,0.0,-3.0309,-2.9597,0.0,0.0,0.0,0.0,0.0,0.0,0.0,0.0,-3.1117,-3.2203,-3.2343,-3.2757,-3.3431,-3.3064,-3.2745,-3.2513,-3.1654,-3.0293,-2.829,-2.6554,-2.5054,0.0,0.0,0.0,0.0,0.0,0.0,0.0,0.0,0.0,0.0,0.0,0.0,0.0,0.0,0.0,0.0,0.0,0.0,0.0,0.0,0.0,0.0,0.0,-2.1973,0.0,0.0,0.0,0.0,0.0,0.0,0.0,0.0,0.0,-3.1371,-3.2951,-3.4376,-3.5121,-3.6416,-3.7376,-3.7663,0.0,0.0,0.0,0.0,0.0,0.0,0.0,-3.9282,-3.9768,-3.9444,-3.912,-3.9136,-3.8375,-3.776,-3.776,0.0,0.0,-3.5218,-3.4862,-3.4878,-3.4862,-3.4862,-3.4878,-3.4862,-3.4862,-3.4878,0.0,0.0,0.0,0.0,0.0,0.0,0.0,0.0,-3.0641,-3.0627,0.0,-2.9319,0.0,0.0,0.0,0.0,0.0,0.0,0.0,0.0,-3.2237,-3.2524,-3.2437,-3.2483,-3.2576,-3.2691,-3.2647,-3.2052,-3.097,-2.9282,0.0,0.0,0.0,0.0,0.0,0.0,-3.1601,-3.2706,-3.3205,-3.3503,-3.3547,-3.3532,-3.318,-3.2498,-3.0968,-2.9526,-2.8201,-2.7776,-2.6372,-2.3789,-2.3194,0.0,0.0,0.0,0.0,0.0,0.0,0.0,0.0,0.0,0.0,0.0,0.0,0.0,0.0,0.0,0.0,0.0,0.0,0.0,0.0,-2.2702,0.0,0.0,0.0,0.0,0.0,0.0,0.0,0.0,0.0,0.0,-3.423,-3.4279,-3.5024,-3.702,0.0,0.0,0.0,0.0,-3.9538,-3.9538,-4.0089,-4.048,-4.048,-4.048,-4.048,-4.0529,0.0,0.0,-4.0513,-4.048,-4.0399,-4.0464,-4.0351,-3.9638,-3.695,-3.6513,-3.6497,-3.6497,-3.6529,-3.6465,-3.6448,-3.6578,-3.6546,-3.4037,0.0,0.0,0.0,0.0,-3.1961,-3.1961,-3.1961,-3.1961,-3.1975,-3.1903,-3.1076,0.0,0.0,0.0,0.0,0.0,0.0,-3.2498,-3.2295,-3.3354,-3.3398,-3.2524,-3.2977,-3.298,-3.2576,-3.2576,-3.2436,-3.2198,-3.1672,-3.0602,-2.9,0.0,0.0,0.0,0.0,-3.2623,-3.3381,-3.3467,-3.3721,-3.4138,-3.4153,-3.3616,-3.2542,-3.1349,-3.0115,-2.8876,-2.8044,-2.6782,-2.5106,-2.418,0.0,0.0,0.0,0.0,0.0,0.0,0.0,0.0,0.0,0.0,0.0,0.0,0.0,0.0,0.0,0.0,0.0,0.0,0.0,-2.2783,-2.4159,-2.5389,0.0,0.0,0.0,0.0,0.0,0.0,0.0,0.0,0.0,-3.7031,-3.7177,-3.7404,0.0,0.0,-3.9654,-3.9865,-4.0075,-4.0205,-4.0205,0.0,0.0,0.0,-4.0496,-4.0658,-4.1207,-4.1288,-4.1304,-4.1288,-4.0836,-4.0496,-4.0513,-4.0496,-4.0205,-3.9525,-3.9298,-3.9266,-3.9298,-3.9282,-3.9298,-3.9298,-3.9298,-3.9266,-3.6997,-3.5677,-3.4956,-3.437,-3.4022,-3.4037,-3.4008,-3.4022,-3.3989,-3.3989,-3.3978,-3.334,-3.2904,-3.2614,-3.1743,0.0,0.0,0.0,-3.3906,-3.4037,-3.4806,-3.4762,-3.4066,-3.4414,-3.4254,-3.3674,-3.3645,-3.3434,-3.3036,-3.3004,-3.2149,-3.0543,0.0,0.0,-3.2071,-3.2754,-3.3375,-3.3955,-3.39,-3.4037,-3.4399,-3.4167,-3.3558,-3.2542,-3.1773,-3.0793,-2.9554,-2.8788,-2.7805,-2.651,-2.5402,-2.4097,0.0,0.0,0.0,0.0,0.0,0.0,0.0,0.0,0.0,0.0,0.0,-2.1535,0.0,0.0,0.0,0.0,-2.3932,-2.4272,-2.4744,-2.6037,0.0,0.0,0.0,0.0,0.0,0.0,0.0,-3.6222,-3.6853,-3.7663,-3.9039,-3.9505,-3.9557,-3.9266,-3.9962,-4.0496,-4.0496,0.0,-4.0948,-4.0934,-4.116,-4.1338,-4.1338,-4.1338,-4.15,-4.1921,-4.2002,-4.1986,-4.197,-4.1614,-4.1355,-4.1338,-4.1338,-4.1338,-4.1338,-4.1338,-4.1112,-4.0626,-4.0496,-4.0496,-4.0496,-4.0496,-4.0496,-3.977,-3.9117,-3.736,-3.6519,-3.6388,-3.6388,-3.6344,-3.6301,-3.6286,-3.6286,-3.6272,-3.5726,-3.5111,-3.4501,-3.3307,0.0,-3.4574,-3.4574,-3.5183,-3.6286,-3.6286,-3.6286,-3.6286,-3.6286,-3.6011,-3.5479,-3.5465,-3.4884,-3.3765,-3.3678,-3.3387,-3.2817,-3.2989,-3.3289,-3.3674,-3.3747,-3.3984,-3.4399,-3.438,-3.438,-3.4366,-3.3848,-3.3224,-3.2542,-3.2227,-3.1426,-3.0174,-2.9773,-2.9019,-2.7851,-2.6704,-2.5642,-2.4632,0.0,0.0,0.0,0.0,0.0,0.0,0.0,0.0,0.0,0.0,0.0,0.0,0.0,0.0,0.0,-2.6523,0.0,-2.696,-2.8223,0.0,0.0,0.0,-3.2821,-3.4279,-3.5065,-3.6265,-3.8327,0.0,0.0,-4.0415,0.0,-4.145,-4.0836,-4.0707,-4.0675,-4.0658,-4.1336,-4.1774,-4.1806,-4.2359,-4.2764,-4.278,-4.278,-4.278,-4.2829,-4.278,-4.2813,-4.2813,-4.2797,-4.2764,-4.2764,-4.2764,-4.278,-4.2764,-4.278,-4.2376,-4.1193,-4.082,-4.0691,-4.0756,-4.0788,-4.0804,-4.0017,-3.9842,-3.9392,-3.8376,-3.7085,-3.707,-3.678,-3.6315,-3.6286,-3.6286,-3.6286,-3.6156,-3.5996,-3.5836,-3.5546,-3.5575,-3.5865,-3.5851,-3.6011,-3.6286,-3.6286,-3.6286,-3.6286,-3.6286,-3.6243,-3.6083,-3.6083,-3.5923,-3.5619,-3.5174,-3.5082,-3.5343,-3.4511,-3.3904,-3.3598,-3.4002,-3.4302,-3.438,-3.438,-3.438,-3.438,-3.4254,-3.3645,-3.2524,-3.2511,-3.1776,-3.016,-2.9648,-2.8898,-2.7866,-2.7224,-2.6405,-2.5329,-2.4948,0.0,0.0,0.0,0.0,0.0,0.0,0.0,0.0,0.0,-2.5435,-2.683,0.0,-2.7057,0.0,-2.8713,-2.9119,-2.9151,-3.0409,0.0,0.0,-3.368,-3.5202,-3.7161,-3.7533,-3.8246,-3.9816,-4.051,-4.0964,-4.1304,-4.1938,-4.2537,-4.286,-4.2424,-4.2132,-4.2117,-4.2747,-4.3201,-4.3249,-4.3783,-4.4269,-4.4221,-4.4269,-4.4237,-4.4285,-4.4269,-4.4285,-4.4269,-4.4285,-4.4285,-4.4285,-4.4269,-4.4285,-4.4237,-4.4269,-4.4156,-4.3767,-4.2909,-4.2085,-4.2085,-4.2101,-4.2085,-4.0989,-4.0989,-4.0989,-4.022,-3.8986,-3.8681,-3.8333,-3.8014,-3.7984,-3.7839,-3.7564,-3.7012,-3.6751,-3.6736,-3.6446,-3.646,-3.6736,-3.6765,-3.6896,-3.7157,-3.7157,-3.7143,-3.7157,-3.7143,-3.7012,-3.6751,-3.6751,-3.6606,-3.6301,-3.5952,-3.5967,-3.6272,-3.5314,-3.4695,-3.4361,-3.4385,-3.438,-3.438,-3.438,-3.438,-3.438,-3.438,-3.3949,-3.2991,-3.2771,-3.2139,-3.0881,-2.986,-2.9098,-2.8654,-2.7719,-2.7003,-2.6598,-2.6235,-2.5947,0.0,0.0,0.0,0.0,0.0,0.0,0.0,0.0,0.0,0.0,0.0,-2.8859,0.0,-3.0528,-3.1322,-3.1322,-3.2579,-3.3728,-3.4457,-3.5768,-3.7123,-3.8278,-3.8958,-3.9752,-4.0853,-4.1353,-4.1855,-4.2439,-4.2877,-4.3347,-4.4091,-4.3832,-4.3605,-4.3589,-4.3945,-4.4188,-4.4221,-4.4528,-4.4804,-4.4804,-4.4804,-4.4804,-4.4804,-4.4804,-4.4804,-4.4804,-4.4804,-4.4804,-4.4804,-4.4804,-4.4804,-4.4804,-4.4804,-4.4804,-4.469,-4.4172,-4.3654,-4.3557,-4.3589,-4.3589,-4.2339,-4.2324,-4.2237,-4.186,-4.1279,-4.0626,-4.0249,-4.0104,-4.0104,-3.9813,-3.9247,-3.8144,-3.7651,-3.7622,-3.6983,-3.6983,-3.7535,-3.7462,-3.7709,-3.8188,-3.8202,-3.8202,-3.8202,-3.8202,-3.7926,-3.7433,-3.7418,-3.7128,-3.6562,-3.6475,-3.6475,-3.6504,-3.5872,-3.5523,-3.5494,-3.4864,-3.4486,-3.4414,-3.438,-3.438,-3.438,-3.438,-3.4109,-3.3518,-3.2961,-3.2399,-3.1803,-3.0261,-2.9548,-2.9717,-2.8404,-2.7797,-2.82,-2.781,-2.7711,0.0,-2.8026,0.0,0.0,0.0,0.0,0.0,0.0,0.0,0.0,-3.069,-3.0431,-3.0431,-3.2311,-3.3526,-3.3501,-3.4764,-3.5849,-3.6529,-3.7841,-3.8683,-3.8829,-3.9897,-4.095,-4.1774,-4.1871,-4.2406,-4.3605,-4.3848,-4.4107,-4.4771,-4.4885,-4.4901,-4.503,-4.4982,-4.4917,-4.4933,-4.4998,-4.5241,-4.5192,-4.5144,-4.5144,-4.5111,-4.516,-4.5063,-4.5144,-4.5127,-4.5111,-4.5111,-4.516,-4.5127,-4.5063,-4.5095,-4.5095,-4.516,-4.5111,-4.4982,-4.4755,-4.4658,-4.4804,-4.3645,-4.3573,-4.305,-4.276,-4.2586,-4.199,-4.1105,-4.0104,-4.0104,-4.0031,-3.9915,-3.9683,-3.9567,-3.9523,-3.8928,-3.8725,-3.8812,-3.8275,-3.8101,-3.8202,-3.8202,-3.8202,-3.8202,-3.8202,-3.8144,-3.8043,-3.8043,-3.797,-3.7825,-3.7346,-3.736,-3.7796,-3.6707,-3.6141,-3.6083,0.0,0.0,0.0,-3.438,-3.438,-3.438,-3.438,-3.4109,-3.3518,-3.2879,0.0,-3.1803,-3.0616,-3.0064,-3.03,-2.9992,0.0,0.0,0.0,0.0,0.0,0.0,0.0,0.0,0.0,0.0,0.0,-3.2854,-3.2724,-3.1915,-3.2708,-3.3315,-3.334,-3.4764,-3.5704,-3.572,-3.6967,-3.7841,-3.8035,-3.925,-4.0318,-4.0901,-4.1255,-4.1887,-4.3136,-4.3298,-4.3622,-4.4415,-4.4593,-4.4852,-4.5484,-4.5613,-4.5856,-4.6374,-4.5953,-4.5629,-4.5629,-4.6034,-4.6439,-4.6488,-4.6457,-4.6392,-4.6522,-4.6488,-4.6489,-4.6407,-4.6457,-4.6455,-4.6457,-4.6488,-4.6489,-4.6455,-4.6471,-4.6424,-4.6505,-4.6471,-4.6147,-4.5046,-4.4804,-4.4804,-4.4008,0.0,-4.3616,-4.3485,0.0,-4.2803,-4.215,-4.1512,-4.1207,-4.0902,-4.0583,-4.0249,-4.0104,-4.0075,-3.9784,-3.9639,-3.9625,-3.9291,-3.8971,-3.871,-3.8696,-3.8522,-3.8202,-3.8202,-3.8202,-3.8202,-3.8202,-3.8202,-3.8188,-3.7897,-3.7897,-3.8188,-3.7259,-3.6794,-3.6765,-3.5872,-3.5038,-3.438,-3.438,-3.438,-3.438,-3.438,-3.4254,-3.3935,0.0,0.0,0.0,0.0,0.0,0.0,0.0,0.0,0.0,0.0,0.0,-3.1023,-3.1165,-3.1282,-3.1377,-3.2385,-3.321,-3.3582,-3.457,-3.4894,-3.4182,-3.4781,-3.5185,-3.5218,-3.6189,-3.6923,-3.7339,-3.8294,-3.9055,-3.9428,-4.0383,-4.1207,-4.1596,-4.2244,-4.2893,-4.3573,-4.4026,-4.4512,-4.5208,-4.5305,-4.5581,-4.6212,-4.6326,-4.6455,-4.6763,-4.6585,-4.6342,-4.6342,-4.6601,-4.6911,-4.6911,-4.6911,-4.6911,-4.6911,-4.6911,-4.6911,-4.6911,-4.6911,-4.6911,-4.6911,-4.6911,-4.6911,-4.6911,-4.6911,-4.6911,-4.6911,-4.6911,-4.6732,-4.5937,-4.5824,-4.5824,-4.4327,-4.4313,-4.4197,-4.4153,-4.411,-4.3442,-4.3108,-4.2963,0.0,0.0,0.0,-4.0699,-4.0452,-4.0437,-4.0336,-4.0278,-4.0263,-4.0147,-3.9828,-3.9363,-3.9363,-3.9015,-3.8391,-3.8391,-3.8318,-3.8202,-3.8202,-3.8202,-3.8202,-3.8202,-3.8202,-3.8159,-3.7694,-3.7418,-3.723,-3.606,-3.5145,-3.4603,-3.4472,-3.438,-3.438,-3.438,-3.438,-3.438,-3.3837,-3.3307,-3.2881,-3.1762,-3.1057,-3.0798,-3.0652,-3.0725,-3.1037,-3.136,-3.17,-3.2051,-3.2248,-3.2385,-3.2554,-3.3742,-3.4538,-3.4651,-3.5785,-3.6405,-3.6319,-3.6389,-3.6546,-3.6675,-3.729,-3.7987,-3.8699,-3.9428,-4.0105,-4.0656,-4.1353,-4.1792,-4.2033,-4.2958,-4.3751,-4.4075,-4.4625,-4.5225,-4.5888,-4.5986,-4.6196,-4.6714,-4.6862,-4.6911,-4.6911,-4.6878,-4.6846,-4.6862,-4.6894,-4.6911,-4.6911,-4.6911,-4.6911,-4.6911,-4.6911,-4.6911,-4.6911,-4.6911,-4.6911,-4.6911,-4.6911,-4.6911,-4.6911,-4.6911,-4.6911,-4.6911,-4.6911,-4.6911,-4.6911,-4.6911,-4.6846,-4.5605,-4.5576,-4.4995,-4.4748,-4.4719,-4.4095,-4.3529,-4.2948,-4.2353,-4.2049,-4.1947,-4.186,-4.1816,-4.1787,-4.1221,-4.096,-4.0916,-4.035,-4.0046,0.0,-3.9973,-3.9639,-3.9073,-3.9059,-3.8768,-3.8231,-3.8202,-3.8202,-3.8202,-3.8202,-3.8202,-3.8202,-3.8115,-3.781,-3.7244,-3.606,-3.5348,-3.5247,-3.469,-3.438,-3.438,-3.438,-3.438,-3.4385,-3.3804,-3.3525,-3.3557,-3.2452,-3.1929,-3.2035,-3.1959,-3.1928,-3.2011,-3.2516,-3.3171,-3.3868,-3.4197,-3.4695,-3.5337,-3.5802,-3.6254,-3.6778,-3.7036,-3.6934,-3.6384,-3.6853,-3.7436,-3.8035,-3.8715,-3.9489,-4.014,-4.0834,-4.1272,-4.1482,-4.2067,-4.2683,-4.3249,-4.3605,-4.4221,-4.5273,-4.5581,-4.5937,-4.6536,-4.6682,-4.6698,-4.6878,-4.6911,-4.6911,-4.6911,-4.6911,-4.6911,-4.6911,-4.6911,-4.6911,-4.6911,-4.6911,-4.6911,-4.6911,-4.6911,-4.6911,-4.6911,-4.6911,-4.6911,-4.6911,-4.6911,-4.6911,-4.6911,-4.6911,-4.6911,-4.6911,-4.6911,-4.6911,-4.6911,-4.6911,-4.6911,-4.588,-4.5851,-4.5561,-4.543,-4.5372,-4.4748,-4.3906,-4.2992,-4.2716,-4.2382,-4.2107,-4.2092,-4.2092,-4.2078,-4.1773,-4.1642,-4.1628,-4.1323,-4.0989,-4.0655,-4.0641,-4.0133,-3.9262,-3.9204,-3.8841,-3.8231,-3.8202,-3.8202,-3.8202,-3.8202,-3.8202,-3.8202,-3.8202,-3.7897,-3.7273,-3.6359,-3.5741,-3.5392,-3.4733,-3.438,-3.438,-3.438,-3.438,-3.438,-3.4124,-3.3937,-3.3833,-3.337,-3.3055,-3.2944,-3.2975,-3.3102,-3.3276,-3.3591,-3.4098,-3.4687,-3.4956,-3.5318,-3.5872,-3.6491,-3.7161,-3.7841,-3.7906,-3.7954,-3.8035,-3.8311,-3.8634,-3.9003,-3.9622,-4.0318,-4.1029,-4.1401,-4.1758,-4.2116,-4.2796,-4.3314,-4.3719,-4.4447,-4.5095,-4.571,-4.6164,-4.652,-4.6844,-4.6911,-4.6911,-4.6911,-4.6911,-4.6911,-4.6911,-4.6911,-4.6911,-4.6911,-4.6911,-4.6911,-4.6911,-4.6911,-4.6911,-4.6911,-4.6911,-4.6911,-4.6911,-4.6911,-4.6911,-4.6911,-4.6911,-4.6911,-4.6911,-4.6911,-4.6911,-4.6911,-4.6911,-4.6911,-4.6911,-4.6911,-4.6911,-4.588,-4.588,-4.588,-4.588,-4.5822,-4.5169,-4.424,-4.3239,-4.3065,-4.2658,-4.2136,-4.2092,-4.2092,-4.2092,-4.2092,-4.2092,-4.2092,-4.2092,-4.1816,-4.1352,-4.1323,-4.0728,-3.9697,-3.9494,-3.9059,-3.8463,-3.8289,-3.8202,-3.8202,-3.8202,-3.8202,-3.8202,-3.8202,-3.797,-3.752,-3.6867,-3.6228,-3.5625,-3.4951,-3.4559,-3.4414,-3.438,-3.438,-3.438,-3.4414,-3.4301,-3.4162,-3.405,-3.39,-3.3677,-3.3682,-3.3789,-3.4074,-3.4267,-3.4666,-3.5183,-3.5442,-3.5804,-3.6346,-3.7049,-3.7834,-3.8586,-3.8651,-3.8958,-3.9622,-3.9894,-3.9991,-4.004,-4.0478,-4.1061,-4.1693,-4.1824,-4.2035,-4.257,-4.3233,-4.3767,-4.4043,-4.5063,-4.5888,-4.605,-4.6552,-4.6894,-4.6911,-4.6911,-4.6911,-4.6911,-4.6911,-4.6911,-4.6911,-4.6911,-4.6911,-4.6911,-4.6911,-4.6911,-4.6911,-4.6911,-4.6911,-4.6911,-4.6911,-4.6911,-4.6911,-4.6911,-4.6911,-4.6911,-4.6911,-4.6911,-4.6911,-4.6911,-4.6911,-4.6911,-4.6911,-4.6911,-4.6911,-4.6911,-4.6911,-4.588,-4.588,-4.588,-4.588,-4.5808,-4.5228,-4.4516,-4.3863,-4.3268,-4.2658,-4.215,-4.2092,-4.2092,-4.2092,-4.2092,-4.2092,-4.2092,-4.2092,-4.2049,-4.199,-4.2005,-4.1613,-4.0829,-4.0278,-3.9697,-3.9073,-3.8492,-3.8202,-3.8202,-3.8202,-3.8202,-3.8202,-3.8202,-3.8173,-3.8028,-3.7506,-3.6867,-3.6228,-3.5604,-3.5029,-3.4457,-3.438,-3.438,-3.438,-3.438,-3.4467,-3.4585,-3.4221,-3.4029,-3.4101,-3.3875,-3.3728,-3.3819,-3.4179,-3.4765,-3.5576,-3.605,-3.6769,-3.7817,-3.808,-3.8459,-3.9298,-3.9379,-3.9671,-4.0351,-4.1012,-4.1401,-4.1401,-4.1466,-4.1792,-4.2392,-4.2473,-4.2505,-4.2683,-4.3314,-4.3945,-4.4642,-4.5354,-4.605,-4.673,-4.6846,-4.6911,-4.6911,-4.6911,-4.6911,-4.6911,-4.6911,-4.6911,-4.6911,-4.6911,-4.6911,-4.6911,-4.6911,-4.6911,-4.6911,-4.6911,-4.6911,-4.6911,-4.6911,-4.6911,-4.6911,-4.6911,-4.6911,-4.6911,-4.6911,-4.6911,-4.6911,-4.6911,-4.6911,-4.6911,-4.6911,-4.6911,-4.6911,-4.6911,-4.6911,-4.588,-4.588,-4.588,-4.588,-4.5837,-4.559,-4.5111,-4.4472,-4.3848,-4.3224,-4.2615,-4.2252,-4.2092,-4.2092,-4.2092,-4.2092,-4.2092,-4.2092,-4.2092,-4.2092,-4.2092,-4.1744,-4.1076,-4.0408,-3.9784,-3.9189,-3.8522,-3.8202,-3.8202,-3.8202,-3.8202,-3.8202,-3.8202,-3.8202,-3.8159,-3.7607,-3.6983,-3.6315,-3.5726,-3.5087,-3.4501,-3.438,-3.438,-3.438,-3.438,-3.4481,-3.4683,-3.4585,-3.4602,-3.4783,-3.4784,-3.481,-3.4874,-3.5169,-3.56,-3.6137,-3.6681,-3.725,-3.786,-3.8376,-3.8862,-3.9311,-3.9747,-4.031,-4.1047,-4.1434,-4.1758,-4.2116,-4.2197,-4.2342,-4.257,-4.2602,-4.2764,-4.3233,-4.3913,-4.4609,-4.5322,-4.6002,-4.6585,-4.6878,-4.6911,-4.6911,-4.6911,-4.6911,-4.6911,-4.6911,-4.6911,-4.6911,-4.6911,-4.6911,-4.6911,-4.6911,-4.6911,-4.6911,-4.6911,-4.6911,-4.6911,-4.6911,-4.6911,-4.6911,-4.6911,-4.6911,-4.6911,-4.6911,-4.6911,-4.6911,-4.6911,-4.6911,-4.6911,-4.6911,-4.6911,-4.6911,-4.6911,-4.6911,-4.6911,-4.588,-4.588,-4.588,-4.588,-4.588,-4.588,-4.5503,-4.485,-4.4255,-4.3631,-4.2963,-4.2353,-4.2092,-4.2092,-4.2092,-4.2092,-4.2092,-4.2092,-4.2092,-4.2092,-4.2092,-4.1845,-4.1323,-4.0684,-4.0046,-3.9436,-3.8812,-3.8391,-3.8231,-3.8202,-3.8202,-3.8202,-3.8202,-3.8202,-3.8173,-3.7738,-3.7244,-3.6606,-3.5988,-3.5334,-3.4748,-3.4516,-3.438,-3.438,-3.438,-3.4448,-3.4631,-3.4735,-3.4949,-3.5115,-3.5311,-3.5489,-3.5653,-3.5799,-3.61,-3.6492,-3.7043,-3.7512,-3.7866,-3.8553,-3.9166,-3.9684,-4.0244,-4.0868,-4.1602,-4.1826,-4.2068,-4.2489,-4.2602,-4.2586,-4.2602,-4.2602,-4.291,-4.3638,-4.435,-4.5046,-4.5726,-4.6439,-4.6894,-4.6911,-4.6911,-4.6911,-4.6911,-4.6911,-4.6911,-4.6911,-4.6911,-4.6911,-4.6911,-4.6911,-4.6911,-4.6911,-4.6911,-4.6911,-4.6911,-4.6911,-4.6911,-4.6911,-4.6911,-4.6911,-4.6911,-4.6911,-4.6911,-4.6911,-4.6911,-4.6911,-4.6911,-4.6911,-4.6911,-4.6911,-4.6911,-4.6911,-4.6911,-4.6911,-4.6911,-4.588,-4.588,-4.588,-4.588,-4.588,-4.588,-4.5503,-4.4835,-4.4255,-4.3616,-4.2963,-4.2368,-4.2092,-4.2092,-4.2092,-4.2092,-4.2092,-4.2092,-4.2092,-4.2092,-4.2092,-4.2078,-4.2005,-4.1366,-4.0684,-3.9973,-3.9349,-3.8783,-3.8231,-3.8202,-3.8202,-3.8202,-3.8202,-3.8202,-3.8188,-3.8144,-3.7839,-3.7186,-3.6577,-3.5938,-3.5363,-3.4719,-3.4424,-3.4428,-3.438,-3.4414,-3.4448,-3.4582,-3.4783,-3.4902,-3.5115,-3.5326,-3.5504,-3.5638,-3.5943,-3.646,-3.6953,-3.7599,-3.8287,-3.8691,-3.9367,-4.067,-4.0974,-4.1405,-4.214,-4.2252,-4.2363,-4.2571,-4.2571,-4.2602,-4.2602,-4.2602,-4.2942,-4.3719,-4.4366,-4.5063,-4.5775,-4.6488,-4.6862,-4.6911,-4.6911,-4.6911,-4.6911,-4.6911,-4.6911,-4.6911,-4.6911,-4.6911,-4.6911,-4.6911,-4.6911,-4.6911,-4.6911,-4.6911,-4.6911,-4.6911,-4.6911,-4.6911,-4.6911,-4.6911,-4.6911,-4.6911,-4.6911,-4.6911,-4.6911,-4.6911,-4.6911,-4.6911,-4.6911,-4.6911,-4.6911,-4.6911,-4.6911,-4.6911,-4.6911,-4.588,-4.588,-4.588,-4.588,-4.588,-4.588,-4.5503,-4.485,-4.424,-4.3616,-4.2963,-4.2353,-4.2092,-4.2092,-4.2092,-4.2092,-4.2092,-4.2092,-4.2092,-4.2092,-4.2092,-4.2092,-4.202,-4.141,-4.0742,-4.0089,-3.9494,-3.8855,-3.826,-3.8202,-3.8202,-3.8202,-3.8202,-3.8202,-3.8202,-3.8202,-3.7912,-3.7346,-3.7056,-3.6446,-3.5508,-3.516,-3.4835,-3.4409,-3.438,-3.438,-3.438,-3.4597,-3.475,-3.4902,-3.5115,-3.5279,-3.5504,-3.5606,-3.5911,-3.646,-3.708,-3.7623,-3.82,-3.9157,-3.9993,-4.069,-4.1326,-4.1741,-4.2094,-4.2206,-4.227,-4.2429,-4.2476,-4.2492,-4.2571,-4.2602,-4.3088,-4.4188,-4.4658,-4.5273,-4.6212,-4.673,-4.6911,-4.6911,-4.6911,-4.6911,-4.6911,-4.6911,-4.6911,-4.6911,-4.6911,-4.6911,-4.6911,-4.6911,-4.6911,-4.6911,-4.6911,-4.6911,-4.6911,-4.6911,-4.6911,-4.6911,-4.6911,-4.6911,-4.6911,-4.6911,-4.6911,-4.6911,-4.6911,-4.6911,-4.6911,-4.6911,-4.6911,-4.6911,-4.6911,-4.6911,-4.6911,-4.6911,-4.6911,-4.588,-4.588,-4.579,-4.5805,-4.5745,-4.57,-4.5279,-4.4629,-4.4022,-4.3387,-4.2737,-4.2145,-4.187,-4.187,-4.1885,-4.187,-4.187,-4.1953,-4.1939,-4.1953,-4.1912,-4.187,-4.1798,-4.1408,-4.0859,-4.0166,-3.9333,-3.865,-3.8086,-3.8028,-3.8028,-3.8028,-3.8014,-3.8014,-3.8028,-3.8014,-3.7797,-3.754,-3.7308,-3.6765,-3.604,-3.5595,-3.5203,-3.4762,-3.453,-3.438,-3.438,-3.453,-3.4698,-3.485,-3.5016,-3.5213,-3.5472,-3.5606,-3.5969,-3.6531,-3.7103,-3.774,-3.8476,-3.9542,-4.0283,-4.0729,-4.1336,-4.1768,-4.1916,-4.1996,-4.2125,-4.2254,-4.2318,-4.2365,-4.2556,-4.275,-4.3428,-4.4544,-4.4982,-4.5581,-4.6698,-4.6911,-4.6911,-4.6911,-4.6911,-4.6911,-4.6911,-4.6911,-4.6911,-4.6911,-4.6911,-4.6911,-4.6911,-4.6911,-4.6911,-4.6911,-4.6911,-4.6911,-4.6911,-4.6911,-4.6911,-4.6911,-4.6911,-4.6911,-4.6911,-4.6911,-4.6911,-4.6911,-4.6911,-4.6911,-4.6911,-4.6911,-4.6911,-4.6911,-4.6911,-4.6911,-4.6911,-4.6911,-4.6911,-4.588,-4.5835,-4.5595,-4.5504,-4.5473,-4.5276,-4.4752,-4.4126,-4.3598,-4.2954,-4.2281,-4.1667,-4.1494,-4.1452,-4.148,-4.1452,-4.148,-4.1577,-4.1702,-4.1702,-4.1507,-4.1452,-4.148,-4.1423,-4.0965,-4.0237,-3.911,-3.8239,-3.7691,-3.7649,-3.7649,-3.7625,-3.7649,-3.7687,-3.761,-3.7649,-3.7725,-3.7695,-3.7353,-3.7082,-3.7106,-3.6077,-3.5424,-3.5221,-3.4743,-3.439,-3.438,-3.4414,-3.4515,-3.4698,-3.4835,-3.5082,-3.5439,-3.5649,-3.6019,-3.6612,-3.7056,-3.7956,-3.9198,-3.9691,-4.0246,-4.0818,-4.1174,-4.139,-4.1555,-4.1752,-4.1882,-4.2045,-4.2077,-4.2142,-4.2462,-4.3057,-4.3815,-4.469,-4.5305,-4.6018,-4.6649,-4.6911,-4.6911,-4.6911,-4.6911,-4.6911,-4.6911,-4.6911,-4.6911,-4.6911,-4.6911,-4.6911,-4.6911,-4.6911,-4.6911,-4.6911,-4.6911,-4.6911,-4.6911,-4.6911,-4.6911,-4.6911,-4.6911,-4.6911,-4.6911,-4.6911,-4.6911,-4.6911,-4.6911,-4.6911,-4.6911,-4.6911,-4.6911,-4.6911,-4.6911,-4.6911,-4.6911,-4.6911,-4.6911,-4.5504,-4.5353,-4.5261,-4.5216,-4.5216,-4.5124,-4.4538,-4.3625,-4.3368,-4.2696,-4.1767,-4.1481,-4.141,-4.141,-4.141,-4.1396,-4.141,-4.1283,-4.1325,-4.148,-4.1438,-4.1396,-4.141,-4.141,-4.0824,-3.9796,-3.8913,-3.82,-3.7686,-3.7572,-3.761,-3.761,-3.7572,-3.761,-3.7572,-3.761,-3.7663,-3.7672,-3.7515,-3.7252,-3.6925,-3.6495,-3.5892,-3.5073,-3.4786,-3.4548,-3.4225,-3.4346,-3.4481,-3.4664,-3.4731,-3.4931,-3.5302,-3.5776,-3.6222,-3.6755,-3.7684,-3.8429,-3.907,-3.9734,-4.0213,-4.0615,-4.0867,-4.1052,-4.1221,-4.1303,-4.1503,-4.1687,-4.1753,-4.1851,-4.2301,-4.3295,-4.4166,-4.4738,-4.5386,-4.6115,-4.673,-4.6911,-4.6911,-4.6911,-4.6911,-4.6911,-4.6911,-4.6911,-4.6911,-4.6911,-4.6911,-4.6911,-4.6911,-4.6911,-4.6911,-4.6911,-4.6911,-4.6911,-4.6911,-4.6911,-4.6911,-4.6911,-4.6911,-4.6911,-4.6911,-4.6911,-4.6911,-4.6911,-4.6911,-4.6911,-4.6911,-4.6911,-4.6911,-4.6911,-4.6911,-4.6911,-4.6911,-4.6911,-4.6911,-4.5276,-4.5078,-4.4986,-4.5,-4.4957,-4.4666,-4.3953,-4.3089,-4.279,-4.2065,-4.127,-4.1142,-4.1128,-4.1142,-4.1128,-4.1128,-4.1142,-4.093,-4.0986,-4.1128,-4.1142,-4.1128,-4.1142,-4.1142,-4.0475,-3.9396,-3.8856,-3.8218,-3.7408,-3.738,-3.7394,-3.738,-3.738,-3.738,-3.738,-3.738,-3.7433,-3.7457,-3.7481,-3.7348,-3.7068,-3.681,-3.6325,-3.5611,-3.526,-3.4968,-3.4722,-3.4799,-3.479,-3.4709,-3.4854,-3.5154,-3.5496,-3.6077,-3.6624,-3.7182,-3.7918,-3.8637,-3.9114,-3.9687,-4.0091,-4.0296,-4.0489,-4.0662,-4.0848,-4.0916,-4.112,-4.1355,-4.1406,-4.1538,-4.2041,-4.319,-4.4124,-4.4522,-4.5527,-4.6273,-4.6811,-4.6911,-4.6911,-4.6911,-4.6911,-4.6911,-4.6911,-4.6911,-4.6911,-4.6911,-4.6911,-4.6911,-4.6911,-4.6911,-4.6911,-4.6911,-4.6911,-4.6911,-4.6911,-4.6911,-4.6911,-4.6911,-4.6911,-4.6911,-4.6911,-4.6911,-4.6911,-4.6911,-4.6911,-4.6911,-4.6911,-4.6911,-4.6911,-4.6911,-4.6911,-4.6911,-4.6911,-4.6911,-4.6911,-4.5078,-4.5046,-4.4876,-4.4797,-4.4666,-4.3931,-4.3279,-4.2573,-4.1982,-4.1349,-4.0829,-4.0787,-4.0744,-4.0759,-4.0787,-4.0787,-4.0702,-4.0744,-4.073,-4.0759,-4.0744,-4.0801,-4.0801,-4.0801,-4.0126,-3.9084,-3.8901,-3.8225,-3.7113,-3.7056,-3.6978,-3.7017,-3.7056,-3.7017,-3.7056,-3.7017,-3.7148,-3.7278,-3.7303,-3.7352,-3.7448,-3.6992,-3.6659,-3.653,-3.5972,-3.563,-3.551,-3.5525,-3.5253,-3.4723,-3.5243,-3.5663,-3.5967,-3.6487,-3.714,-3.7668,-3.7967,-3.8561,-3.9209,-3.9457,-3.9717,-3.9925,-4.0071,-4.0266,-4.047,-4.0608,-4.078,-4.0984,-4.1034,-4.1187,-4.1692,-4.2819,-4.3765,-4.4439,-4.5656,-4.6521,-4.6825,-4.6876,-4.6876,-4.6876,-4.6911,-4.6911,-4.6911,-4.6911,-4.6911,-4.6911,-4.6911,-4.6911,-4.6911,-4.6911,-4.6911,-4.6911,-4.6911,-4.6911,-4.6911,-4.6911,-4.6911,-4.6911,-4.6911,-4.6911,-4.6911,-4.6911,-4.6911,-4.6911,-4.6911,-4.6911,-4.6911,-4.6911,-4.6911,-4.6911,-4.6911,-4.6911,-4.6911,-4.6911,-4.6911,-4.4783,-4.4597,-4.4551,-4.4504,-4.442,-4.375,-4.3146,-4.2528,-4.1882,-4.1235,-4.08,-4.0702,-4.0702,-4.0702,-4.0702,-4.0702,-4.0702,-4.0702,-4.0702,-4.0702,-4.0702,-4.0702,-4.0702,-4.0688,-4.0055,-3.9057,-3.8874,-3.8255,-3.7063,-3.6978,-3.6978,-3.6978,-3.6978,-3.6978,-3.6978,-3.6978,-3.7017,-3.707,-3.7056,-3.7109,-3.712,-3.7031,-3.6707,-3.6269,-3.6113,-3.584,-3.5555,-3.5644,-3.5617,-3.5447,-3.569,-3.5969,-3.6254,-3.6915,-3.7461,-3.7796,-3.8281,-3.8649,-3.8884,-3.9017,-3.9199,-3.9517,-3.9625,-3.9768,-4.0101,-4.0172,-4.0281,-4.0405,-4.0558,-4.0746,-4.1221,-4.2403,-4.3761,-4.5203,-4.5948,-4.6439,-4.6633,-4.6703,-4.6738,-4.6876,-4.6876,-4.6876,-4.6876,-4.6876,-4.6876,-4.6911,-4.6911,-4.6911,-4.6911,-4.6911,-4.6911,-4.6911,-4.6911,-4.6911,-4.6911,-4.6911,-4.6911,-4.6911,-4.6911,-4.6911,-4.6911,-4.6911,-4.6911,-4.6911,-4.6911,-4.6911,-4.6911,-4.6911,-4.6911,-4.6911,-4.6911,-4.6911,-4.6911,-4.6911,-4.6911,-4.4551,-4.4425,-4.4425,-4.427,-4.3961,-4.3371,-4.2753,-4.2135,-4.1502,-4.1053,-4.0758,-4.0702,-4.0702,-4.0702,-4.0702,-4.0702,-4.0702,-4.0702,-4.0702,-4.0702,-4.0702,-4.0702,-4.0702,-4.0688,-4.0055,-3.9029,-3.8916,-3.8185,-3.7189,-3.6978,-3.6978,-3.6978,-3.6978,-3.6978,-3.6978,-3.6978,-3.6978,-3.6978,-3.6978,-3.6978,-3.6978,-3.6978,-3.6838,-3.6539,-3.6497,-3.6324,-3.6118,-3.6203,-3.6102,-3.588,-3.6063,-3.6344,-3.6511,-3.717,-3.7651,-3.7864,-3.8311,-3.8575,-3.8686,-3.8745,-3.8907,-3.9104,-3.9141,-3.9301,-3.9517,-3.9625,-3.9666,-3.9985,-4.0091,-4.0403,-4.1128,-4.2441,-4.3956,-4.5217,-4.5719,-4.6012,-4.6439,-4.6458,-4.6528,-4.6615,-4.6649,-4.6719,-4.6754,-4.6789,-4.6823,-4.6892,-4.6911,-4.6911,-4.6911,-4.6911,-4.6911,-4.6911,-4.6911,-4.6911,-4.6911,-4.6911,-4.6911,-4.6911,-4.6911,-4.6911,-4.6911,-4.6911,-4.6911,-4.6911,-4.6911,-4.6911,-4.6911,-4.6911,-4.6911,-4.6911,-4.6911,-4.6911,-4.6911,-4.6911,-4.6911,-4.4369,-4.4312,-4.4312,-4.3961,-4.3357,-4.2753,-4.2177,-4.1601,-4.1025,-4.0744,-4.0702,-4.0702,-4.0702,-4.0702,-4.0702,-4.0702,-4.0702,-4.0702,-4.0702,-4.0702,-4.0702,-4.0702,-4.0702,-4.0702,-4.0013,-3.9085,-3.8916,-3.8157,-3.7259,-3.6978,-3.6978,-3.6978,-3.6978,-3.6978,-3.6978,-3.6978,-3.6978,-3.6978,-3.6978,-3.6978,-3.6978,-3.6978,-3.6936,-3.6894,-3.6866,-3.688,-3.6877,-3.6863,-3.6612,-3.5878,-3.6445,-3.6702,-3.6853,-3.7353,-3.7668,-3.7834,-3.8008,-3.8202,-3.8352,-3.8501,-3.8671,-3.8723,-3.8745,-3.8855,-3.9068,-3.9141,-3.9235,-3.9523,-3.9625,-4.0172,-4.1254,-4.275,-4.3948,-4.4847,-4.5145,-4.5499,-4.5992,-4.6243,-4.6278,-4.6298,-4.6298,-4.6404,-4.6493,-4.6582,-4.6617,-4.6649,-4.6703,-4.6754,-4.6772,-4.6807,-4.6842,-4.6911,-4.6911,-4.6911,-4.6911,-4.6911,-4.6911,-4.6911,-4.6911,-4.6911,-4.6911,-4.6911,-4.6911,-4.6911,-4.6911,-4.6911,-4.6911,-4.6911,-4.6911,-4.6911,-4.6911,-4.6911,-4.6911,-4.6911,-4.6911,-4.4116,-4.3694,-4.3708,-4.3343,-4.2725,-4.2107,-4.1741,-4.1545,-4.0955,-4.0702,-4.0702,-4.0702,-4.0702,-4.0702,-4.0702,-4.0702,-4.0702,-4.0702,-4.0702,-4.0702,-4.0702,-4.0702,-4.0688,-4.0659,-3.9999,-3.9169,-3.8916,-3.8213,-3.7259,-3.6978,-3.6978,-3.6978,-3.6978,-3.6978,-3.6978,-3.6978,-3.6978,-3.6978,-3.6978,-3.6978,-3.6978,-3.6978,-3.6978,-3.6978,-3.6978,-3.6978,-3.6978,-3.6978,-3.6891,-3.6852,-3.6953,-3.711,-3.7153,-3.7396,-3.7572,-3.7649,-3.7687,-3.7763,-3.7815,-3.7915,-3.8014,-3.8315,-3.8352,-3.8486,-3.8819,-3.8833,-3.887,-3.9017,-3.9156,-3.9888,-4.136,-4.2492,-4.3563,-4.4304,-4.4625,-4.4836,-4.521,-4.5646,-4.5972,-4.6171,-4.6227,-4.6298,-4.6317,-4.6333,-4.6388,-4.6439,-4.6474,-4.6545,-4.6598,-4.6652,-4.6703,-4.6772,-4.6842,-4.6842,-4.6842,-4.6842,-4.6911,-4.6911,-4.6911,-4.6911,-4.6911,-4.6911,-4.6911,-4.6911,-4.6911,-4.6911,-4.6911,-4.6911,-4.6911,-4.6911,-4.6911,-4.6911,-4.6911,-4.6911,-4.6911,-4.37,-4.3469,-4.3188,-4.2711,-4.2121,-4.1755,-4.1446,-4.1165,-4.0856,-4.0702,-4.0702,-4.0702,-4.0702,-4.0702,-4.0702,-4.0702,-4.0702,-4.0702,-4.0702,-4.0702,-4.0688,-4.0533,-4.028,-4.021,-3.976,-3.8944,-3.8579,-3.785,-3.7203,-3.6978,-3.6978,-3.6978,-3.6978,-3.6978,-3.6978,-3.6978,-3.6978,-3.6978,-3.6978,-3.6978,-3.6978,-3.6978,-3.6978,-3.6978,-3.6978,-3.6978,-3.6978,-3.6978,-3.6978,-3.7017,-3.7109,-3.7148,-3.7187,-3.7264,-3.7341,-3.7457,-3.7457,-3.7495,-3.7572,-3.761,-3.7739,-3.7915,-3.7915,-3.8014,-3.8202,-3.8329,-3.8441,-3.8538,-3.8826,-3.9528,-4.122,-4.2428,-4.3253,-4.3782,-4.4058,-4.4251,-4.461,-4.5151,-4.5573,-4.5739,-4.5739,-4.59,-4.5972,-4.6028,-4.6191,-4.6227,-4.6333,-4.6369,-4.6404,-4.6458,-4.6493,-4.658,-4.6684,-4.6738,-4.6772,-4.6807,-4.6911,-4.6911,-4.6911,-4.6911,-4.6911,-4.6911,-4.6911,-4.6911,-4.6911,-4.6911,-4.6911,-4.6911,-4.6911,-4.6911,-4.6911,-4.6911,-4.6911,-4.6911,-4.6911,-4.298,-4.3083,-4.2565,-4.1976,-4.1399,-4.1315,-4.1035,-4.0643,-4.0616,-4.053,-4.0602,-4.0602,-4.053,-4.0573,-4.0573,-4.0573,-4.0573,-4.0573,-4.053,-4.0616,-4.0419,-4.021,-3.9901,-3.955,-3.917,-3.8719,-3.8229,-3.7597,-3.7147,-3.6978,-3.6978,-3.6978,-3.6978,-3.6978,-3.6978,-3.6978,-3.6978,-3.6978,-3.6978,-3.6978,-3.6978,-3.6978,-3.6978,-3.6978,-3.6978,-3.6978,-3.6978,-3.6978,-3.6978,-3.6978,-3.6978,-3.6978,-3.6978,-3.6978,-3.7056,-3.7264,-3.7264,-3.7303,-3.7419,-3.7457,-3.751,-3.7548,-3.7548,-3.7572,-3.7649,-3.7815,-3.7967,-3.8272,-3.8672,-3.9507,-4.0852,-4.2164,-4.2976,-4.3394,-4.3472,-4.3723,-4.4073,-4.4625,-4.4889,-4.5204,-4.53,-4.541,-4.5589,-4.5698,-4.59,-4.6064,-4.612,-4.6191,-4.6191,-4.6227,-4.6262,-4.6369,-4.6509,-4.6545,-4.6563,-4.6598,-4.6719,-4.6772,-4.6772,-4.6807,-4.6842,-4.6892,-4.6892,-4.6911,-4.6911,-4.6911,-4.6911,-4.6911,-4.6911,-4.6911,-4.6911,-4.6911,-4.6911,-4.6911,-4.6911,-4.1785,-4.1332,-4.1235,-4.0833,-4.0334,-4.0293,-4.0251,-4.014,-4.014,-4.014,-4.014,-4.014,-4.0184,-4.014,-4.014,-4.014,-4.0184,-4.0227,-4.0243,-4.0261,-3.9954,-3.9592,-3.941,-3.8723,-3.8245,-3.8088,-3.7864,-3.7498,-3.7105,-3.6978,-3.6978,-3.6978,-3.6978,-3.6978,-3.6978,-3.6978,-3.6978,-3.6978,-3.6978,-3.6978,-3.6978,-3.6978,-3.6978,-3.6978,-3.6978,-3.6978,-3.6978,-3.6978,-3.6978,-3.6978,-3.6978,-3.6978,-3.6978,-3.6978,-3.7017,-3.7056,-3.7056,-3.7095,-3.7134,-3.7148,-3.7187,-3.7303,-3.7341,-3.7419,-3.7534,-3.761,-3.7701,-3.8088,-3.8963,-4.0018,-4.0329,-4.1722,-4.2611,-4.2875,-4.2996,-4.3155,-4.3314,-4.3669,-4.4174,-4.4594,-4.4799,-4.4964,-4.5129,-4.5257,-4.5389,-4.5484,-4.5541,-4.5703,-4.5848,-4.592,-4.5956,-4.6136,-4.6333,-4.6333,-4.6333,-4.6369,-4.6439,-4.6493,-4.6528,-4.6633,-4.6703,-4.6823,-4.6892,-4.6789,-4.6842,-4.6911,-4.6911,-4.6911,-4.6911,-4.6911,-4.6911,-4.6911,-4.6911,-4.6911,-4.6911,-4.1003,-4.088,-4.0576,-4.0272,-4.0037,-4.0009,-4.0009,-4.0009,-4.0009,-4.0009,-4.0009,-4.0009,-4.0009,-4.0009,-4.0009,-4.0009,-4.0009,-4.0009,-3.9887,-3.9726,-3.9407,-3.8852,-3.863,-3.7822,-3.7526,-3.7342,-3.7256,-3.7251,-3.7007,-3.6978,-3.6978,-3.6978,-3.6978,-3.6978,-3.6978,-3.6978,-3.6978,-3.6978,-3.6978,-3.6978,-3.6978,-3.6978,-3.6978,-3.6978,-3.6978,-3.6978,-3.6978,-3.6978,-3.6978,-3.6978,-3.6978,-3.6978,-3.6978,-3.6978,-3.6978,-3.6978,-3.6978,-3.6978,-3.6978,-3.6978,-3.7056,-3.7095,-3.7134,-3.7187,-3.7303,-3.738,-3.7457,-3.7896,-3.8828,-3.9856,-3.9884,-4.1294,-4.2068,-4.2363,-4.2526,-4.2688,-4.285,-4.2996,-4.3433,-4.3966,-4.4189,-4.4396,-4.4625,-4.4739,-4.4852,-4.4927,-4.5002,-4.5188,-4.5426,-4.5499,-4.5573,-4.5739,-4.592,-4.61,-4.61,-4.6136,-4.612,-4.6191,-4.6298,-4.6388,-4.6458,-4.658,-4.658,-4.6545,-4.6649,-4.6807,-4.6892,-4.6892,-4.6892,-4.6876,-4.6876,-4.6876,-4.6876,-4.6911,-4.6911,-4.0101,-4.0419,-3.9939,-3.9733,-3.9733,-3.9703,-3.9689,-3.9733,-3.9689,-3.9659,-3.9747,-3.9689,-3.9659,-3.9689,-3.9703,-3.9703,-3.9719,-3.9593,-3.9223,-3.8996,-3.8598,-3.8006,-3.7551,-3.7109,-3.6995,-3.6795,-3.6712,-3.6772,-3.6954,-3.6978,-3.6978,-3.6978,-3.6978,-3.6978,-3.6978,-3.6978,-3.6978,-3.6978,-3.6978,-3.6978,-3.6978,-3.6978,-3.6978,-3.6978,-3.6978,-3.6978,-3.6978,-3.6978,-3.6978,-3.6978,-3.6978,-3.6978,-3.6978,-3.6978,-3.6978,-3.6978,-3.6978,-3.6978,-3.6978,-3.6978,-3.7017,-3.7017,-3.6978,-3.7017,-3.7056,-3.7187,-3.7317,-3.767,-3.8646,-3.9441,-3.9639,-4.0775,-4.1573,-4.1883,-4.2049,-4.2254,-4.2404,-4.2566,-4.2688,-4.3115,-4.3463,-4.3817,-4.4073,-4.4228,-4.4305,-4.4473,-4.4549,-4.4701,-4.4889,-4.4942,-4.5055,-4.5241,-4.5447,-4.5755,-4.5828,-4.5848,-4.5812,-4.5812,-4.5992,-4.6136,-4.6191,-4.6262,-4.6298,-4.6333,-4.6509,-4.6633,-4.6754,-4.6789,-4.6738,-4.6703,-4.6807,-4.6842,-4.6876,-4.6911,-4.6911,-3.8831,-3.8876,-3.8809,-3.8769,-3.8782,-3.8782,-3.8769,-3.8782,-3.8814,-3.8782,-3.8814,-3.8782,-3.8814,-3.8827,-3.8814,-3.8769,-3.864,-3.8407,-3.8276,-3.8141,-3.7476,-3.7139,-3.7125,-3.6723,-3.6518,-3.6351,-3.6405,-3.6668,-3.6875,-3.694,-3.6993,-3.6954,-3.6978,-3.6978,-3.6978,-3.6978,-3.6978,-3.6978,-3.6978,-3.6978,-3.6978,-3.6978,-3.6978,-3.6978,-3.6978,-3.6978,-3.6978,-3.6978,-3.6978,-3.6978,-3.6978,-3.6978,-3.6978,-3.6978,-3.6978,-3.6978,-3.6978,-3.6978,-3.6978,-3.6978,-3.6978,-3.6978,-3.6978,-3.6978,-3.7017,-3.7017,-3.707,-3.7113,-3.8371,-3.9171,-3.9453,-4.057,-4.1238,-4.1465,-4.1591,-4.1717,-4.1827,-4.209,-4.2199,-4.2322,-4.2688,-4.3115,-4.3457,-4.363,-4.3762,-4.3972,-4.4127,-4.4243,-4.4396,-4.4473,-4.4641,-4.4852,-4.4964,-4.5225,-4.5447,-4.5484,-4.5484,-4.5447,-4.5646,-4.5828,-4.5864,-4.592,-4.612,-4.6191,-4.6333,-4.6298,-4.6298,-4.6333,-4.6439,-4.6528,-4.6598,-4.6738,-4.6876,-4.6876,-4.6807,-3.7893,-3.8154,-3.8167,-3.8154,-3.8154,-3.8167,-3.8154,-3.8154,-3.8154,-3.8167,-3.8154,-3.8141,-3.82,-3.8291,-3.8362,-3.8286,-3.8096,-3.7763,-3.7401,-3.7075,-3.6515,-3.6181,-3.6008,-3.5846,-3.5737,-3.5978,-3.6058,-3.6232,-3.6522,-3.6772,-3.6825,-3.685,-3.694,-3.6978,-3.6993,-3.6978,-3.6978,-3.6978,-3.6978,-3.6978,-3.6978,-3.6978,-3.6978,-3.6978,-3.6978,-3.6978,-3.6978,-3.6978,-3.6978,-3.6978,-3.6978,-3.6978,-3.6978,-3.6978,-3.6978,-3.6978,-3.6978,-3.6978,-3.6978,-3.6978,-3.6978,-3.6978,-3.6978,-3.6978,-3.6978,-3.6978,-3.6978,-3.6993,-3.8265,-3.894,-3.9277,-4.0362,-4.0914,-4.1198,-4.1255,-4.1381,-4.1507,-4.1549,-4.1731,-4.18,-4.1966,-4.2404,-4.2795,-4.2955,-4.3155,-4.3433,-4.3566,-4.363,-4.3879,-4.4089,-4.4281,-4.4511,-4.4587,-4.4685,-4.4889,-4.5039,-4.5098,-4.5114,-4.5278,-4.5442,-4.5478,-4.5573,-4.5703,-4.5703,-4.5667,-4.5667,-4.5739,-4.5977,-4.6227,-4.6353,-4.6423,-4.6528,-4.6598,-4.658,-4.658,-3.7142,-3.7453,-3.7592,-3.7638,-3.7625,-3.7638,-3.7638,-3.7638,-3.7638,-3.7638,-3.7625,-3.7612,-3.7665,-3.7684,-3.7638,-3.7408,-3.7105,-3.7017,-3.6505,-3.5897,-3.5542,-3.5306,-3.515,-3.5031,-3.5182,-3.5467,-3.5521,-3.5764,-3.6058,-3.6312,-3.647,-3.6642,-3.6733,-3.6836,-3.6915,-3.6915,-3.6915,-3.6978,-3.6978,-3.6978,-3.6978,-3.6978,-3.6978,-3.6978,-3.6978,-3.6978,-3.6978,-3.6978,-3.6978,-3.6978,-3.6978,-3.6978,-3.6978,-3.6978,-3.6978,-3.6978,-3.6978,-3.6978,-3.6978,-3.6978,-3.6978,-3.6978,-3.6978,-3.6978,-3.6978,-3.6978,-3.6978,-3.6993,-3.8185,-3.8761,-3.9196,-4.0167,-4.076,-4.0972,-4.1071,-4.117,-4.1297,-4.1339,-4.1438,-4.1564,-4.1647,-4.1689,-4.2007,-4.2199,-4.247,-4.2835,-4.2981,-4.3076,-4.3314,-4.3606,-4.3762,-4.3957,-4.4112,-4.4174,-4.4289,-4.4458,-4.4594,-4.4761,-4.4905,-4.498,-4.498,-4.5017,-4.5114,-4.5077,-4.5055,-4.5151,-4.5284,-4.5687,-4.6048,-4.61,-4.6136,-4.6227,-4.6262,-4.6262,-4.6298,-3.6452,-3.6534,-3.6968,-3.7155,-3.7155,-3.7155,-3.7155,-3.7142,-3.7142,-3.7129,-3.7065,-3.7103,-3.6842,-3.6566,-3.6457,-3.6232,-3.569,-3.5087,-3.5003,-3.486,-3.4523,-3.4444,-3.4439,-3.4605,-3.4729,-3.4853,-3.5018,-3.5223,-3.548,-3.5723,-3.6018,-3.6391,-3.647,-3.6589,-3.6668,-3.6747,-3.6772,-3.6875,-3.6915,-3.6915,-3.6954,-3.6954,-3.6954,-3.6954,-3.6993,-3.6978,-3.6978,-3.6978,-3.6978,-3.6978,-3.6978,-3.6978,-3.6978,-3.6978,-3.6978,-3.6978,-3.6978,-3.6978,-3.6978,-3.6978,-3.6978,-3.6978,-3.6978,-3.6978,-3.6978,-3.6978,-3.6978,-3.7119,-3.8199,-3.8804,-3.9268,-3.9901,-4.0661,-4.0816,-4.0859,-4.0944,-4.1029,-4.1057,-4.1156,-4.1354,-4.1396,-4.1354,-4.1423,-4.166,-4.1951,-4.2307,-4.2592,-4.2673,-4.2795,-4.2996,-4.3115,-4.3275,-4.3512,-4.363,-4.3669,-4.3864,-4.4073,-4.4281,-4.445,-4.445,-4.445,-4.4511,-4.4625,-4.4625,-4.4663,-4.4723,-4.4836,-4.5061,-4.5373,-4.5682,-4.5844,-4.5884,-4.5992,-4.6064,-4.6136,-3.5895,-3.5943,-3.6086,-3.6358,-3.6687,-3.664,-3.6687,-3.6687,-3.664,-3.6425,-3.6134,-3.6109,-3.5923,-3.5665,-3.5557,-3.5322,-3.4943,-3.4738,-3.4448,-3.4183,-3.3955,-3.3894,-3.4008,-3.405,-3.4147,-3.4369,-3.4564,-3.4771,-3.4977,-3.5195,-3.5358,-3.5656,-3.6072,-3.6391,-3.6524,-3.6524,-3.6589,-3.6628,-3.6668,-3.6628,-3.6615,-3.6615,-3.6628,-3.6628,-3.6786,-3.6825,-3.6825,-3.6954,-3.6993,-3.6978,-3.6978,-3.694,-3.6978,-3.6978,-3.6978,-3.6978,-3.6978,-3.6978,-3.6978,-3.6978,-3.6978,-3.6978,-3.6978,-3.6978,-3.6978,-3.6978,-3.6978,-3.7358,-3.8171,-3.8874,-3.9085,-3.9929,-4.0702,-4.0702,-4.0744,-4.0773,-4.0802,-4.0845,-4.0901,-4.11,-4.1057,-4.1001,-4.1071,-4.1184,-4.1493,-4.1785,-4.2034,-4.2266,-4.2348,-4.247,-4.2592,-4.2714,-4.2955,-4.3155,-4.3235,-4.3409,-4.3621,-4.3778,-4.3949,-4.4011,-4.405,-4.4127,-4.4205,-4.4243,-4.4228,-4.4281,-4.4358,-4.4412,-4.4716,-4.5167,-4.5405,-4.5478,-4.5646,-4.5812,-4.592,-3.5116,-3.5116,-3.5129,-3.5503,-3.6108,-3.6181,-3.6081,-3.5943,-3.6013,-3.5771,-3.527,-3.5232,-3.5047,-3.4837,-3.473,-3.4483,-3.4208,-3.4061,-3.3857,-3.3666,-3.3539,-3.3513,-3.3556,-3.3598,-3.3768,-3.3907,-3.4118,-3.4314,-3.4522,-3.4701,-3.4908,-3.5154,-3.5562,-3.5844,-3.6192,-3.6312,-3.6405,-3.6405,-3.6405,-3.6405,-3.6405,-3.6405,-3.6445,-3.6445,-3.6549,-3.6589,-3.6628,-3.6707,-3.6772,-3.6758,-3.6797,-3.6836,-3.6875,-3.6915,-3.6954,-3.6993,-3.6978,-3.6978,-3.6978,-3.6978,-3.6978,-3.6978,-3.6978,-3.6978,-3.6978,-3.6993,-3.7035,-3.74,-3.8297,-3.8972,-3.9113,-4.0112,-4.0674,-4.0702,-4.0702,-4.0744,-4.0744,-4.0787,-4.0744,-4.0801,-4.0787,-4.083,-4.083,-4.0944,-4.1198,-4.1465,-4.1675,-4.1827,-4.1868,-4.1993,-4.2158,-4.2281,-4.2444,-4.2607,-4.2824,-4.301,-4.321,-4.3369,-4.3527,-4.3645,-4.3684,-4.3778,-4.3778,-4.3762,-4.3762,-4.3817,-4.391,-4.4026,-4.4374,-4.4792,-4.4942,-4.5055,-4.5204,-4.5395,-4.5499,-3.4035,-3.4031,-3.4047,-3.4637,-3.5461,-3.5584,-3.5324,-3.4999,-3.5102,-3.5023,-3.4685,-3.4635,-3.4392,-3.4022,-3.3865,-3.3658,-3.3319,-3.3224,-3.3162,-3.3136,-3.3142,-3.3124,-3.3197,-3.3326,-3.3441,-3.3471,-3.3683,-3.3894,-3.4118,-3.4202,-3.4397,-3.4564,-3.484,-3.5182,-3.5723,-3.6152,-3.6365,-3.6365,-3.6325,-3.6286,-3.6246,-3.6192,-3.6192,-3.6192,-3.6272,-3.6312,-3.6351,-3.647,-3.6549,-3.6549,-3.651,-3.6589,-3.6668,-3.6721,-3.6786,-3.6915,-3.694,-3.6978,-3.6978,-3.6978,-3.6978,-3.6978,-3.6978,-3.6978,-3.6978,-3.7021,-3.7231,-3.7625,-3.8426,-3.9141,-3.9718,-4.0266,-4.0561,-4.0702,-4.0702,-4.0702,-4.0702,-4.0702,-4.0702,-4.0702,-4.0702,-4.0702,-4.0702,-4.0787,-4.1001,-4.117,-4.1339,-4.1423,-4.1465,-4.1591,-4.18,-4.1883,-4.2007,-4.2213,-4.2418,-4.2566,-4.2769,-4.2915,-4.3076,-4.325,-4.3329,-4.3369,-4.3369,-4.3329,-4.3448,-4.3581,-4.3621,-4.3714,-4.3988,-4.4243,-4.4511,-4.4663,-4.4799,-4.4911,-4.5039,-3.3538,-3.355,-3.3538,-3.3756,-3.4118,-3.4387,-3.4438,-3.4315,-3.4345,-3.4131,-3.3769,-3.3682,-3.3385,-3.3058,-3.2946,-3.2847,-3.2698,-3.2649,-3.2649,-3.2661,-3.2766,-3.281,-3.2896,-3.3068,-3.3197,-3.324,-3.3398,-3.3513,-3.3611,-3.3738,-3.3852,-3.405,-3.4301,-3.4688,-3.5154,-3.5507,-3.5534,-3.5534,-3.5534,-3.5534,-3.5534,-3.5521,-3.5575,-3.5616,-3.5817,-3.5938,-3.5978,-3.6152,-3.6272,-3.6286,-3.6286,-3.6405,-3.6484,-3.6484,-3.6549,-3.6654,-3.6693,-3.685,-3.6954,-3.6978,-3.6978,-3.6978,-3.6978,-3.6978,-3.6978,-3.6978,-3.733,-3.7864,-3.855,-3.9169,-3.9718,-4.0336,-4.0645,-4.0702,-4.0702,-4.0702,-4.0702,-4.0702,-4.0702,-4.0702,-4.0702,-4.0702,-4.0702,-4.0702,-4.0873,-4.0944,-4.1071,-4.1156,-4.1184,-4.1339,-4.1549,-4.1549,-4.1633,-4.1841,-4.2049,-4.2199,-4.2444,-4.2673,-4.2754,-4.285,-4.293,-4.305,-4.3076,-4.3115,-4.3195,-4.3329,-4.3384,-4.3423,-4.3463,-4.3699,-4.3957,-4.4205,-4.432,-4.4435,-4.4549,-3.2719,-3.2777,-3.2719,-3.2777,-3.2871,-3.346,-3.3704,-3.3554,-3.3416,-3.3122,-3.2965,-3.2904,-3.2757,-3.2486,-3.24,-3.24,-3.24,-3.24,-3.24,-3.2444,-3.2519,-3.2605,-3.2692,-3.2766,-3.2853,-3.2982,-3.3068,-3.3185,-3.3313,-3.3441,-3.3569,-3.3683,-3.3852,-3.4147,-3.4577,-3.4743,-3.4908,-3.4908,-3.4908,-3.4908,-3.4895,-3.4936,-3.499,-3.5113,-3.5277,-3.5521,-3.5562,-3.5737,-3.5938,-3.5992,-3.6032,-3.6112,-3.6152,-3.6232,-3.6312,-3.6445,-3.651,-3.6707,-3.6811,-3.6889,-3.6889,-3.6978,-3.6978,-3.6978,-3.6978,-3.6978,-3.754,-3.8143,-3.8649,-3.9338,-3.9985,-4.0561,-4.0659,-4.0702,-4.0702,-4.0702,-4.0702,-4.0702,-4.0702,-4.0702,-4.0702,-4.0702,-4.0702,-4.0702,-4.0744,-4.0773,-4.0802,-4.0887,-4.093,-4.1071,-4.1255,-4.1255,-4.1297,-4.1493,-4.166,-4.1883,-4.2117,-4.2404,-4.2485,-4.2541,-4.2729,-4.285,-4.2875,-4.2915,-4.2955,-4.301,-4.305,-4.309,-4.317,-4.325,-4.3433,-4.3645,-4.3832,-4.3988,-4.4127,-3.1729,-3.1705,-3.1717,-3.1765,-3.191,-3.2822,-3.3046,-3.2734,-3.2261,-3.2174,-3.2381,-3.2374,-3.235,-3.2369,-3.2356,-3.2313,-3.2313,-3.2313,-3.2313,-3.2313,-3.2344,-3.2356,-3.24,-3.2475,-3.2605,-3.268,-3.2766,-3.2896,-3.3068,-3.3197,-3.3283,-3.3398,-3.3569,-3.3738,-3.3894,-3.4063,-3.4272,-3.4356,-3.4356,-3.4397,-3.4384,-3.4509,-3.4564,-3.4647,-3.4825,-3.499,-3.5044,-3.5113,-3.5154,-3.5249,-3.5318,-3.5521,-3.5683,-3.5898,-3.6152,-3.6325,-3.6351,-3.651,-3.6668,-3.6721,-3.6825,-3.6915,-3.6993,-3.6993,-3.6978,-3.7035,-3.7583,-3.8297,-3.8902,-3.9718,-4.0421,-4.0561,-4.0702,-4.0702,-4.0702,-4.0702,-4.0702,-4.0702,-4.0702,-4.0702,-4.0702,-4.0702,-4.0702,-4.0702,-4.0702,-4.0744,-4.073,-4.0787,-4.0816,-4.0787,-4.0958,-4.1029,-4.1071,-4.1142,-4.1311,-4.1535,-4.1717,-4.1951,-4.2131,-4.2213,-4.2459,-4.2566,-4.2566,-4.2552,-4.2688,-4.2769,-4.285,-4.289,-4.285,-4.2955,-4.3115,-4.3329,-4.3557,-4.3636,-4.3793,-3.1705,-3.1705,-3.1705,-3.1705,-3.1753,-3.2054,-3.2111,-3.2011,-3.1842,-3.1849,-3.1881,-3.1893,-3.1937,-3.1893,-3.1893,-3.1937,-3.1937,-3.1893,-3.1893,-3.1937,-3.2081,-3.2081,-3.2169,-3.2257,-3.24,-3.2475,-3.2519,-3.2593,-3.281,-3.2982,-3.3081,-3.3197,-3.324,-3.3283,-3.3326,-3.3398,-3.3641,-3.3852,-3.3882,-3.3894,-3.3924,-3.4008,-3.405,-3.4134,-3.4314,-3.441,-3.4452,-3.4577,-3.466,-3.4812,-3.4853,-3.5018,-3.529,-3.5372,-3.5494,-3.5858,-3.6058,-3.6272,-3.6484,-3.6642,-3.6721,-3.6772,-3.6875,-3.6993,-3.6978,-3.7133,-3.7569,-3.8257,-3.8902,-3.9577,-4.0252,-4.0547,-4.0674,-4.0702,-4.0702,-4.0702,-4.0702,-4.0702,-4.0702,-4.0702,-4.0702,-4.0702,-4.0702,-4.0702,-4.0702,-4.0702,-4.0702,-4.0702,-4.0702,-4.0702,-4.0744,-4.0816,-4.0859,-4.093,-4.1001,-4.1212,-4.1367,-4.1507,-4.1717,-4.1841,-4.1883,-4.2007,-4.2117,-4.224,-4.2322,-4.2526,-4.2729,-4.2688,-4.2566,-4.2688,-4.285,-4.3065,-4.3265,-4.3359,-4.3438,-3.1705,-3.1705,-3.1705,-3.1661,-3.154,-3.1451,-3.1451,-3.1451,-3.1629,-3.1705,-3.1705,-3.1705,-3.1705,-3.1705,-3.1761,-3.1749,-3.1761,-3.1761,-3.1761,-3.1805,-3.1849,-3.1849,-3.1937,-3.2069,-3.2113,-3.2213,-3.23,-3.2388,-3.2593,-3.268,-3.281,-3.2822,-3.2822,-3.2835,-3.2822,-3.2853,-3.3025,-3.3215,-3.3386,-3.3441,-3.3484,-3.3556,-3.3556,-3.3628,-3.381,-3.3894,-3.3937,-3.4105,-3.4189,-3.4343,-3.4384,-3.4522,-3.4743,-3.4825,-3.5072,-3.544,-3.5656,-3.5898,-3.6098,-3.6312,-3.647,-3.6589,-3.6772,-3.685,-3.6915,-3.6999,-3.7557,-3.8187,-3.8719,-3.9254,-3.9929,-4.0533,-4.0631,-4.0702,-4.0702,-4.0702,-4.0702,-4.0702,-4.0702,-4.0702,-4.0702,-4.0702,-4.0702,-4.0702,-4.0702,-4.0702,-4.0702,-4.0702,-4.0702,-4.0702,-4.0702,-4.0744,-4.0744,-4.0773,-4.0845,-4.0958,-4.11,-4.1283,-4.1423,-4.1522,-4.1438,-4.1522,-4.1717,-4.1883,-4.1966,-4.2131,-4.2281,-4.2281,-4.224,-4.2404,-4.2581,-4.2743,-4.2905,-4.2985,-4.3105,-3.1589,-3.1589,-3.1661,-3.1496,-3.1273,-3.1107,-3.1029,-3.1074,-3.1451,-3.1629,-3.1629,-3.1617,-3.1629,-3.1617,-3.1617,-3.1661,-3.1705,-3.1705,-3.1705,-3.1705,-3.1761,-3.1761,-3.1761,-3.1749,-3.1893,-3.1937,-3.2038,-3.2113,-3.23,-3.2475,-3.2519,-3.24,-3.2444,-3.2487,-3.2531,-3.2531,-3.2649,-3.2754,-3.297,-3.3068,-3.3197,-3.3283,-3.3386,-3.3398,-3.3513,-3.3628,-3.3641,-3.3683,-3.3641,-3.3768,-3.3894,-3.4034,-3.423,-3.4439,-3.4729,-3.4977,-3.5236,-3.544,-3.5683,-3.5952,-3.6138,-3.6312,-3.6549,-3.6628,-3.6707,-3.6915,-3.7456,-3.8032,-3.8579,-3.9183,-3.9831,-4.0435,-4.0674,-4.0702,-4.0702,-4.0702,-4.0702,-4.0702,-4.0702,-4.0702,-4.0702,-4.0702,-4.0702,-4.0702,-4.0702,-4.0702,-4.0702,-4.0702,-4.0702,-4.0702,-4.0702,-4.0702,-4.0702,-4.0702,-4.0773,-4.0845,-4.093,-4.1057,-4.1213,-4.1227,-4.1185,-4.1269,-4.1354,-4.1522,-4.1689,-4.1675,-4.1702,-4.1785,-4.1951,-4.2131,-4.2295,-4.2418,-4.2541,-4.2662,-4.2824,-3.0799,-3.0791,-3.1063,-3.1107,-3.1062,-3.1029,-3.0972,-3.1029,-3.1107,-3.1184,-3.1163,-3.1196,-3.1285,-3.1395,-3.1439,-3.1484,-3.1661,-3.1705,-3.1705,-3.1705,-3.1705,-3.1705,-3.1705,-3.1705,-3.1749,-3.1761,-3.1805,-3.1893,-3.2081,-3.2269,-3.24,-3.24,-3.2344,-3.23,-3.2313,-3.2356,-3.2388,-3.2463,-3.2506,-3.2766,-3.3038,-3.3124,-3.3197,-3.3154,-3.3227,-3.3227,-3.324,-3.324,-3.3368,-3.3484,-3.3526,-3.3641,-3.3797,-3.4105,-3.4314,-3.4564,-3.4771,-3.499,-3.5236,-3.5521,-3.5764,-3.5965,-3.6178,-3.6351,-3.6589,-3.6836,-3.7259,-3.785,-3.844,-3.9058,-3.969,-4.021,-4.0702,-4.0702,-4.0702,-4.0702,-4.0702,-4.0702,-4.0702,-4.0702,-4.0702,-4.0702,-4.0702,-4.0702,-4.0702,-4.0702,-4.0702,-4.0702,-4.0702,-4.0702,-4.0702,-4.0702,-4.0702,-4.0702,-4.0744,-4.073,-4.0816,-4.0816,-4.0915,-4.093,-4.093,-4.1001,-4.1128,-4.1311,-4.1438,-4.1381,-4.1367,-4.1465,-4.1633,-4.1856,-4.2007,-4.2131,-4.2187,-4.2325,-4.2514,-3.0005,-3.0028,-3.0118,-3.0159,-3.0103,-3.0015,-3.0099,-3.0297,-3.032,-3.046,-3.0679,-3.0883,-3.1062,-3.1184,-3.1273,-3.135,-3.1528,-3.1661,-3.1705,-3.1705,-3.1705,-3.1705,-3.1705,-3.1705,-3.1705,-3.1705,-3.1705,-3.1805,-3.1893,-3.1937,-3.2069,-3.2113,-3.2113,-3.2113,-3.2125,-3.2125,-3.2169,-3.2213,-3.2213,-3.2431,-3.2779,-3.2822,-3.2779,-3.2766,-3.2822,-3.2822,-3.2896,-3.2952,-3.3068,-3.3197,-3.327,-3.3398,-3.3513,-3.3683,-3.3894,-3.4105,-3.4314,-3.4535,-3.4812,-3.5059,-3.5332,-3.5507,-3.5804,-3.6032,-3.6138,-3.6403,-3.6747,-3.733,-3.795,-3.8566,-3.924,-3.9788,-4.0364,-4.0589,-4.0659,-4.0702,-4.0702,-4.0702,-4.0702,-4.0702,-4.0702,-4.0702,-4.0702,-4.0702,-4.0702,-4.0702,-4.0702,-4.0702,-4.0702,-4.0702,-4.0702,-4.0702,-4.0702,-4.0702,-4.0702,-4.0702,-4.0744,-4.0702,-4.0702,-4.0744,-4.0787,-4.0816,-4.0901,-4.1086,-4.1142,-4.1114,-4.1114,-4.1213,-4.1354,-4.1606,-4.1717,-4.18,-4.1897,-4.2036,-4.2242,-2.9308,-2.9258,-2.9133,-2.9048,-2.9048,-2.8821,-2.8976,-2.9387,-2.9401,-2.9619,-2.9939,-3.0411,-3.073,-3.1005,-3.1139,-3.1217,-3.135,-3.1484,-3.1617,-3.1717,-3.1705,-3.1705,-3.1705,-3.1705,-3.1705,-3.1705,-3.1705,-3.1705,-3.1761,-3.1793,-3.1793,-3.1705,-3.1705,-3.1717,-3.1705,-3.1749,-3.1849,-3.1937,-3.1994,-3.2125,-3.2257,-3.2388,-3.2431,-3.2444,-3.2444,-3.2519,-3.2593,-3.2723,-3.281,-3.2896,-3.3025,-3.3185,-3.327,-3.3398,-3.3526,-3.3738,-3.3894,-3.4105,-3.4314,-3.4605,-3.4812,-3.5018,-3.5399,-3.5642,-3.5723,-3.5978,-3.6365,-3.6771,-3.7374,-3.8106,-3.8751,-3.941,-3.9999,-4.0561,-4.0645,-4.0702,-4.0702,-4.0702,-4.0702,-4.0702,-4.0702,-4.0702,-4.0702,-4.0702,-4.0702,-4.0702,-4.0702,-4.0702,-4.0702,-4.0702,-4.0702,-4.0702,-4.0702,-4.0702,-4.0702,-4.0702,-4.0702,-4.0702,-4.0702,-4.0702,-4.0702,-4.0744,-4.0773,-4.0744,-4.083,-4.0859,-4.0901,-4.0986,-4.117,-4.1297,-4.1367,-4.1479,-4.1744,-4.1897,-4.1995,-2.8653,-2.8818,-2.8798,-2.8775,-2.8775,-2.8677,-2.8769,-2.8838,-2.8861,-2.893,-2.9045,-2.9134,-2.9598,-3.0656,-3.0713,-3.0812,-3.1086,-3.1267,-3.156,-3.1673,-3.1717,-3.1717,-3.1705,-3.1705,-3.1705,-3.1705,-3.1705,-3.1705,-3.1705,-3.1705,-3.1705,-3.1705,-3.1705,-3.1705,-3.1705,-3.1705,-3.1749,-3.1805,-3.1805,-3.1849,-3.195,-3.2125,-3.24,-3.24,-3.24,-3.2431,-3.2431,-3.2475,-3.2475,-3.2574,-3.2736,-3.2896,-3.3068,-3.3154,-3.3283,-3.3398,-3.3569,-3.3696,-3.3894,-3.4189,-3.4397,-3.4522,-3.4895,-3.5195,-3.5304,-3.5548,-3.5831,-3.606,-3.6713,-3.759,-3.8324,-3.9034,-3.9662,-4.0349,-4.0659,-4.0702,-4.0702,-4.0702,-4.0702,-4.0702,-4.0702,-4.0702,-4.0702,-4.0702,-4.0702,-4.0702,-4.0702,-4.0702,-4.0702,-4.0702,-4.0702,-4.0702,-4.0702,-4.0702,-4.0702,-4.0702,-4.0702,-4.0702,-4.0702,-4.0702,-4.0702,-4.0702,-4.0702,-4.0702,-4.0702,-4.0744,-4.0787,-4.0816,-4.0887,-4.1057,-4.1057,-4.1212,-4.1479,-4.1744,-4.1856]}]]